GFSSGP_250_spd_000.txt.gz
Wind_Speed
29 26 24 24 24 25 24 24 20 22 24 29 33 35 26 17 22 23 26 27 26 26 24 22 23 26 31 35 36 36 40 32 40 43 39 45 43 56 55 60 59 57 54 47 43 37 24 15 7
27 24 26 25 25 22 21 18 14 22 23 22 26 32 28 27 23 25 27 26 26 28 26 28 23 26 31 33 35 34 40 39 41 45 47 50 58 57 58 56 50 44 41 35 34 29 16 6 6
25 24 22 23 28 23 22 20 16 18 23 18 15 13 15 19 11 20 30 18 21 27 25 27 28 30 35 38 40 36 39 45 45 52 51 50 57 58 53 42 37 31 28 25 30 25 11 5 6
19 20 22 25 28 31 22 21 24 22 22 24 31 26 25 23 23 22 20 28 24 27 25 27 30 28 31 38 40 42 39 43 46 49 49 52 54 48 40 37 33 27 20 27 23 23 11 7 5
18 17 13 13 17 19 16 16 16 15 20 20 24 30 32 36 36 35 31 31 31 32 37 35 39 41 41 41 45 46 44 47 51 51 50 47 38 36 31 28 20 19 24 26 21 19 7 0 4
16 14 15 15 14 19 20 20 20 23 23 23 24 26 27 29 30 29 31 32 31 36 41 40 35 35 36 39 43 45 49 47 41 37 31 30 31 30 25 16 14 19 23 24 19 15 2 3 6
17 14 11 10 3 13 17 17 26 28 23 26 28 26 26 30 33 33 32 31 30 30 33 36 38 41 43 45 42 38 31 27 24 25 25 26 26 23 19 14 18 21 22 23 17 15 3 4 6
7 4 6 8 9 13 10 16 20 21 18 22 30 31 27 29 33 34 33 33 36 36 36 34 32 31 28 25 22 19 20 22 23 23 21 20 20 20 17 14 16 17 19 21 15 14 5 3 6
5 5 11 7 7 4 7 10 11 10 12 19 22 26 28 23 22 21 23 23 20 20 21 21 19 17 16 14 16 18 20 20 19 19 20 20 19 16 12 12 10 13 15 20 15 11 6 4 5
9 6 7 5 3 3 1 4 6 8 2 5 6 5 7 10 12 12 11 10 10 10 9 9 9 11 13 15 16 16 17 16 18 19 21 18 17 14 11 9 11 13 11 13 16 13 4 4 2
10 13 11 3 8 6 6 7 12 9 2 5 3 2 3 3 4 4 5 6 8 10 11 11 12 14 15 15 16 17 18 19 19 21 22 19 16 15 12 9 12 12 11 11 13 13 10 6 5
9 12 15 12 10 7 7 3 5 8 3 5 3 2 1 5 7 7 8 8 9 11 11 12 12 12 12 12 12 12 14 16 19 20 20 18 14 14 11 12 11 11 10 14 12 14 13 11 7
11 7 13 12 8 7 6 2 3 6 9 14 5 3 4 8 9 9 8 9 11 11 9 7 6 6 8 11 13 14 16 19 17 14 15 18 16 15 14 15 14 14 18 19 15 19 20 15 14
16 15 14 8 4 6 6 7 6 6 7 7 4 5 6 6 7 7 7 7 6 4 2 2 5 6 6 9 12 13 15 14 15 18 17 17 16 17 20 23 26 32 30 31 31 29 28 25 19
21 20 13 9 9 12 10 8 4 7 7 8 8 8 6 5 6 6 7 7 6 7 8 8 9 9 9 10 10 15 17 17 21 22 20 19 21 21 21 25 27 29 30 32 30 27 27 30 28
15 16 19 15 15 15 15 16 13 13 15 14 12 12 12 10 9 9 9 8 8 8 8 10 11 12 12 12 13 13 15 17 20 21 24 26 30 32 32 31 30 33 36 35 35 30 30 30 32
10 12 13 15 20 22 23 22 20 18 18 19 17 16 17 18 17 16 15 14 15 14 15 15 16 16 14 14 15 16 16 18 19 20 22 23 26 29 32 33 39 40 42 40 37 36 34 34 33
8 8 8 10 13 15 15 16 15 16 14 14 15 15 14 13 12 13 13 11 11 11 12 13 13 14 14 16 17 18 19 21 22 21 20 22 21 20 24 28 33 36 40 43 43 42 40 39 37
8 7 2 5 6 8 8 7 7 9 11 11 10 8 11 13 11 12 12 12 11 12 14 14 13 14 15 17 18 19 20 23 25 26 28 27 29 28 30 34 34 34 36 37 41 43 41 42 41
8 9 8 4 2 2 3 2 4 9 8 8 8 8 11 11 12 12 14 15 15 14 14 15 18 17 18 20 21 22 24 25 28 30 31 32 34 35 36 40 38 39 40 39 38 40 42 40 43
11 8 8 11 8 6 4 5 6 6 5 5 4 4 5 7 9 11 11 13 13 14 15 16 17 19 20 22 23 26 28 28 30 32 33 35 37 40 41 43 42 45 47 42 40 38 40 42 44
17 13 11 11 10 8 10 6 6 5 4 10 7 5 6 9 12 13 15 14 15 15 17 20 23 23 25 26 26 26 27 29 33 36 38 39 39 40 43 46 50 51 54 51 45 40 39 41 43
24 20 16 15 15 11 8 13 11 7 9 11 12 11 13 13 16 15 19 18 18 19 20 21 23 24 26 28 30 31 32 36 37 39 42 44 47 49 50 52 53 55 59 56 55 48 40 40 42
32 26 24 19 18 20 13 14 12 13 13 14 15 14 17 15 18 19 22 22 22 23 23 23 26 28 29 30 31 33 34 37 39 40 42 45 48 50 51 54 57 58 62 61 64 57 50 42 42
36 33 32 26 25 24 19 18 18 15 16 16 17 18 20 22 23 20 23 26 26 27 28 28 29 33 33 36 37 36 36 38 39 41 45 50 54 57 59 60 62 64 68 69 69 66 55 45 41
45 42 35 33 32 29 23 23 24 20 22 21 24 25 24 24 25 27 27 30 32 33 33 33 34 37 38 39 40 41 43 43 43 44 49 53 56 59 61 62 63 67 69 75 73 69 60 47 42
48 43 43 41 37 33 33 30 27 26 28 30 29 32 32 35 35 38 38 37 38 38 35 38 40 40 40 41 43 44 46 44 47 49 53 58 60 62 62 63 64 70 72 78 77 74 64 54 42
49 48 45 43 42 40 39 34 33 32 33 35 39 36 31 36 40 43 44 43 43 42 42 42 44 45 45 44 44 48 46 48 51 54 57 60 62 64 63 65 68 71 75 77 80 78 71 60 47
54 51 49 51 46 43 44 41 39 37 40 39 41 40 37 38 42 43 45 46 47 48 49 49 48 48 48 48 49 50 53 54 56 58 58 63 65 67 66 70 70 73 77 76 81 83 78 66 51
61 58 53 53 49 47 47 46 44 43 44 42 42 44 46 43 43 46 46 47 50 52 54 52 52 52 52 51 53 54 55 59 64 61 62 64 66 68 70 73 72 73 77 70 83 93 84 66 53

GFSSGP_250_spd_003.txt.gz
Wind_Speed
29 28 26 30 29 24 28 31 32 34 32 30 31 29 28 27 24 25 24 20 22 20 20 18 23 23 24 25 30 36 39 42 44 47 46 52 50 50 55 55 51 53 46 39 34 33 30 25 13
28 27 24 26 25 22 22 23 23 23 21 21 21 22 23 23 19 16 18 21 25 26 26 24 30 33 30 30 33 37 43 44 47 45 47 53 58 57 53 47 49 41 36 31 35 31 28 19 8
24 25 25 22 24 22 20 18 18 18 14 16 17 15 16 21 22 24 21 21 27 26 23 27 31 32 33 35 36 39 42 43 52 47 51 53 55 55 47 42 36 32 26 29 35 30 25 14 7
27 27 26 25 24 19 20 21 18 16 16 17 19 20 21 20 22 18 16 20 22 27 30 29 27 33 33 35 38 37 42 43 45 47 54 56 49 40 35 33 30 24 27 30 30 27 23 8 6
24 23 26 27 26 23 22 21 23 25 25 25 25 23 23 23 23 25 25 25 25 27 29 28 33 33 36 40 41 45 46 47 50 54 50 37 31 31 32 29 21 22 26 26 28 25 17 7 4
23 25 24 25 32 29 27 28 22 21 19 19 24 25 28 30 31 30 32 34 35 35 34 37 40 37 37 38 41 45 48 48 41 32 29 28 28 29 26 22 19 21 21 25 24 23 14 9 2
18 21 20 18 17 19 23 23 22 20 18 19 18 21 22 25 26 26 29 31 32 35 34 35 34 37 40 45 46 39 33 28 25 26 26 25 25 27 25 21 16 20 19 22 22 18 13 11 7
14 19 20 13 12 12 10 11 17 24 24 22 20 22 26 28 26 27 31 34 36 36 36 37 42 40 35 32 29 25 22 24 25 25 25 24 26 25 21 17 17 18 16 20 23 16 12 11 11
24 18 10 4 3 6 11 10 7 11 24 21 16 23 29 32 31 25 25 25 26 27 28 25 23 21 20 18 19 21 21 21 23 23 24 24 24 22 18 16 15 17 16 18 22 23 14 12 11
11 10 5 4 5 4 6 4 5 8 9 11 9 9 10 11 9 9 10 12 13 13 13 13 13 14 16 18 19 19 21 21 21 22 25 24 23 20 18 17 15 17 17 12 17 21 19 16 14
4 4 10 5 2 2 5 6 5 8 7 4 2 1 1 2 2 4 6 8 9 10 12 13 15 16 16 17 17 19 19 19 21 23 26 27 24 17 15 18 16 15 13 10 16 19 17 18 18
10 8 2 1 6 3 5 4 4 5 10 5 4 4 4 4 4 6 8 10 11 11 13 13 12 11 12 12 14 17 17 18 19 19 20 22 21 20 15 18 18 16 14 16 24 22 22 26 24
23 7 4 5 11 6 1 2 2 2 2 3 12 12 11 8 4 6 8 7 8 10 11 10 11 11 10 11 11 13 16 18 19 20 21 22 21 20 20 20 23 22 29 33 33 30 30 32 28
24 14 5 4 8 10 7 10 9 9 6 6 5 7 4 2 3 4 6 8 9 9 9 10 11 12 12 13 13 16 20 22 21 23 24 23 22 22 25 26 27 29 32 34 34 35 32 30 29
23 18 10 5 1 4 6 6 5 2 4 8 7 6 8 9 9 8 7 7 7 9 9 10 10 9 10 10 12 13 15 17 18 19 20 21 22 22 24 26 28 32 37 35 38 40 40 34 32
16 15 16 11 9 10 12 12 14 13 11 13 15 16 16 16 16 14 13 13 13 14 14 14 14 14 13 13 13 14 15 18 21 21 21 24 27 24 24 21 26 30 33 36 38 40 40 39 34
9 13 9 12 15 17 19 19 19 18 18 17 18 17 17 16 15 13 14 14 12 11 12 13 13 13 13 14 15 15 17 19 21 23 23 24 24 26 24 26 30 31 32 34 33 33 36 39 39
8 6 6 6 9 11 11 12 15 14 13 15 14 12 10 11 12 10 10 11 11 12 13 12 12 13 14 14 15 16 17 19 21 23 24 25 26 27 29 30 33 36 38 43 43 39 39 37 38
4 6 5 4 5 4 3 5 6 9 9 7 7 11 11 11 13 13 13 13 12 12 12 13 14 14 15 16 16 17 17 19 22 24 25 28 29 31 34 36 39 40 41 45 45 48 49 43 39
7 3 4 5 7 5 5 3 2 4 5 3 5 6 8 8 10 11 11 10 10 12 13 13 15 16 17 19 20 20 22 23 24 26 28 30 30 33 37 39 41 43 44 45 49 55 52 52 43
15 10 6 6 8 9 8 7 5 10 3 5 2 3 5 6 9 10 11 11 12 13 15 15 16 18 20 21 22 24 26 24 26 28 30 30 33 37 41 44 44 46 45 49 53 60 59 66 51
22 18 14 11 8 11 10 9 9 6 9 8 9 5 9 12 12 15 13 15 14 15 17 19 21 23 24 26 29 29 29 30 30 32 31 33 34 39 42 46 48 47 49 50 54 58 59 70 73
30 23 20 18 15 10 13 12 14 10 11 13 13 13 12 13 14 16 17 18 18 18 20 22 25 27 27 29 31 33 34 34 34 35 36 36 39 43 46 47 49 50 51 54 57 58 60 66 79
34 27 26 22 22 20 15 18 14 14 17 16 15 15 18 16 18 21 20 18 20 22 24 26 29 31 33 32 31 34 37 37 37 39 38 40 44 46 49 53 52 51 52 56 61 60 56 67 73
39 35 32 29 26 29 19 23 19 18 20 20 20 20 18 18 20 24 24 22 24 27 30 33 34 34 34 35 36 37 37 38 39 42 39 41 45 49 50 52 53 52 54 58 62 64 58 62 74
48 43 39 38 35 34 24 24 28 25 24 27 27 28 28 28 27 29 31 32 32 32 32 35 36 37 38 38 40 42 42 42 40 39 41 45 44 48 50 54 56 56 59 61 63 67 62 63 66
52 46 47 42 38 36 31 31 34 32 31 33 35 36 34 35 36 35 35 37 37 35 36 38 40 41 42 42 42 45 45 46 45 45 46 48 50 53 51 57 57 59 60 62 65 70 67 66 63
55 54 48 43 38 36 36 37 38 38 36 38 40 42 39 40 41 42 41 41 40 40 40 42 44 45 45 45 45 45 45 47 49 49 48 52 56 57 52 64 61 62 62 64 67 72 73 68 61
60 56 51 49 43 39 39 37 41 40 39 40 41 43 43 42 44 45 47 46 45 45 46 46 46 47 48 46 45 47 47 51 52 54 55 55 58 55 63 65 64 65 59 65 72 77 78 74 65
64 61 59 56 50 49 46 42 40 40 43 43 43 43 46 44 45 43 46 48 49 50 51 50 50 51 49 49 51 52 50 51 54 54 55 58 60 62 68 66 65 65 62 70 75 83 84 79 71

GFSSGP_250_spd_006.txt.gz
Wind_Speed
28 25 24 23 33 31 29 32 34 34 33 32 32 32 31 30 28 26 22 22 21 19 21 18 18 22 26 27 23 33 29 36 34 44 49 52 59 56 57 54 43 38 36 36 36 37 35 31 22
27 26 26 20 24 29 24 24 27 30 31 32 31 30 24 22 24 20 18 15 19 19 22 24 27 30 28 32 34 37 36 38 43 43 46 48 55 55 49 40 36 35 30 35 34 34 34 28 15
26 27 27 28 27 24 23 20 20 24 25 25 21 21 20 17 18 18 19 18 18 20 24 29 32 29 32 35 32 33 34 40 44 48 48 47 54 45 38 36 35 27 31 32 34 33 31 24 13
22 25 26 26 27 25 22 21 19 17 17 14 12 14 14 15 15 18 18 19 20 22 22 26 28 33 33 35 32 37 40 41 45 45 51 52 41 33 33 32 26 23 28 31 32 31 27 23 15
23 24 23 24 24 23 22 19 17 17 17 17 20 20 20 19 18 19 22 21 20 20 22 26 30 33 33 38 39 41 39 43 46 47 38 31 30 29 29 29 23 21 25 28 30 26 25 22 16
22 24 24 24 23 22 20 15 16 19 22 24 24 23 24 22 22 22 23 26 29 31 30 33 35 36 38 38 39 41 43 44 38 30 27 26 26 27 28 25 19 20 19 25 26 24 24 21 17
18 21 23 23 22 21 21 24 25 26 24 22 20 16 21 24 23 23 23 24 25 26 29 33 34 37 37 39 44 41 36 28 24 25 25 25 26 28 28 21 18 19 19 21 24 26 22 21 19
14 13 12 18 20 21 23 24 27 28 23 21 17 16 16 19 21 20 22 25 26 30 32 34 34 35 36 32 26 23 20 21 22 24 25 24 24 25 24 18 17 18 19 17 23 24 24 22 21
12 15 17 18 17 15 15 12 13 17 19 17 20 17 18 21 21 24 28 28 23 22 24 24 22 20 17 17 18 19 20 21 20 19 19 21 24 23 18 16 16 17 17 14 17 21 21 21 22
16 11 19 16 9 5 6 8 9 7 7 12 19 20 16 17 18 17 13 10 9 10 12 12 13 15 16 17 17 18 19 20 21 20 19 21 20 20 21 17 17 16 17 15 15 21 21 21 21
7 11 10 9 7 5 2 7 8 6 8 7 3 3 2 3 2 1 1 4 6 9 11 13 15 16 16 15 14 15 16 19 20 21 21 22 24 25 22 20 18 19 19 19 20 30 30 24 22
7 8 11 9 9 4 3 4 5 8 8 9 8 8 6 6 5 5 5 7 10 10 12 13 13 14 14 14 15 15 15 18 20 21 23 23 18 20 20 20 20 21 22 25 29 32 33 28 26
18 9 8 8 4 3 6 2 0 1 2 1 5 8 8 10 6 6 4 2 5 7 7 7 9 10 11 11 12 13 16 18 19 20 20 19 19 17 20 21 22 23 25 28 31 32 32 32 31
23 18 14 6 2 8 9 9 7 6 6 10 4 5 4 2 3 4 5 5 6 6 7 8 9 10 13 13 13 17 17 19 20 19 21 23 21 20 20 19 25 26 26 29 30 29 29 30 32
21 19 19 14 10 8 3 5 7 5 3 8 11 10 8 9 10 12 13 13 14 14 13 14 14 14 14 14 16 15 16 18 20 20 20 20 22 23 21 19 26 27 29 33 34 38 38 36 29
17 15 20 19 15 13 12 12 12 11 12 15 17 20 19 16 17 18 16 16 15 13 13 14 13 13 14 14 14 15 15 17 19 20 21 22 22 23 24 25 28 30 31 33 37 40 48 46 42
11 12 14 16 16 16 13 14 15 17 18 18 17 14 13 14 13 13 13 12 12 13 14 14 14 13 14 14 14 15 16 17 19 20 20 21 22 25 28 30 31 33 33 35 37 37 42 47 58
3 6 6 7 7 9 7 8 8 10 12 10 10 10 11 13 13 14 14 15 15 14 14 14 14 14 15 15 14 15 14 16 17 19 20 21 22 24 28 31 34 35 36 35 37 39 40 45 47
3 1 3 2 4 2 3 5 6 4 6 6 10 12 12 14 13 12 13 13 13 12 12 11 13 14 15 14 15 16 19 19 18 21 23 23 24 25 30 34 35 37 36 36 38 44 41 44 49
11 8 6 5 3 3 0 2 2 2 3 5 6 6 7 8 9 8 9 10 10 11 11 11 13 14 15 16 18 19 20 23 22 21 23 25 27 29 31 35 36 40 42 41 43 46 48 47 52
20 16 13 9 10 6 4 2 2 5 3 3 2 2 1 3 4 6 10 9 8 10 11 12 13 15 19 20 22 24 26 26 27 28 29 29 30 30 33 36 38 41 45 45 45 47 47 51 52
30 24 18 18 13 9 9 6 4 5 5 7 6 9 9 11 10 9 8 12 12 12 13 14 16 19 22 23 25 27 29 31 31 32 34 33 34 33 35 38 39 41 45 47 46 48 48 50 53
40 30 22 21 20 17 14 11 8 8 11 11 11 10 15 15 15 14 14 13 14 15 17 19 21 24 26 25 26 29 30 32 34 35 37 35 36 34 37 38 41 43 43 49 49 50 51 51 53
42 35 27 24 26 26 21 18 15 11 13 14 15 14 15 17 16 15 13 15 18 21 24 26 26 26 28 28 29 31 35 37 37 37 39 40 39 37 41 43 44 47 44 50 48 50 52 49 54
41 33 31 30 24 34 26 24 23 18 18 19 19 18 17 18 18 19 21 22 24 27 29 31 32 32 33 33 34 36 36 37 40 41 43 44 43 42 44 45 46 47 44 51 51 51 52 50 53
48 42 37 36 36 38 30 31 27 26 27 28 27 26 25 26 25 26 27 29 30 33 34 35 36 36 36 37 39 40 42 42 42 43 44 46 47 46 47 49 47 42 48 53 53 55 54 53 54
51 47 45 42 42 41 36 36 31 32 33 34 33 34 32 34 34 34 36 36 36 38 39 40 40 40 40 40 43 44 45 46 46 47 48 48 49 50 49 48 50 51 53 54 56 57 57 55 56
56 55 53 46 43 40 40 38 40 35 37 36 39 36 38 39 40 40 40 40 41 42 44 44 44 45 46 47 48 50 49 49 47 50 52 53 54 54 51 51 55 55 54 56 59 58 59 60 61
64 61 56 52 48 42 42 39 42 43 42 39 42 41 41 42 43 44 45 44 44 45 46 47 48 50 51 51 53 54 51 51 50 53 55 57 60 58 52 54 55 58 57 64 66 64 64 59 65
74 67 64 62 52 49 46 42 48 46 47 45 44 43 45 45 46 45 49 48 49 50 50 50 51 52 53 54 55 54 54 56 56 58 60 60 65 55 52 53 57 60 63 67 70 68 62 64 69

GFSSGP_250_spd_009.txt.gz
Wind_Speed
34 34 35 34 33 33 33 33 32 30 28 28 28 27 28 29 28 30 27 21 19 16 15 17 20 16 22 24 26 30 34 40 39 38 42 44 49 53 50 34 35 31 30 34 38 37 33 28 21
31 30 30 33 34 35 35 33 30 29 29 29 30 28 28 29 28 23 20 17 14 14 16 17 21 23 26 30 30 31 38 34 39 39 43 43 49 40 36 33 31 28 28 30 32 31 32 27 20
28 29 29 29 37 36 33 30 29 25 24 24 24 24 20 19 19 18 18 17 14 15 16 17 22 25 26 29 31 32 36 34 35 40 40 44 42 33 31 30 30 21 24 29 28 31 33 29 18
25 24 26 28 27 26 21 19 22 23 20 20 16 13 9 10 11 15 17 19 20 19 19 18 18 22 26 28 33 32 37 37 40 45 42 34 29 28 28 28 22 19 21 27 27 29 32 30 22
24 24 25 25 23 22 19 19 19 20 18 15 14 13 14 15 16 15 18 21 19 18 17 17 22 24 29 35 37 39 39 41 42 32 27 26 25 26 26 23 18 18 19 21 26 26 31 28 22
16 20 26 26 23 22 21 19 19 15 15 15 18 20 21 19 20 21 20 21 21 22 24 28 27 28 31 35 37 37 38 31 25 22 23 23 22 23 23 19 16 16 20 18 22 24 28 28 27
16 20 24 26 25 22 19 18 18 17 17 18 22 23 20 19 21 22 22 22 21 21 20 23 24 28 31 32 30 26 20 19 19 20 20 19 19 19 18 16 15 16 18 17 20 23 23 22 26
16 17 18 20 21 20 17 16 20 22 22 24 24 19 16 13 14 16 19 19 19 21 25 25 23 23 23 20 17 18 17 18 18 18 17 17 17 16 18 17 16 15 16 16 17 18 21 20 22
7 8 13 15 16 16 14 16 19 16 15 16 16 16 14 14 16 20 20 20 23 24 20 15 13 12 13 15 16 16 17 15 18 17 15 17 19 21 20 19 16 14 15 14 15 18 21 25 19
9 10 9 11 13 14 13 9 9 9 9 4 5 8 13 17 17 15 15 13 8 5 4 6 8 11 15 15 14 14 14 15 14 16 16 17 14 17 20 19 19 18 18 20 21 23 26 25 22
10 10 10 15 12 11 6 2 2 1 2 1 2 7 8 4 4 4 3 2 1 3 6 8 10 10 11 12 12 13 12 15 15 17 18 16 19 20 21 21 21 22 23 24 24 25 26 24 23
9 12 10 8 10 12 12 7 6 8 7 8 5 2 3 4 5 4 3 3 3 2 3 5 8 9 8 9 11 11 14 18 19 20 20 22 21 22 24 24 24 25 27 28 25 25 24 19 19
16 11 9 10 8 9 11 4 3 4 2 5 9 8 7 6 7 6 5 2 2 7 8 8 7 9 10 11 13 16 18 19 18 20 21 19 22 22 19 25 25 24 25 25 30 38 38 39 32
22 11 7 6 4 5 8 8 6 4 7 10 11 5 3 3 0 2 6 8 11 14 14 14 15 13 16 15 16 15 16 17 17 18 18 18 18 21 21 23 24 25 24 26 28 34 38 39 41
20 19 14 13 11 7 6 9 8 11 10 7 8 10 11 9 9 12 15 18 18 16 14 13 13 15 14 14 15 16 16 16 17 18 19 20 20 20 20 21 24 24 23 26 28 32 35 35 41
14 17 17 18 17 14 15 12 9 7 8 11 15 17 19 20 19 17 18 14 13 14 15 14 14 14 15 16 17 15 16 17 18 19 19 16 16 17 19 22 23 26 28 26 27 31 35 39 44
6 11 11 12 17 18 18 15 15 16 18 16 14 16 17 16 15 13 12 14 15 16 15 15 15 15 15 14 14 14 15 14 14 16 17 17 15 16 19 22 26 28 31 33 31 32 36 41 43
4 3 6 4 8 12 11 11 14 13 10 10 11 13 14 17 17 16 15 14 14 14 13 12 12 12 11 12 13 13 13 15 15 16 18 19 20 21 21 24 27 30 32 33 35 36 36 39 43
9 4 3 1 4 8 7 7 7 6 6 11 16 15 16 14 13 13 12 11 10 10 10 10 10 11 11 11 12 13 16 18 19 18 19 21 22 25 26 25 29 32 35 35 35 38 38 38 40
14 11 7 5 2 0 3 3 4 6 9 11 9 7 6 7 8 8 8 8 7 7 6 6 7 10 12 13 14 15 17 18 20 22 23 23 25 26 31 30 31 32 35 35 35 39 41 42 43
21 19 14 11 10 9 7 6 6 8 10 10 8 3 2 1 3 1 4 5 6 6 5 7 8 11 14 16 18 18 20 21 24 27 28 28 28 28 30 32 33 36 38 38 37 39 45 46 46
33 28 21 18 16 12 13 13 10 9 14 12 10 8 7 7 5 3 5 6 8 8 9 10 13 16 19 20 21 24 26 26 28 30 32 33 33 33 33 36 37 40 40 39 39 38 45 46 49
44 36 29 25 22 20 18 16 13 15 14 12 10 11 11 9 9 8 9 8 9 9 12 14 16 19 22 23 25 27 30 31 31 33 36 36 35 35 36 39 41 42 42 41 36 40 44 49 50
49 38 33 31 27 24 27 23 21 19 20 15 14 14 16 15 13 11 11 13 15 17 19 20 21 24 26 28 30 32 32 33 35 35 37 37 36 38 38 39 41 44 44 41 40 43 44 50 51
46 45 35 32 31 30 29 30 26 23 23 21 19 19 18 18 17 16 18 21 23 24 26 27 27 29 31 32 33 35 35 36 39 41 40 41 41 43 43 44 46 48 48 44 46 44 43 45 52
51 50 44 38 35 38 37 36 28 29 28 29 27 23 23 24 23 24 25 26 29 31 31 32 33 33 35 36 37 38 41 42 42 40 41 44 46 48 48 50 50 56 48 43 43 46 46 48 54
58 53 49 46 39 40 40 40 32 32 35 33 32 31 29 30 29 30 30 32 35 36 37 37 37 38 37 39 40 43 45 44 43 43 44 46 48 48 50 52 54 47 48 47 46 45 48 54 55
66 62 59 50 44 42 44 45 42 37 38 38 37 36 34 35 35 34 34 36 37 38 38 38 40 41 41 42 43 43 45 46 47 47 47 49 52 54 57 50 50 50 49 47 50 50 55 57 56
71 69 64 55 49 46 46 46 50 45 44 41 43 41 40 40 39 38 39 41 41 41 43 42 42 43 43 44 45 46 47 49 50 52 54 57 57 57 59 55 49 47 46 52 57 57 59 59 65
80 76 70 64 54 52 52 51 57 54 46 45 45 45 46 45 42 42 43 45 45 45 45 45 46 46 44 45 47 49 51 52 54 55 57 57 57 49 53 56 47 46 55 57 62 65 66 66 77

GFSSGP_250_spd_012.txt.gz
Wind_Speed
32 31 28 27 32 35 35 36 33 29 28 27 25 24 25 26 24 21 25 26 23 19 19 19 17 21 17 22 29 30 36 29 34 40 41 41 45 32 28 32 30 20 23 27 30 31 28 25 22
31 32 32 31 30 33 35 34 32 31 30 29 28 28 27 28 28 27 25 22 18 18 17 18 17 21 23 25 27 27 34 33 35 40 38 42 30 28 30 27 24 16 21 26 28 33 34 29 24
27 30 32 34 35 36 35 35 33 33 33 32 30 28 25 23 19 20 19 20 17 14 13 15 17 20 21 23 24 27 32 34 36 37 39 29 24 24 24 24 15 14 16 23 27 32 34 33 25
26 27 31 30 32 35 35 34 31 30 28 25 25 19 14 12 12 14 16 17 19 19 17 18 20 20 20 24 27 32 35 36 38 34 25 21 21 22 20 17 13 14 16 16 25 27 32 34 29
27 28 29 28 30 28 25 24 24 20 20 21 20 17 15 13 13 14 14 15 18 17 18 16 19 23 28 28 31 32 33 31 26 21 21 21 20 19 19 14 13 15 15 15 17 22 25 26 29
21 24 25 28 27 26 22 18 15 13 14 15 15 17 16 17 18 18 17 18 18 20 20 21 24 25 25 26 28 28 25 19 19 20 20 19 19 17 14 14 13 14 14 15 16 19 20 23 25
18 18 23 27 26 23 21 17 15 16 17 15 16 18 21 21 19 20 18 17 18 20 20 18 19 22 23 23 21 17 17 17 17 18 16 14 14 15 17 14 14 14 15 14 14 17 17 21 23
16 18 20 23 24 21 20 17 17 18 16 18 20 21 21 17 13 11 12 14 16 17 18 21 21 18 14 11 13 14 15 15 16 12 12 14 14 18 17 19 16 15 16 17 18 20 20 22 20
12 17 17 19 21 22 20 17 16 18 19 16 13 15 17 17 11 12 15 16 17 18 19 17 11 6 8 10 10 11 12 13 12 11 12 14 17 21 20 19 19 19 19 19 21 22 23 22 20
14 16 15 11 12 11 11 12 16 15 13 10 3 2 4 5 11 14 11 10 9 6 4 2 4 6 6 7 9 11 11 11 13 17 18 17 22 23 21 23 23 22 23 26 26 26 25 20 15
14 13 12 8 8 9 12 13 9 4 4 5 6 6 3 2 3 3 2 1 2 2 1 1 2 4 8 9 10 11 13 16 19 18 21 21 22 23 23 21 22 22 23 28 31 33 30 34 29
11 11 8 8 9 11 11 11 7 5 5 9 7 3 1 1 0 1 1 2 2 2 4 4 7 7 10 14 16 16 17 18 19 18 17 18 17 18 21 22 22 22 22 23 28 29 32 36 29
5 8 9 12 14 13 14 13 12 8 6 1 4 9 7 4 2 2 3 2 4 7 10 14 16 16 18 17 16 17 15 16 16 15 15 15 17 20 20 20 21 21 22 24 27 29 31 33 35
9 2 3 10 12 14 13 12 9 5 2 4 9 12 5 5 5 4 5 9 15 17 18 17 17 18 17 14 15 15 16 16 16 15 15 15 16 18 18 19 20 23 23 24 26 29 32 34 34
16 10 6 5 8 15 15 13 8 4 6 6 4 4 9 10 11 13 19 17 15 14 15 18 18 17 15 15 14 14 14 15 15 16 15 16 15 16 19 21 22 21 22 23 25 28 32 34 35
10 12 12 9 9 8 11 11 9 6 6 1 5 11 16 18 20 18 15 14 15 15 15 16 17 15 14 13 12 12 12 12 13 15 15 15 15 18 19 19 20 23 24 27 27 28 31 36 37
3 5 9 13 12 12 14 14 14 13 14 15 16 20 17 16 15 14 15 15 14 15 15 15 14 12 11 12 11 12 14 14 14 15 16 18 18 19 22 23 23 26 29 29 31 31 31 36 37
2 3 4 5 5 9 13 19 22 19 15 14 13 12 17 19 17 17 16 15 14 13 12 12 11 9 8 10 11 12 13 13 14 15 15 18 20 22 23 24 23 24 27 32 34 34 29 34 36
9 7 7 6 3 5 8 14 17 14 13 13 15 16 15 16 15 14 13 12 11 9 8 8 8 8 8 9 9 11 13 15 16 18 19 20 21 23 24 26 27 27 29 33 35 37 32 31 33
17 14 11 10 9 8 9 10 10 9 11 17 14 11 8 8 8 9 8 8 7 5 4 4 3 4 6 9 12 15 16 18 20 22 23 24 25 25 26 27 29 30 31 34 36 36 37 31 35
27 22 18 14 13 14 12 12 11 11 12 15 13 9 8 6 3 2 4 4 2 1 1 1 3 5 9 11 13 16 19 20 22 25 27 28 26 26 28 29 31 32 33 35 37 36 34 36 37
34 32 25 20 20 17 16 14 13 13 18 18 17 14 11 11 8 7 6 6 5 5 5 5 7 9 12 15 17 19 22 24 26 28 29 31 28 28 29 32 33 34 36 36 38 38 34 34 35
45 40 33 28 27 19 21 19 16 17 17 22 20 19 18 16 14 12 10 9 9 8 8 9 12 15 18 19 21 23 25 26 28 31 30 30 30 31 32 33 35 37 40 41 43 38 35 33 36
50 42 38 33 32 25 27 25 21 23 18 21 23 24 24 21 17 13 13 13 13 13 15 17 18 21 23 24 25 27 27 28 31 32 32 33 36 36 39 40 40 40 44 43 36 37 33 38 39
56 45 39 34 33 30 34 31 29 27 24 23 23 24 24 23 20 17 16 17 17 19 21 23 25 27 29 29 30 29 29 31 33 34 36 38 40 41 42 43 45 46 45 40 41 38 36 38 39
61 54 46 43 39 38 42 36 38 33 29 30 29 27 27 26 24 23 21 20 23 25 27 29 29 30 31 31 32 32 32 34 35 37 40 41 43 45 46 48 47 44 42 41 43 45 42 42 43
66 63 53 51 47 45 44 45 44 35 35 39 37 34 32 31 30 30 29 28 30 31 33 33 33 33 32 33 34 34 34 36 38 40 42 44 46 48 49 45 48 41 42 46 46 48 44 51 48
71 69 66 56 51 45 47 46 48 42 41 42 39 38 38 35 35 34 33 33 34 35 36 36 36 37 35 35 35 35 36 38 41 43 45 48 49 50 47 43 41 43 44 47 52 53 48 52 55
79 75 71 63 57 51 49 49 55 45 46 47 46 42 41 41 41 38 36 38 39 39 40 40 40 39 39 37 37 37 40 43 45 48 50 49 48 47 49 45 43 46 48 49 59 49 53 57 58
90 85 82 74 60 55 52 54 61 51 47 49 50 48 48 46 46 43 41 43 44 43 43 41 41 41 42 41 39 41 42 45 48 50 52 46 44 45 48 45 48 50 44 51 55 51 57 59 60

GFSSGP_250_spd_015.txt.gz
Wind_Speed
29 27 27 24 13 36 34 33 33 28 26 25 24 25 22 22 24 24 23 23 23 24 26 27 27 22 21 24 27 35 26 25 36 38 40 40 38 25 22 21 15 11 18 23 26 28 27 23 18
28 27 27 31 35 34 34 36 35 32 32 32 31 29 28 27 28 24 24 26 24 23 22 22 22 23 25 25 28 29 29 31 35 40 39 32 26 21 20 17 10 8 14 18 23 30 29 22 15
27 29 30 30 31 29 28 32 35 34 33 33 33 32 32 30 27 25 22 21 22 19 18 15 17 21 22 24 27 27 30 34 38 36 28 24 22 19 16 9 7 10 12 15 17 24 28 25 14
25 26 30 33 33 34 34 33 32 34 34 33 32 32 30 26 18 14 15 16 15 19 20 20 21 22 23 27 28 31 32 32 31 21 22 22 19 16 11 10 10 11 10 10 14 20 24 27 21
23 23 25 27 28 31 36 35 34 34 33 31 27 24 23 20 15 13 14 13 16 19 20 22 24 22 24 27 28 28 27 21 18 19 18 17 13 12 10 10 10 11 10 9 13 18 20 23 21
24 25 25 22 26 31 29 27 24 22 23 21 20 21 22 21 19 17 18 19 20 21 21 24 22 25 24 24 24 21 14 15 15 14 12 11 13 13 13 11 11 11 13 11 15 16 19 19 18
26 28 28 27 28 28 27 22 19 17 17 16 17 17 20 20 19 20 21 21 19 19 21 21 21 21 22 20 13 11 11 11 12 9 10 12 13 14 14 15 14 14 14 16 17 17 16 17 14
27 25 25 26 27 29 26 21 16 16 17 20 18 20 23 22 19 15 12 13 14 19 19 18 19 19 15 8 8 8 8 9 10 10 11 12 13 15 16 18 20 22 26 28 28 27 22 16 12
17 19 22 21 24 27 24 19 17 18 19 19 16 20 20 19 15 13 13 14 16 16 18 18 13 9 6 5 4 5 8 9 12 13 13 16 20 20 21 22 24 27 27 32 31 27 33 34 23
18 5 22 21 22 21 20 18 16 16 16 15 13 10 9 7 11 12 14 12 12 11 8 5 5 6 4 1 5 10 13 14 16 18 17 18 19 20 21 22 20 22 23 27 28 30 30 30 30
17 24 16 16 14 10 13 12 10 11 12 8 9 8 7 5 4 2 2 2 1 4 5 6 7 3 6 9 12 14 15 16 15 16 15 14 17 18 19 21 23 23 24 28 28 32 32 28 29
10 11 8 11 10 12 14 12 13 12 8 8 7 4 3 4 5 3 3 4 6 7 6 6 6 8 15 16 17 15 14 14 14 13 14 15 16 19 22 22 22 22 23 28 28 29 32 30 24
3 5 7 11 13 14 14 13 14 12 13 11 4 2 5 6 6 5 4 5 5 5 7 10 15 17 17 14 15 14 13 15 16 15 14 14 17 18 19 20 19 21 23 28 29 25 31 30 28
9 2 10 13 15 16 17 16 14 12 13 8 4 3 4 7 6 6 6 5 8 13 15 17 18 16 15 15 15 15 15 16 15 13 12 12 14 17 19 19 18 22 25 27 31 33 29 28 31
10 7 1 8 15 17 16 15 15 11 6 3 5 6 4 9 8 9 14 16 15 14 15 16 15 16 14 14 14 11 11 11 12 12 13 15 16 18 19 19 20 21 23 26 28 32 30 28 28
6 8 9 4 2 12 19 15 13 8 9 10 8 7 10 14 17 17 14 12 12 14 14 14 14 14 13 12 12 11 10 11 12 13 14 16 17 19 20 21 22 23 25 26 26 29 29 29 29
1 3 7 11 8 5 8 15 11 12 16 16 14 16 20 20 16 14 13 13 14 15 14 14 13 12 10 9 10 10 11 14 16 16 16 18 19 21 21 22 22 24 25 27 28 29 28 28 27
7 4 4 4 6 7 9 14 19 17 17 21 21 17 14 15 15 15 15 15 16 15 12 10 9 7 7 6 7 9 13 14 15 17 18 20 21 22 23 23 23 24 25 27 27 28 28 28 27
15 10 8 6 5 6 9 15 13 13 16 18 17 20 16 13 14 14 14 13 13 12 10 9 7 6 4 5 7 10 11 15 17 19 21 22 22 23 23 24 24 23 25 25 28 29 31 31 29
21 17 15 11 9 9 8 12 9 9 15 18 21 19 17 15 13 11 10 10 9 9 7 5 4 1 3 7 11 13 14 16 19 21 22 22 22 22 23 23 26 27 30 31 32 32 35 32 28
30 26 22 18 14 13 14 14 14 12 16 19 19 18 15 13 11 10 9 9 7 6 5 5 5 4 6 10 13 15 16 18 20 21 23 23 23 23 25 28 29 31 33 36 37 37 35 31 27
36 34 30 26 20 19 19 17 16 15 17 20 19 16 12 12 10 9 9 9 8 8 8 8 6 7 10 13 16 17 20 21 21 22 24 24 25 27 29 30 34 37 39 38 37 36 29 32 26
42 45 38 33 28 28 20 20 22 22 21 22 22 21 19 14 15 14 13 12 12 12 10 8 9 11 14 16 18 20 22 23 24 25 25 26 29 31 33 36 38 38 40 39 35 34 30 33 30
52 48 44 39 36 32 26 25 25 25 24 24 26 26 23 21 20 21 18 17 16 15 14 15 14 16 18 19 21 23 24 25 25 25 28 31 33 36 38 41 42 43 40 39 35 31 34 35 32
59 54 47 42 36 36 34 33 31 30 26 26 27 30 28 26 25 23 23 21 19 19 19 19 20 21 23 23 24 25 26 27 28 29 31 34 36 39 42 43 44 40 38 36 36 35 39 41 43
67 64 52 49 45 45 43 37 39 38 33 29 30 29 28 28 27 28 27 25 24 24 24 24 25 26 27 27 27 29 28 29 29 31 34 36 38 41 44 45 42 43 40 39 38 40 41 46 51
68 72 57 58 54 50 46 47 50 44 35 34 36 34 32 30 29 28 29 27 28 29 30 30 30 30 30 31 31 30 29 31 31 34 36 41 43 44 44 43 40 43 42 41 41 42 43 47 49
77 71 74 62 57 52 53 52 50 49 41 40 41 40 38 37 35 35 35 33 34 34 35 35 34 33 33 33 33 33 32 33 34 36 38 42 44 46 40 40 41 45 42 38 40 42 46 47 48
84 77 80 73 68 60 57 53 55 55 46 44 47 46 45 43 41 41 39 39 39 38 38 37 37 37 36 35 35 36 35 35 38 40 41 44 48 48 42 42 44 45 41 39 42 45 48 55 51
91 87 88 84 74 65 62 57 62 64 54 49 52 52 50 48 46 45 44 43 42 43 42 41 40 39 40 40 40 40 38 39 41 42 44 48 51 49 44 42 42 47 38 40 49 53 51 51 55

GFSSGP_250_spd_018.txt.gz
Wind_Speed
23 18 14 16 21 32 36 37 35 31 30 29 28 22 21 19 19 21 21 23 21 24 24 27 28 30 30 27 23 29 31 32 35 37 40 40 30 25 23 16 9 7 14 17 24 26 19 13 11
27 21 16 4 10 24 20 26 25 28 29 29 26 24 26 27 28 28 29 26 25 23 26 26 28 28 26 28 31 30 32 36 37 38 37 31 23 22 19 10 7 6 8 12 16 24 20 11 7
23 23 32 42 26 13 25 27 26 28 31 33 29 31 29 31 32 33 28 24 22 23 24 23 21 18 21 26 27 29 32 34 34 34 27 23 21 17 9 7 7 4 7 11 14 20 21 14 5
24 27 36 38 44 39 32 32 28 32 36 36 35 35 35 32 31 27 24 19 15 16 17 21 22 22 24 28 29 30 28 29 31 23 21 19 13 11 9 9 8 8 9 8 13 17 17 17 9
18 7 35 34 34 34 35 30 31 32 32 33 34 34 33 32 27 22 20 17 15 15 17 20 23 23 26 26 27 27 28 24 18 17 15 13 12 12 11 10 10 11 11 13 16 18 15 11 10
15 37 26 27 27 34 36 35 32 33 33 31 29 29 27 26 24 21 20 20 20 19 20 21 23 24 27 27 25 23 18 15 14 12 11 11 11 10 12 13 12 14 16 16 18 18 14 8 5
12 30 34 30 19 25 29 30 28 24 23 24 21 20 21 22 23 21 21 22 22 22 23 25 24 23 22 20 20 14 13 11 9 10 9 9 12 15 17 23 24 24 25 26 23 30 33 17 4
17 31 29 33 31 30 28 27 28 24 19 19 21 21 22 25 25 24 21 17 15 14 15 16 18 18 19 17 12 11 7 7 7 9 10 14 18 20 20 19 22 25 27 29 26 23 29 37 22
37 25 27 31 32 32 34 32 27 21 19 19 20 22 21 22 24 23 17 13 14 14 13 16 18 16 10 9 8 3 10 12 12 15 16 16 18 20 18 20 23 27 28 30 34 29 28 25 30
22 19 18 22 29 32 29 28 24 19 19 19 20 21 18 19 17 15 14 16 14 12 11 9 7 7 7 4 3 10 12 12 14 16 16 17 20 19 19 21 22 26 28 27 26 30 27 25 22
22 18 24 23 23 21 19 19 17 15 16 13 14 14 15 9 6 10 9 6 4 3 5 5 6 4 3 9 11 12 12 11 12 13 14 16 18 18 18 19 20 22 26 27 25 26 27 26 21
24 24 13 14 14 19 20 11 14 13 11 11 8 5 4 6 7 8 6 4 2 4 6 5 2 5 13 14 12 12 12 13 15 15 15 16 15 17 17 15 18 20 22 24 24 25 23 26 28
9 13 14 12 11 14 11 11 13 11 10 11 10 7 5 5 8 7 6 5 2 4 2 3 10 15 14 13 13 14 15 16 15 14 13 13 15 16 15 16 19 20 22 23 24 26 26 23 23
11 6 4 7 11 11 10 11 12 11 11 13 13 11 8 6 9 7 6 4 5 5 10 17 16 14 14 14 16 15 15 14 12 12 12 14 15 17 17 19 21 23 24 27 27 26 24 23 21
10 10 5 7 14 13 14 14 12 12 13 13 16 10 4 6 7 6 7 9 12 14 16 16 14 13 14 13 13 11 10 13 13 13 15 16 16 17 18 21 22 24 25 26 27 27 27 26 25
3 5 8 5 5 7 14 9 10 16 13 12 13 10 10 11 11 12 13 13 13 15 14 14 14 13 13 12 12 11 12 14 14 15 15 16 18 20 20 21 22 23 24 26 26 26 27 28 26
6 0 3 6 9 10 12 9 7 15 12 14 13 14 15 18 17 14 12 12 13 13 14 14 13 10 10 10 10 11 12 13 15 16 18 18 18 19 20 20 21 22 23 25 26 27 27 28 26
12 8 5 2 4 9 9 10 10 9 16 15 16 19 18 16 15 15 15 16 16 15 14 12 9 8 8 8 9 11 12 12 13 15 16 18 19 19 20 21 20 22 23 25 27 28 29 28 26
19 15 11 7 6 6 15 14 2 12 12 15 15 17 16 15 14 15 15 15 15 12 11 9 7 7 6 7 8 9 11 13 14 16 18 20 20 19 18 19 21 25 27 29 30 30 30 26 24
25 21 18 13 10 11 16 19 14 11 9 11 12 15 15 16 17 15 13 12 10 10 9 7 5 3 2 5 9 9 10 14 17 18 20 19 19 19 21 24 27 28 29 31 31 30 27 24 20
31 29 25 20 16 13 16 17 12 9 12 12 15 15 15 15 15 15 14 13 11 9 7 5 4 4 4 7 10 13 13 16 17 19 21 20 22 24 26 27 29 31 32 32 29 30 26 23 24
35 37 33 29 22 21 20 19 18 16 15 17 19 18 13 12 11 13 13 13 12 10 8 7 7 6 7 10 11 13 16 18 19 19 20 23 25 28 29 32 33 34 33 32 31 33 25 22 22
42 43 42 36 30 29 24 23 23 20 19 21 22 21 18 15 16 15 14 13 13 11 10 9 9 9 10 12 14 15 17 19 19 19 21 24 28 30 34 36 37 36 33 33 35 34 30 26 29
54 47 47 41 38 32 31 26 27 24 26 25 26 27 26 24 20 18 18 16 15 15 13 12 13 12 14 16 18 19 20 21 21 21 23 26 31 34 37 39 42 39 36 37 39 38 35 32 33
59 57 49 48 38 35 37 32 29 28 29 26 28 32 33 30 28 24 22 19 18 18 18 17 17 17 19 19 20 21 22 22 23 25 26 29 32 35 40 42 44 41 38 40 40 41 41 41 38
68 65 59 51 48 46 45 38 36 38 33 32 31 31 31 33 32 31 28 24 22 22 21 22 21 22 23 24 23 24 23 23 24 28 29 31 33 36 38 44 45 40 40 43 43 44 42 40 43
70 73 63 61 57 55 46 46 45 45 42 40 35 33 33 33 32 33 31 27 26 24 24 25 26 27 29 28 26 26 27 26 26 29 31 34 37 38 40 46 47 45 39 41 44 44 45 47 46
79 75 75 71 65 55 55 53 49 50 50 47 40 38 40 37 34 36 34 31 30 28 28 29 30 31 31 31 30 29 30 30 30 32 33 35 39 42 44 47 49 47 44 43 45 49 51 49 47
77 83 79 78 74 67 61 54 55 55 55 51 47 43 46 45 38 41 39 37 35 35 34 34 34 34 34 34 34 33 33 34 34 36 35 37 42 43 48 49 50 49 46 45 47 51 50 53 51
57 75 86 85 77 73 68 59 60 61 62 60 54 49 51 52 47 45 42 40 39 40 39 39 39 38 37 37 37 37 38 39 39 40 40 41 44 46 49 54 55 54 50 48 49 52 53 53 54

GFSSGP_250_spd_021.txt.gz
Wind_Speed
20 13 13 10 14 15 14 19 31 28 33 27 25 23 19 19 22 24 23 25 26 26 24 24 28 31 34 35 36 34 33 34 36 38 39 39 36 26 23 18 8 4 11 17 21 18 9 8 10
22 15 15 12 21 26 29 31 31 26 23 23 25 25 23 22 24 26 29 30 29 26 23 28 33 33 33 34 24 26 29 29 35 37 33 31 26 20 15 12 7 4 13 17 15 18 10 2 5
24 17 2 12 9 12 22 26 19 23 25 24 25 26 25 27 28 29 32 33 25 22 22 23 27 27 25 21 25 28 33 31 29 28 28 24 15 13 12 10 10 7 10 12 17 14 12 5 1
23 23 16 13 25 16 20 21 26 27 34 29 30 30 30 30 33 31 32 27 22 20 18 19 18 20 20 24 25 29 26 25 27 24 20 13 15 11 13 11 12 11 11 15 16 15 8 7 3
27 30 38 39 39 35 34 36 36 36 34 31 31 32 31 32 31 32 27 24 19 20 19 19 18 19 20 25 24 25 29 25 20 17 13 14 12 13 15 15 16 18 19 25 23 14 4 3 5
32 22 33 30 31 42 40 37 33 32 32 31 30 27 29 27 26 25 24 23 22 22 21 22 24 23 25 26 26 24 23 18 13 10 10 12 15 18 23 26 25 22 20 19 26 31 19 3 5
23 15 25 30 33 34 37 37 33 29 28 25 25 24 26 23 22 23 23 22 23 23 21 21 22 22 24 17 17 19 15 11 6 8 13 16 18 22 24 24 25 29 29 24 21 25 29 15 4
25 35 29 29 32 33 35 29 25 27 26 21 23 24 23 22 25 26 26 24 23 16 14 16 17 14 15 16 11 12 5 5 10 17 15 17 20 20 21 22 25 25 24 25 27 26 21 28 24
23 30 27 28 27 26 31 28 29 28 26 24 24 22 23 23 25 26 25 23 17 14 17 15 12 11 7 8 7 4 9 11 16 16 19 18 18 19 18 22 24 24 24 24 24 27 25 22 22
39 29 22 27 24 22 29 29 32 29 28 21 24 20 21 24 21 20 18 15 14 16 16 7 3 5 6 2 7 9 11 12 12 15 16 17 16 18 14 14 19 21 21 23 21 22 24 25 21
37 41 36 32 27 23 27 29 27 22 22 18 15 16 16 13 12 9 7 9 11 6 2 1 4 4 3 9 10 10 11 11 14 15 16 16 14 17 13 13 16 18 19 21 21 18 18 20 20
7 26 31 24 21 21 19 20 18 16 15 13 10 6 8 6 6 6 6 7 5 1 1 2 4 6 11 11 11 11 14 16 15 15 13 13 15 14 12 13 14 17 17 19 19 20 20 16 18
7 7 14 20 20 19 15 16 15 14 11 8 5 8 9 7 7 7 7 5 3 2 4 5 9 14 11 11 14 16 15 15 13 12 13 14 14 13 14 15 15 17 18 18 19 19 20 18 14
9 7 7 8 15 17 14 13 8 10 9 7 9 14 14 14 11 8 6 5 6 6 8 14 16 13 11 13 15 14 12 10 12 12 13 13 14 13 14 16 17 19 21 22 22 21 21 18 15
9 9 8 7 8 8 7 4 8 8 8 9 15 19 20 21 8 8 7 7 11 16 18 16 14 14 13 12 12 13 13 12 14 12 13 12 13 14 15 15 17 19 20 21 22 21 21 21 21
8 8 6 7 7 2 9 18 6 12 10 10 14 18 22 14 15 14 14 14 15 17 16 16 14 13 12 13 14 13 12 12 11 12 14 14 15 16 15 15 16 18 21 22 23 22 22 22 22
13 10 6 6 6 2 7 9 11 10 12 14 11 16 13 15 19 20 16 16 17 15 16 15 14 12 11 11 12 10 10 10 11 12 14 16 16 16 15 17 17 20 22 24 25 24 23 20 15
18 15 10 6 5 6 10 8 4 12 12 12 11 15 13 18 18 17 17 17 19 18 17 15 12 10 10 10 8 7 7 8 10 13 16 17 16 16 17 18 20 22 24 26 26 23 23 18 10
24 20 18 13 8 6 12 13 4 6 8 13 16 15 18 16 13 15 17 18 19 18 15 13 11 10 8 6 6 5 6 9 12 14 15 15 15 18 21 23 25 26 27 26 26 25 27 21 11
28 26 24 19 14 11 14 10 6 9 12 13 16 15 12 13 15 16 17 18 15 13 12 9 8 6 3 2 5 7 8 11 13 14 15 14 17 21 24 27 30 31 30 27 25 27 27 26 18
32 33 29 25 21 14 16 17 13 11 10 12 12 14 14 16 18 17 16 15 14 13 11 9 7 5 2 3 6 7 11 13 15 14 14 17 21 25 27 31 32 33 32 27 27 31 31 27 22
35 40 37 31 27 24 19 20 17 15 12 14 14 17 17 16 16 16 15 14 13 12 10 9 7 6 6 5 7 10 13 15 14 15 17 19 23 27 30 32 36 39 39 35 31 31 31 31 28
49 42 43 39 32 30 22 22 25 22 18 17 21 19 18 14 14 13 14 14 13 13 12 10 9 10 9 7 9 12 14 14 15 15 17 20 24 28 32 35 36 39 41 42 38 36 35 35 34
56 50 46 45 37 30 30 25 23 22 25 23 24 23 23 20 17 14 14 14 13 14 12 11 13 12 11 11 12 15 14 15 15 18 21 23 25 27 31 35 37 39 43 43 42 38 36 36 36
59 56 53 48 41 33 36 30 30 27 27 25 25 26 30 27 24 22 19 15 16 16 16 15 15 16 15 15 16 19 18 18 17 19 22 25 28 29 32 36 39 40 41 43 45 42 40 39 40
61 62 57 54 49 48 48 37 38 37 34 32 30 30 32 32 31 30 26 24 22 19 20 20 17 17 20 20 21 23 22 22 21 21 23 26 30 32 34 35 39 44 47 45 47 47 44 42 43
54 58 64 66 62 56 47 45 45 46 38 38 35 35 35 33 33 33 32 33 29 25 26 23 22 20 22 25 25 25 24 24 24 24 24 28 30 35 36 37 39 41 44 47 47 48 46 43 44
33 45 65 64 63 59 54 52 45 50 46 43 44 42 39 34 33 31 37 36 33 29 28 28 27 24 26 28 28 27 27 27 27 26 27 30 33 36 39 40 42 44 46 48 48 48 47 45 43
41 36 43 65 69 65 62 53 56 57 55 51 51 51 46 40 37 42 37 34 33 32 30 31 32 31 32 32 31 31 31 31 31 30 30 33 37 39 40 43 45 46 50 51 52 51 50 48 48
47 39 43 52 53 69 72 57 65 64 66 60 57 56 54 49 45 45 41 39 39 37 34 35 37 36 36 36 35 35 35 35 35 33 35 37 40 42 44 45 48 50 52 53 54 54 54 53 53

GFSSGP_250_spd_024.txt.gz
Wind_Speed
21 17 12 12 17 18 21 17 23 22 21 23 27 19 16 14 14 17 18 21 22 24 27 24 21 28 32 33 34 35 28 30 35 35 35 32 27 20 14 12 7 8 15 19 17 14 6 5 9
25 17 14 13 18 22 19 20 23 25 27 25 18 20 18 20 21 20 21 24 26 25 25 26 25 29 35 36 35 23 25 30 31 29 29 25 16 16 12 9 6 7 12 14 17 12 9 2 3
23 16 14 11 25 19 22 29 28 33 31 27 24 22 25 24 26 25 26 25 25 23 23 22 21 23 21 18 20 24 25 28 31 27 25 17 15 11 11 9 8 10 13 14 11 9 5 4 4
21 10 16 9 17 14 16 22 27 26 27 26 30 32 31 28 26 25 25 24 22 21 19 18 18 19 17 16 21 23 22 26 26 26 17 13 10 9 15 17 14 16 20 21 16 4 2 2 1
31 27 14 18 15 17 19 22 18 24 29 36 37 31 31 30 26 23 23 23 22 22 21 20 21 20 19 22 26 27 25 22 22 15 8 10 13 20 19 20 17 15 12 20 26 16 2 5 5
32 38 34 28 23 25 25 30 30 39 42 41 33 31 29 29 28 25 23 22 22 23 21 23 24 23 21 22 22 18 18 17 14 7 9 14 17 18 22 22 24 22 22 22 26 31 17 6 6
35 35 41 32 30 32 32 30 25 33 38 35 29 27 26 28 26 23 23 23 23 21 22 20 16 14 16 15 12 12 13 9 6 10 12 15 16 19 18 21 20 22 22 23 26 24 25 13 4
32 35 36 30 23 25 27 32 32 32 32 33 27 24 24 26 26 25 25 24 24 23 21 15 15 12 9 8 7 8 6 11 13 12 14 14 14 16 18 19 21 22 22 21 23 21 19 20 10
33 32 37 36 38 33 30 27 26 27 23 26 27 25 23 23 23 24 25 23 23 18 15 13 14 6 5 6 6 8 13 14 15 13 13 14 12 11 15 16 20 19 18 16 18 20 20 20 15
31 34 38 39 35 30 19 19 26 29 29 29 29 19 20 22 23 19 19 18 12 11 11 10 1 3 5 7 9 10 12 12 12 14 13 12 11 9 12 15 18 17 16 16 15 14 14 12 13
36 38 41 42 41 43 40 38 33 28 23 24 21 16 16 18 14 13 9 6 5 3 2 3 2 6 9 11 9 8 10 11 13 12 9 10 9 10 12 13 15 16 16 14 14 14 11 11 13
7 18 39 48 45 45 42 20 19 19 16 15 13 12 8 11 7 5 4 1 2 4 4 5 8 11 12 11 10 14 14 13 11 8 10 10 11 11 12 13 14 16 16 16 15 16 15 10 7
6 6 8 16 22 26 22 20 16 15 14 12 15 12 5 5 6 4 4 3 5 4 7 11 15 14 12 13 16 15 14 10 10 9 10 11 11 12 13 15 15 17 18 16 17 16 13 10 3
8 9 8 8 12 13 15 12 16 14 9 10 11 9 5 7 13 15 9 8 5 8 12 17 16 13 13 14 14 12 12 10 9 8 10 11 12 14 13 15 16 16 19 19 21 21 19 14 10
9 7 5 7 9 9 9 10 13 6 8 10 9 10 10 11 18 14 10 9 9 17 21 18 16 15 14 13 14 14 12 11 9 10 13 16 17 17 16 16 17 20 24 25 23 22 21 18 12
14 10 7 8 10 11 7 14 11 10 12 10 10 15 9 12 14 14 12 14 20 22 19 18 18 15 15 14 13 11 9 8 10 13 15 17 17 17 17 19 22 23 24 24 23 22 24 19 12
14 15 10 5 6 6 7 15 15 12 12 12 10 12 7 9 13 18 21 21 21 19 20 20 17 16 15 13 10 6 7 9 10 13 14 14 15 16 18 22 24 25 25 23 20 20 22 21 16
18 19 16 12 7 2 9 6 16 15 12 16 9 9 12 13 17 20 21 22 22 20 19 19 17 16 13 10 7 5 6 8 10 12 13 13 16 19 20 24 26 29 29 25 24 25 24 23 17
24 24 21 15 14 8 7 11 2 10 12 7 6 8 15 18 17 17 18 23 20 19 19 17 15 13 10 8 4 4 5 9 11 11 12 12 15 19 22 23 27 28 31 27 25 27 28 24 23
30 28 27 21 18 13 6 9 2 4 4 7 8 13 16 14 13 18 22 21 22 21 17 13 13 10 7 4 3 4 6 8 9 9 10 12 15 19 21 26 27 30 32 31 31 28 28 29 29
35 36 31 28 21 16 14 12 9 7 7 10 12 13 13 12 14 15 20 22 21 19 16 15 13 9 5 3 1 3 6 8 9 10 11 13 17 19 23 26 30 31 34 35 34 34 31 28 27
42 45 37 30 26 23 16 15 12 13 10 11 13 12 12 16 16 17 18 17 16 14 13 11 10 8 8 5 4 5 9 9 10 11 11 15 17 20 25 28 29 32 32 35 36 36 35 33 29
56 46 42 37 30 28 21 17 16 16 17 15 12 15 17 17 18 19 18 18 17 15 14 11 10 10 9 7 7 8 11 12 13 13 12 15 18 21 24 26 28 30 33 34 37 37 35 34 32
62 52 49 44 38 27 28 22 18 20 21 17 18 19 20 21 20 19 17 16 14 15 14 12 12 11 11 10 10 12 14 16 16 14 14 16 19 22 25 27 30 31 32 34 34 36 35 33 33
62 60 54 50 43 35 42 33 32 26 24 26 24 24 26 26 26 25 20 16 16 15 15 14 14 13 15 14 15 16 18 20 20 18 17 19 22 24 27 29 31 33 34 34 35 38 39 38 36
54 62 60 56 51 49 48 34 41 38 32 33 29 29 28 31 33 29 25 22 21 18 16 16 16 16 15 17 17 19 21 22 21 20 20 22 23 25 28 30 33 35 37 38 39 39 40 40 39
38 46 63 62 58 54 48 44 46 42 40 36 34 31 31 35 40 37 32 29 29 24 23 22 21 22 19 20 21 20 23 24 24 23 22 24 26 28 29 32 34 36 38 40 41 41 40 40 41
32 37 43 56 62 60 56 55 47 50 48 46 42 40 42 42 40 38 41 34 35 30 30 29 29 27 24 24 24 25 26 26 26 26 27 28 30 32 33 35 36 39 40 42 44 44 42 44 44
41 41 33 38 50 61 62 50 57 58 56 52 51 48 48 44 42 41 40 35 35 36 33 35 34 33 30 28 28 30 29 30 29 30 30 31 33 35 36 38 38 40 42 46 48 49 49 49 51
36 34 35 33 28 34 56 61 68 67 63 59 54 53 55 48 45 42 40 38 35 37 35 37 37 35 37 33 33 33 33 34 33 33 36 35 37 37 38 39 43 44 45 48 51 54 55 56 54

GFSSGP_250_spd_030.txt.gz
Wind_Speed
21 23 24 25 21 19 22 17 13 13 17 22 27 24 26 23 22 22 23 30 27 26 24 25 24 25 27 29 30 26 23 22 24 29 27 23 17 16 16 16 14 15 22 17 11 6 3 3 8
22 22 23 27 25 27 30 21 18 23 26 26 28 27 28 25 25 27 32 32 33 27 27 21 18 24 23 20 19 18 18 22 28 22 20 15 15 17 16 15 16 16 19 24 4 4 5 4 4
25 24 25 28 26 27 25 24 23 20 23 26 26 27 28 32 35 35 40 42 32 26 22 11 18 20 18 20 17 19 21 23 22 15 12 14 16 17 16 17 20 19 22 25 14 6 7 4 5
26 27 27 25 23 22 23 25 26 19 21 24 30 31 30 33 32 35 44 39 31 25 15 15 17 17 20 21 20 19 17 17 11 9 11 14 14 17 17 18 19 21 23 28 24 12 8 7 3
31 32 33 33 32 28 27 24 19 20 19 21 24 28 31 31 35 39 41 38 30 22 16 17 16 18 17 15 13 11 11 7 6 8 13 11 13 16 18 19 20 22 24 26 24 16 9 7 8
32 32 34 34 34 28 31 28 23 17 17 23 29 26 28 31 31 32 33 30 25 21 19 17 17 15 16 11 8 7 5 6 11 11 11 10 11 15 20 19 19 21 23 23 23 20 11 8 9
35 33 34 31 27 28 28 26 23 23 28 33 32 31 35 33 29 29 28 23 21 19 20 17 15 11 9 5 5 3 8 15 13 11 10 9 11 15 20 20 20 21 22 21 19 19 16 13 12
38 34 31 25 28 24 27 30 25 27 31 32 32 31 24 33 29 27 23 22 23 21 16 14 8 7 3 3 7 11 15 16 14 10 7 5 10 15 20 20 20 19 19 20 17 18 19 17 15
35 36 36 35 30 25 27 29 32 35 35 36 39 33 37 39 33 26 20 22 19 14 8 4 4 2 2 8 12 15 16 13 12 10 8 8 10 14 19 20 19 19 19 18 18 16 18 19 16
29 35 38 38 38 39 40 42 45 46 44 40 41 43 39 39 28 18 18 14 11 3 2 0 4 3 10 14 14 15 13 11 10 8 10 12 13 17 17 19 20 21 20 19 18 16 14 11 8
20 27 32 35 38 39 39 40 41 41 39 40 40 32 30 27 16 14 9 5 1 4 7 6 4 10 13 15 13 12 11 10 7 10 11 14 16 17 18 18 21 23 21 19 18 13 9 9 5
8 16 26 33 34 36 39 40 41 43 38 25 24 23 16 13 7 2 2 4 7 5 5 5 12 13 13 14 12 13 11 6 10 12 14 16 17 18 17 19 20 22 20 20 21 22 18 11 9
8 8 12 18 20 21 24 29 32 31 24 19 17 8 13 14 8 4 1 4 3 2 5 11 15 13 16 16 15 13 9 9 13 13 16 18 19 19 20 19 20 19 20 24 24 24 23 16 18
13 9 8 12 16 15 14 18 21 21 10 11 11 10 14 17 10 4 4 4 4 4 11 17 16 18 16 16 13 12 12 12 13 14 16 19 19 21 23 23 22 22 22 23 25 25 27 23 15
15 12 10 9 12 13 15 17 18 17 10 10 13 11 11 14 10 6 5 8 6 10 19 17 19 19 15 15 15 14 13 13 13 15 15 18 21 21 22 24 26 26 22 22 23 25 26 25 19
19 15 15 11 13 11 15 13 13 13 11 9 13 11 9 11 10 9 7 8 10 17 22 21 20 17 16 15 12 12 12 11 13 13 15 15 14 19 20 24 27 26 23 25 22 22 24 25 27
23 19 19 14 16 9 9 10 10 8 10 6 11 10 9 11 9 9 9 10 15 25 24 23 19 18 15 13 11 10 9 8 11 10 13 14 15 17 20 25 27 27 28 28 28 29 28 27 24
27 21 23 19 18 11 10 10 8 11 10 8 10 13 11 8 6 8 10 14 27 27 26 25 21 18 14 11 9 7 6 8 10 9 11 12 15 19 22 24 26 27 27 28 29 29 30 30 29
32 28 27 23 20 17 13 10 15 15 11 10 12 14 11 5 6 8 11 23 29 26 26 26 23 18 14 9 5 5 6 7 8 9 10 12 15 18 21 24 26 26 27 29 30 30 29 30 31
38 37 35 28 24 20 18 12 11 11 9 7 3 9 9 7 9 9 22 26 24 23 24 24 21 18 14 10 5 3 3 6 7 7 7 11 14 17 20 23 24 25 26 28 29 30 30 31 32
44 44 40 35 26 21 21 15 11 11 10 7 7 8 11 13 15 16 20 21 21 19 21 20 18 16 13 9 6 4 1 4 7 7 9 11 12 13 15 18 21 23 24 25 27 28 29 31 31
49 53 41 36 32 27 22 21 18 13 15 8 9 11 14 14 13 17 24 23 20 18 19 18 17 15 11 8 6 3 0 3 6 8 10 11 12 13 15 16 18 21 22 22 24 26 29 30 30
54 50 43 38 34 30 25 25 22 20 16 12 10 10 14 12 12 16 22 24 24 23 22 21 20 17 12 10 8 5 3 4 6 7 7 9 10 13 15 15 18 20 21 22 23 25 28 29 30
46 50 48 42 38 30 37 31 27 26 18 17 15 13 13 14 15 19 22 23 26 27 24 22 20 18 14 12 11 10 8 7 7 8 9 10 11 13 14 15 17 19 21 22 24 26 26 29 32
34 43 45 44 38 45 41 33 35 31 26 21 20 19 17 14 17 20 22 25 26 24 22 20 18 16 15 14 13 13 14 14 13 12 12 12 13 13 14 15 16 19 22 25 26 26 28 31 34
32 24 28 42 48 47 39 41 42 36 30 26 24 23 22 19 19 22 24 27 27 24 21 20 19 17 17 16 17 16 15 16 17 17 17 17 17 16 17 18 19 21 23 25 28 29 31 33 35
31 19 27 24 35 44 42 49 42 42 35 31 30 28 29 27 25 25 28 28 26 24 21 19 20 19 19 20 21 19 18 18 20 20 21 21 22 20 19 20 21 23 25 26 30 31 33 34 37
30 33 20 16 17 26 42 51 52 46 44 42 37 34 33 30 28 29 30 31 27 24 23 23 22 22 22 22 22 23 22 21 21 23 24 26 27 25 24 24 25 26 26 29 32 34 36 38 40
37 34 29 24 20 19 24 35 49 53 51 47 44 41 37 35 35 34 33 33 32 30 30 29 29 28 28 30 29 29 29 28 25 25 27 29 31 31 31 31 31 31 31 32 35 37 38 41 45
41 36 28 22 25 27 22 22 26 41 53 51 48 46 43 42 43 40 38 36 34 34 36 38 38 39 37 37 38 37 36 35 32 28 29 33 34 35 35 36 37 37 37 37 38 41 42 44 48

GFSSGP_250_spd_033.txt.gz
Wind_Speed
17 21 25 27 27 21 14 20 22 17 13 14 19 26 28 26 23 26 25 19 31 31 29 28 29 30 30 28 29 24 20 20 22 22 16 13 16 19 20 21 20 20 21 9 1 5 8 9 11
19 23 23 26 32 24 18 21 20 19 18 20 22 27 25 25 26 28 33 34 33 34 28 24 24 26 23 22 21 19 17 20 19 13 11 14 17 18 20 19 21 24 25 17 6 6 8 8 6
22 23 25 27 31 25 22 24 21 21 21 22 22 21 23 23 28 31 32 34 37 33 24 21 17 18 21 18 20 19 16 13 10 9 11 14 17 19 20 19 22 24 26 21 10 8 7 3 2
28 27 25 26 30 28 25 28 29 27 26 22 17 18 18 24 26 30 32 35 31 29 20 12 17 15 17 17 14 9 10 6 6 10 12 14 17 19 23 20 20 23 24 24 16 9 9 8 2
30 30 27 26 28 30 30 30 34 29 26 21 16 16 20 25 27 26 29 32 31 26 19 14 15 14 14 16 9 7 5 6 10 10 10 13 15 19 24 20 20 22 23 22 21 16 11 8 7
35 30 29 31 32 30 29 27 28 29 28 24 19 20 27 29 26 26 31 32 26 21 19 16 14 12 12 7 7 5 7 12 11 8 9 11 16 19 22 22 25 24 24 23 21 19 16 14 11
38 36 33 33 35 36 35 34 31 32 30 28 26 26 31 29 27 33 36 36 25 22 20 15 11 7 5 5 5 9 16 13 10 8 8 10 15 19 20 23 24 24 23 21 19 18 19 15 12
37 38 37 35 35 36 37 36 31 30 32 32 26 29 31 32 36 39 39 31 22 21 14 8 2 3 4 5 13 17 16 12 9 8 9 11 16 18 20 23 24 23 22 21 20 19 20 18 18
35 36 38 37 36 35 33 33 34 32 30 31 33 39 45 41 40 39 35 24 20 16 7 1 2 4 6 14 17 18 14 11 10 10 11 14 16 18 20 24 24 23 22 22 21 21 18 14 14
30 32 34 35 36 36 35 35 33 31 34 38 45 46 42 39 34 33 21 17 13 4 2 4 7 7 14 17 18 14 13 10 10 11 13 14 15 18 20 22 22 20 21 21 20 16 15 12 11
24 30 31 32 32 33 36 38 38 38 39 40 41 40 39 29 25 14 12 9 3 2 7 9 12 13 15 16 15 15 12 10 11 11 14 16 18 19 20 21 20 22 22 21 21 19 14 11 10
10 17 21 26 31 33 34 34 35 37 39 40 44 37 18 10 5 9 5 5 5 7 8 10 16 15 13 15 16 15 11 11 12 13 14 16 21 22 22 21 20 21 23 23 23 21 18 17 18
14 13 11 10 10 14 18 20 19 22 23 20 11 10 7 4 6 6 4 6 6 5 7 15 17 14 15 15 15 13 13 13 14 17 16 20 20 22 25 24 22 22 23 23 24 26 23 16 18
18 17 15 12 7 10 12 12 14 14 9 7 6 7 6 11 11 9 6 7 5 5 10 17 17 19 17 16 15 14 13 15 16 18 20 20 22 23 25 26 25 23 22 21 24 25 25 22 16
21 21 20 18 16 10 10 8 8 12 5 5 7 7 8 10 12 11 5 7 7 9 17 18 21 19 17 18 18 15 14 15 15 17 18 18 19 22 24 25 22 22 24 27 27 26 23 23 21
23 24 23 20 17 13 11 7 7 10 6 5 7 9 9 10 10 15 8 6 8 15 22 21 21 19 19 18 16 14 14 14 14 15 15 15 17 21 23 23 22 25 28 27 26 28 28 28 27
30 25 24 22 18 12 10 9 5 10 9 3 8 11 10 9 9 15 11 9 11 20 22 22 21 21 19 18 16 14 12 11 11 14 15 15 17 20 20 22 24 26 27 27 29 29 30 30 30
33 27 27 24 20 16 13 10 7 8 11 6 6 11 9 9 10 16 13 10 15 22 24 24 22 20 18 16 14 12 10 9 9 11 13 14 18 20 19 23 23 24 26 27 29 30 32 32 34
36 32 33 29 22 20 17 12 7 8 9 7 10 10 9 8 10 14 16 14 18 25 24 23 23 20 18 16 13 11 11 8 9 11 12 13 16 17 18 20 21 23 24 26 27 28 30 32 34
37 36 37 35 27 22 19 16 11 8 6 4 10 11 8 6 12 17 17 13 23 25 24 22 20 17 15 13 13 10 10 9 9 9 9 9 11 13 14 17 19 21 22 23 24 25 26 28 32
45 46 43 40 33 27 21 20 15 11 11 3 6 9 12 9 14 18 17 24 24 21 22 22 19 16 14 12 11 9 9 8 8 8 6 6 7 8 10 13 16 17 19 19 20 21 23 26 28
50 53 47 42 36 32 26 22 19 17 16 6 6 12 15 16 16 22 23 24 23 23 22 21 18 15 11 9 7 6 5 5 5 5 5 6 6 7 9 10 12 15 16 17 18 20 22 23 27
52 47 47 41 38 33 31 30 24 21 20 12 11 14 19 18 14 20 27 26 25 25 25 23 21 18 14 11 10 8 5 3 2 1 1 3 6 8 9 9 11 12 13 14 16 18 19 21 23
43 46 48 45 41 35 43 39 31 29 23 22 18 18 19 18 15 17 25 26 25 25 26 25 21 18 15 12 11 11 10 8 6 5 5 4 5 8 10 10 10 11 11 14 16 17 20 22 23
32 40 43 43 44 50 52 41 43 34 27 24 21 20 18 16 16 18 22 28 27 26 24 22 22 20 18 15 14 15 14 13 10 10 10 10 10 11 11 12 14 14 14 15 17 18 20 22 25
29 26 29 41 50 56 47 48 43 40 30 26 24 23 21 17 18 20 21 24 26 28 27 25 24 22 20 19 17 17 16 15 14 12 14 13 12 13 14 14 15 19 21 20 20 21 22 24 27
31 24 31 30 40 47 51 54 48 43 37 31 29 25 27 26 22 22 25 24 26 27 25 24 24 24 22 21 20 17 16 17 16 16 16 16 18 18 16 19 21 21 22 26 25 25 26 27 30
37 33 21 20 22 34 50 57 56 49 45 39 33 30 29 28 27 24 26 27 28 29 27 25 25 24 24 24 22 20 17 17 19 20 20 20 21 24 24 22 24 25 26 27 28 29 30 32 34
44 39 32 30 24 23 27 45 55 53 48 44 42 38 35 31 30 30 28 26 28 29 30 29 29 29 28 27 27 25 24 23 23 24 25 25 26 26 28 29 28 29 31 30 31 32 34 36 37
51 47 38 34 32 31 33 36 45 51 51 49 46 41 39 35 35 33 33 30 28 30 33 34 34 35 33 33 32 31 32 31 32 32 31 30 30 29 29 32 32 34 35 36 35 36 38 40 42

GFSSGP_250_spd_036.txt.gz
Wind_Speed
23 19 19 23 24 26 17 15 16 22 26 22 13 15 19 23 24 24 23 26 35 36 32 25 25 30 31 29 25 24 22 18 19 16 9 11 18 22 21 20 22 25 21 8 8 11 10 10 12
16 19 21 24 25 26 22 18 24 24 20 19 18 20 23 22 20 21 23 26 32 35 30 25 23 23 23 22 22 21 19 14 12 8 8 15 21 25 20 21 23 25 26 15 10 11 10 8 6
16 17 21 21 24 28 28 23 22 26 26 24 23 22 18 13 15 21 25 25 29 29 27 21 15 17 20 18 19 11 7 9 6 6 11 16 21 25 22 22 21 24 26 21 14 12 6 3 2
21 22 22 22 24 32 29 26 22 23 26 27 28 25 22 20 20 28 26 27 32 33 25 18 14 16 16 16 11 6 7 5 7 8 13 18 18 22 21 20 20 24 25 23 15 11 10 11 9
28 27 25 23 27 31 33 30 30 29 32 32 31 29 26 22 23 25 25 30 36 36 26 19 17 14 12 10 7 6 5 6 9 11 13 15 20 21 22 20 21 23 24 22 19 16 14 12 10
33 32 33 31 31 30 33 36 35 35 30 32 31 33 31 27 25 27 30 33 40 36 26 21 18 12 7 6 6 3 8 10 11 12 13 17 21 21 21 20 21 23 23 21 19 18 13 13 15
38 37 37 35 34 34 33 33 33 33 31 30 30 31 31 29 29 30 34 43 39 35 24 19 11 4 3 3 3 12 13 14 12 13 14 16 19 19 21 21 24 24 23 22 20 20 20 21 24
39 39 40 40 37 35 37 38 38 38 37 38 33 33 34 34 33 37 46 40 35 31 20 14 5 1 4 8 14 14 14 16 14 12 12 15 17 18 19 22 23 23 24 22 19 17 13 10 14
35 35 36 40 41 40 38 36 36 38 37 35 36 37 39 37 39 46 41 34 30 20 15 6 4 6 12 16 14 14 16 14 14 13 14 15 16 16 18 22 21 21 24 22 19 18 16 15 15
31 32 34 36 37 38 37 36 36 33 31 32 32 37 39 41 42 39 37 25 15 13 3 5 8 14 17 16 14 15 14 14 13 13 15 15 15 16 18 21 21 23 23 22 20 19 18 14 12
18 25 30 33 33 33 32 30 30 32 35 39 42 41 37 40 41 28 11 8 10 4 6 8 15 18 16 14 16 15 12 12 12 13 16 17 18 18 19 19 21 23 24 25 23 21 18 18 15
11 12 18 23 28 31 31 31 33 34 37 40 37 35 29 14 6 4 5 5 6 8 8 12 18 17 16 16 17 13 12 14 14 15 14 17 19 21 20 20 21 22 23 26 26 24 19 18 17
15 13 11 11 16 23 26 27 30 29 25 26 25 20 10 7 5 2 2 5 7 7 8 16 19 17 17 17 15 13 13 15 17 17 18 21 21 22 23 23 26 24 24 23 27 25 23 20 22
18 16 16 13 9 11 13 13 13 16 18 20 12 9 10 10 8 5 4 5 6 7 10 16 18 18 19 17 15 13 14 16 18 18 18 21 23 24 26 26 27 27 28 27 27 28 26 23 24
23 20 18 16 13 12 11 8 8 10 13 10 4 8 12 11 12 9 6 8 6 8 14 17 18 20 20 19 16 15 16 15 15 16 19 22 23 24 25 27 28 29 28 28 28 28 30 29 28
29 25 22 20 17 17 15 11 7 7 7 6 5 9 11 12 12 12 11 7 10 11 18 17 20 22 22 20 17 16 16 15 13 14 17 19 21 23 23 25 27 28 27 29 30 31 31 32 30
35 30 25 23 21 19 18 12 9 8 7 3 6 9 12 12 10 9 15 10 13 14 21 21 20 23 22 21 18 16 16 14 14 15 17 20 20 20 23 23 25 25 26 28 30 32 32 31 31
39 33 30 28 23 20 16 13 12 11 8 4 2 8 12 13 11 10 14 14 14 17 22 22 23 24 22 21 18 16 15 13 13 14 15 17 17 19 21 20 23 24 24 25 27 28 30 32 31
38 34 33 32 27 20 18 18 18 14 12 6 8 10 15 16 12 12 18 18 17 18 22 23 23 22 21 19 17 15 14 13 13 13 13 14 15 17 18 18 18 19 18 19 19 21 24 28 31
41 38 38 35 31 25 22 21 20 16 13 6 9 13 17 17 13 13 22 20 16 20 23 23 22 20 19 17 16 14 14 14 14 11 11 10 10 12 14 14 14 14 17 16 16 18 20 23 24
47 48 47 44 36 31 26 23 21 19 16 9 8 11 15 18 13 14 23 25 21 25 25 23 22 20 17 17 15 13 11 12 12 11 9 7 7 8 9 10 10 10 11 12 14 15 16 18 20
48 52 51 47 40 36 31 28 23 21 19 13 10 12 11 17 17 20 26 28 27 28 27 24 21 18 15 13 12 11 10 9 9 8 7 7 6 5 5 5 5 6 8 10 11 13 15 18 20
47 45 45 51 43 39 34 32 31 26 22 16 13 12 10 17 19 23 27 27 30 29 27 28 25 21 19 17 13 11 8 6 5 4 4 4 4 5 4 4 5 7 9 10 12 14 15 17 19
37 38 41 46 48 37 42 42 34 34 25 20 16 13 15 19 19 26 28 30 30 30 28 28 27 23 19 14 12 11 9 7 5 3 2 2 2 4 4 5 7 8 10 13 14 16 16 18 19
34 35 39 41 44 43 56 46 45 39 31 25 20 16 18 20 19 21 25 27 27 26 25 25 24 21 20 17 13 13 13 11 9 8 7 7 6 5 6 6 8 11 13 15 17 19 19 20 23
35 32 31 40 50 60 55 43 51 44 36 28 23 19 22 24 22 21 26 29 30 29 27 26 26 25 24 21 18 16 15 14 13 12 13 13 12 11 8 10 10 11 13 15 17 19 20 22 25
36 25 36 33 41 49 52 56 50 43 38 33 29 25 24 29 26 25 28 32 33 31 30 27 26 25 23 21 21 18 16 15 14 15 15 15 16 17 16 15 15 16 14 16 19 22 24 25 27
36 37 22 23 30 41 50 58 56 47 43 38 35 31 30 29 31 27 30 31 34 34 33 30 30 27 25 25 24 23 20 18 18 16 13 14 17 22 23 21 20 19 20 20 23 25 27 29 31
46 38 30 27 26 29 43 53 56 53 49 44 41 40 37 33 32 32 29 31 31 31 34 35 35 33 30 28 28 27 24 22 20 19 18 19 22 24 26 28 28 27 25 27 27 30 31 33 34
57 54 45 36 31 33 34 41 46 51 53 50 47 45 42 39 34 32 32 28 28 31 33 36 35 35 33 32 32 31 29 28 27 26 27 27 28 31 30 30 29 30 29 31 34 34 35 36 39

GFSSGP_250_spd_039.txt.gz
Wind_Speed
20 20 17 13 20 23 17 20 15 18 21 23 23 18 16 20 25 16 16 22 25 26 29 33 29 30 24 24 25 26 23 21 11 9 10 16 20 19 19 20 20 23 14 11 13 10 8 9 7
19 19 17 14 22 24 26 19 19 23 21 17 17 18 18 23 23 14 19 22 26 30 33 37 27 22 20 24 23 25 15 8 9 8 12 17 20 19 20 18 20 24 19 13 12 9 8 5 3
14 14 20 18 24 25 29 24 22 23 26 28 31 29 27 28 25 27 27 22 27 31 36 36 27 21 22 21 21 9 8 9 9 9 16 20 20 20 18 18 21 24 22 16 12 7 4 2 2
17 16 16 20 24 27 29 31 30 24 24 27 30 27 28 33 31 32 31 26 29 30 41 40 28 20 20 16 11 6 8 8 8 10 16 19 18 18 17 18 20 22 21 16 12 9 8 9 8
23 21 17 23 26 29 29 32 33 33 30 27 30 31 36 35 34 36 31 29 31 36 45 36 27 22 17 12 7 6 8 8 9 12 16 18 17 18 18 18 20 20 19 18 14 12 14 14 14
29 28 26 28 31 33 34 33 38 39 37 34 36 32 29 31 34 33 33 32 34 42 42 34 27 18 11 5 4 9 10 8 11 13 16 15 17 19 20 20 22 19 18 19 21 22 22 23 20
36 35 36 37 35 35 36 34 34 39 39 36 34 33 38 40 36 35 36 36 37 44 34 30 19 11 4 2 11 13 10 12 13 14 15 15 16 19 19 20 21 20 20 18 17 18 13 14 14
41 41 41 40 39 39 40 37 37 36 36 36 38 35 34 35 35 36 39 38 40 34 35 22 12 3 2 13 14 13 12 13 13 13 13 13 16 17 20 22 23 23 23 21 18 11 10 11 13
38 40 41 44 40 40 41 38 36 35 34 33 35 32 33 36 36 37 39 41 37 35 20 9 2 5 11 14 13 13 12 11 13 14 13 12 15 18 22 23 21 25 25 22 23 21 16 14 16
32 34 35 40 39 35 36 39 39 38 37 36 36 37 38 39 41 42 41 40 28 13 7 2 7 11 15 13 14 12 12 13 15 15 16 15 17 18 19 20 21 23 27 26 23 23 20 17 18
12 20 30 39 36 33 34 34 36 37 36 36 35 37 40 45 42 37 21 10 8 5 4 8 12 15 16 13 13 12 12 13 13 13 16 17 18 18 19 19 23 27 32 25 27 19 23 22 22
12 10 17 22 27 31 32 34 34 34 33 33 35 39 43 38 22 8 7 2 2 5 8 12 15 17 16 15 12 13 13 14 14 16 16 19 20 23 24 22 27 29 31 31 30 28 27 27 27
14 14 14 13 12 16 22 27 28 29 27 29 33 34 31 19 10 6 4 4 4 7 9 16 15 17 17 14 14 14 15 16 17 18 20 20 22 22 24 26 30 30 33 34 33 33 30 29 31
20 17 14 16 15 13 10 14 18 19 18 20 23 23 16 10 12 8 7 7 5 6 11 15 15 18 18 15 14 15 17 17 17 17 21 22 25 27 26 28 31 34 33 32 33 35 36 35 34
27 22 17 17 16 14 11 11 12 14 16 18 16 14 10 11 12 9 7 6 5 5 14 15 16 20 18 16 16 17 17 17 17 19 22 22 24 26 27 29 33 34 36 34 32 32 33 34 33
29 26 24 17 17 16 14 14 16 16 15 14 12 11 13 15 14 13 9 5 7 7 15 15 17 19 18 17 17 17 16 16 17 19 22 23 23 25 25 28 31 32 34 35 35 32 33 34 36
33 30 28 23 19 17 18 17 17 17 13 11 10 12 15 17 15 13 14 8 10 11 17 17 17 19 19 17 17 17 15 15 18 21 22 22 22 23 23 25 27 28 30 32 33 33 33 32 32
40 37 31 28 24 20 21 19 19 16 12 12 9 12 13 15 15 14 15 11 12 14 20 21 20 21 18 17 16 16 15 16 17 18 20 20 21 21 20 23 23 23 25 25 26 27 29 30 31
42 38 36 33 29 26 23 22 19 15 14 13 13 10 13 14 15 12 16 14 13 18 20 21 21 21 19 17 15 14 13 15 16 15 17 17 17 18 19 18 21 20 20 20 21 21 23 25 26
39 38 36 35 34 30 27 25 21 18 16 15 12 14 15 17 16 14 18 17 17 20 20 21 23 21 18 16 15 14 13 13 14 13 12 13 14 13 14 15 16 15 15 14 16 16 19 20 23
42 42 43 41 41 34 30 28 23 20 18 17 15 14 18 18 19 20 20 21 23 23 23 22 23 20 17 15 14 13 13 12 11 10 9 10 10 10 10 11 12 12 12 14 15 16 17 19 21
45 47 47 46 44 40 35 32 26 23 21 19 16 18 14 14 16 22 23 26 26 25 24 25 25 21 18 15 13 12 10 9 8 5 5 6 8 6 6 6 7 7 9 11 13 15 16 17 18
48 47 45 47 43 46 36 34 33 30 26 21 18 20 16 13 16 22 21 27 30 31 28 27 27 25 20 19 15 12 10 8 6 5 5 6 6 6 5 5 5 6 8 10 12 14 16 17 18
45 42 42 40 41 41 42 41 41 37 33 24 22 20 18 16 16 20 22 32 38 36 32 31 30 27 23 19 16 13 10 8 7 4 3 2 1 2 3 4 5 6 10 11 12 13 14 16 18
43 43 44 42 37 36 48 47 50 47 37 32 26 22 21 16 18 20 24 30 38 35 33 30 29 25 22 19 17 14 13 11 9 7 5 5 4 2 2 4 6 9 10 11 12 12 15 18 21
44 44 41 36 40 47 57 53 53 50 44 36 31 24 23 20 23 22 25 34 32 30 29 29 29 27 25 22 20 19 17 15 14 12 11 10 9 7 7 7 8 9 11 13 14 16 17 19 22
48 37 43 40 40 43 51 54 62 50 45 40 34 29 28 24 28 24 27 31 32 33 33 30 28 29 30 27 25 22 19 18 16 16 16 13 11 11 10 11 13 15 16 17 18 19 20 21 23
45 47 37 35 32 37 44 52 58 54 50 45 39 34 32 31 33 28 29 32 35 36 37 35 34 32 30 30 28 26 24 20 18 18 16 14 13 14 13 15 17 19 19 19 21 22 23 24 27
50 41 33 34 32 38 45 51 56 54 48 46 44 43 39 35 35 34 32 32 34 35 35 36 36 34 33 33 31 29 27 24 21 20 19 18 18 17 18 21 23 24 25 25 24 27 28 30 32
57 51 46 38 34 36 39 49 44 48 52 51 47 45 43 40 37 35 33 28 30 37 39 40 39 38 38 35 33 30 29 27 25 24 24 23 22 23 24 26 28 28 29 29 28 29 32 34 37

GFSSGP_250_spd_042.txt.gz
Wind_Speed
12 16 14 13 10 17 20 18 12 13 16 18 20 21 16 13 20 11 22 23 31 25 32 32 41 45 35 26 26 27 17 10 10 9 12 13 14 15 14 13 17 14 11 11 10 8 7 7 6
10 13 14 14 10 17 22 23 29 24 22 23 23 25 26 30 29 27 31 34 30 30 34 36 42 41 30 24 24 17 10 10 10 11 13 13 14 14 14 15 19 19 13 12 9 8 7 4 2
8 12 16 15 18 15 21 28 22 28 29 22 26 30 31 31 31 32 33 34 36 33 32 35 43 40 27 23 16 11 9 11 9 9 13 14 15 13 14 15 18 16 14 11 8 6 3 2 3
9 8 13 18 19 23 28 30 32 29 29 29 29 29 29 30 34 35 32 34 34 36 34 37 42 35 28 17 10 8 9 9 7 8 13 14 16 14 13 14 14 14 13 12 10 9 6 7 7
11 11 13 24 21 23 27 29 31 33 37 37 38 35 34 34 37 34 35 35 36 36 38 40 39 34 21 11 6 4 10 8 6 9 13 15 16 16 17 16 14 13 14 13 16 16 17 16 15
15 15 20 24 38 32 28 31 33 32 34 35 38 39 41 39 36 38 34 34 36 38 40 38 39 28 13 4 4 10 9 7 7 11 13 15 17 19 20 21 17 15 17 21 22 22 19 15 15
20 16 6 35 27 26 27 31 35 36 38 37 38 40 39 39 37 34 35 33 35 36 40 39 36 16 4 3 12 11 10 6 9 14 16 17 20 21 24 27 24 21 16 16 18 14 10 12 14
31 31 34 28 31 37 38 39 37 37 38 37 36 36 38 38 39 38 37 37 37 43 39 38 17 3 4 13 12 11 8 8 16 17 19 21 21 25 27 29 29 25 24 17 10 12 15 16 18
37 38 43 47 44 44 45 42 40 40 40 39 39 40 41 42 40 39 39 40 40 35 32 13 2 6 12 11 11 10 7 15 16 17 22 22 23 25 25 26 32 33 25 28 25 20 20 20 22
32 35 34 39 41 41 41 42 43 41 41 41 39 42 40 40 39 39 41 41 29 16 8 1 7 11 13 10 10 8 10 16 21 19 15 24 21 23 28 28 29 30 25 21 27 27 26 26 27
12 24 32 33 31 34 36 40 39 37 39 40 37 37 39 38 39 41 34 18 10 7 2 6 9 14 11 10 8 9 13 18 16 13 23 27 21 27 26 23 19 22 26 29 30 31 30 31 32
12 10 24 28 23 31 21 32 32 34 36 35 34 33 35 36 38 32 11 10 7 3 6 8 13 13 9 9 9 12 16 18 24 28 29 34 22 21 22 27 33 31 29 32 37 34 37 38 39
16 14 16 20 20 14 25 27 14 14 20 26 28 26 27 32 28 9 8 5 6 7 8 12 15 13 12 9 11 16 17 19 24 29 30 30 31 33 28 32 29 31 30 34 36 34 34 36 38
21 20 18 20 19 14 14 18 22 25 26 19 18 20 25 28 10 7 7 7 8 6 11 15 14 15 13 11 14 19 18 19 23 27 30 32 31 34 36 35 32 32 27 32 34 33 31 30 32
26 23 21 21 20 20 17 16 11 15 19 18 17 20 21 14 8 8 7 8 8 7 15 15 15 15 13 13 17 20 20 22 22 25 27 31 35 35 34 37 36 33 33 32 30 34 40 37 34
30 26 25 23 22 19 19 17 13 13 14 16 19 18 16 11 12 12 8 9 7 8 16 15 17 15 13 13 16 19 20 22 23 26 28 29 33 26 26 30 32 30 32 33 32 34 35 37 37
35 32 28 26 26 22 19 16 17 13 15 18 16 16 14 12 15 14 11 9 9 9 16 16 16 16 15 14 16 18 18 21 24 26 26 28 28 26 25 19 20 24 24 28 29 30 31 32 34
39 37 32 29 28 28 24 21 19 15 16 18 15 14 14 11 15 16 14 11 7 10 17 19 18 17 16 15 15 17 19 20 21 24 24 24 23 23 25 24 18 19 19 23 22 24 25 27 30
41 39 35 36 33 29 29 25 23 19 16 21 15 12 13 11 16 15 13 14 8 12 18 20 20 18 17 16 15 15 18 19 18 19 20 22 20 18 20 21 17 16 18 18 20 21 23 24 26
44 43 40 42 40 35 33 30 25 24 19 17 14 12 12 13 13 14 12 16 10 14 20 19 21 20 18 15 13 13 15 16 16 15 15 17 17 16 15 16 16 15 15 16 16 17 19 20 22
43 42 42 43 45 38 36 32 29 27 22 18 14 14 12 13 15 14 10 16 16 18 23 23 22 20 17 14 13 12 13 13 11 11 10 11 13 13 12 12 13 11 12 13 13 14 15 17 19
48 47 44 41 45 44 42 37 34 30 27 23 18 15 14 13 18 21 17 16 21 24 25 24 25 22 18 15 12 12 12 11 9 8 7 7 8 8 8 9 9 10 10 10 12 12 13 14 16
53 51 42 39 42 43 42 40 35 33 33 28 23 18 17 15 14 19 18 16 26 29 29 26 26 24 21 19 16 13 12 11 9 10 9 7 8 7 8 9 8 9 10 10 13 14 15 15 16
57 51 44 40 41 38 44 43 42 41 41 33 26 22 19 16 14 16 14 21 32 32 34 32 30 26 24 21 18 15 13 11 10 10 9 7 5 4 4 5 5 6 8 10 12 14 16 17 18
51 49 46 42 40 35 45 46 45 48 47 39 31 25 22 19 15 18 19 26 34 36 39 36 34 29 24 21 19 17 16 14 11 9 7 6 4 3 0 1 2 4 6 8 11 13 16 18 20
53 48 44 45 45 48 49 43 51 57 51 44 36 30 24 22 18 22 20 23 30 37 40 35 31 29 27 25 23 21 18 15 13 11 10 8 6 6 5 6 7 9 10 11 12 15 17 19 21
53 45 49 47 43 41 45 54 57 58 52 45 39 34 30 26 23 25 20 22 32 41 40 38 33 32 29 27 25 22 19 17 15 15 14 12 10 10 9 9 9 12 15 16 17 17 18 19 21
56 58 53 40 41 40 44 47 54 57 53 49 45 40 35 31 28 25 23 23 34 42 40 37 36 36 34 34 31 27 24 21 19 18 16 15 14 13 11 10 10 13 17 21 23 22 23 24 25
56 53 45 46 43 43 45 46 50 55 54 52 47 44 41 36 31 27 27 27 34 39 39 39 39 37 37 34 32 31 29 25 23 20 19 18 17 14 13 15 17 20 22 26 27 27 26 28 29
63 57 53 45 41 41 44 50 43 48 49 50 50 48 47 41 36 32 33 29 33 36 37 38 38 38 36 33 35 33 32 28 24 22 21 21 19 18 18 19 23 25 27 27 26 26 28 30 34

GFSSGP_250_spd_045.txt.gz
Wind_Speed
8 13 18 13 7 10 14 13 22 14 8 16 16 21 22 30 29 29 27 32 35 36 39 36 38 38 38 41 28 16 11 8 7 11 15 15 14 13 11 10 11 13 13 11 9 9 7 6 6
5 6 7 9 9 13 17 20 22 20 21 21 22 24 26 28 29 29 31 33 36 35 38 40 38 41 38 38 20 11 7 6 9 13 16 13 13 11 11 12 13 12 12 10 8 7 6 2 1
4 7 7 9 8 12 17 20 25 27 30 30 30 31 29 31 31 30 34 37 37 39 39 38 39 39 37 32 12 8 5 5 10 14 13 14 13 12 11 10 12 11 9 7 6 6 2 3 6
9 8 10 14 20 23 21 23 23 25 29 30 31 32 34 38 35 37 37 36 38 35 35 35 37 39 38 20 6 3 5 6 11 12 13 15 15 14 10 9 11 10 10 7 5 3 2 3 2
9 9 13 18 25 24 21 21 25 26 29 28 31 33 34 37 38 36 38 40 36 37 36 36 39 35 26 10 4 5 5 7 9 11 14 16 16 16 13 11 10 11 13 11 10 11 11 8 8
10 12 18 22 20 18 19 29 27 26 29 32 34 35 36 38 35 38 39 39 38 35 37 37 36 30 15 2 6 6 5 8 9 13 16 19 21 20 18 17 15 15 17 15 14 11 9 11 16
15 17 16 16 25 22 30 20 21 23 31 33 36 37 36 38 37 37 41 38 37 37 38 35 27 16 2 5 9 5 7 10 15 17 21 23 27 28 26 25 18 17 18 13 12 9 13 17 19
21 18 14 15 15 15 19 25 30 33 34 35 39 41 42 42 41 41 40 39 37 38 35 21 11 1 6 12 7 5 10 15 22 21 27 27 26 31 33 26 27 24 18 17 18 17 19 20 21
29 29 38 21 25 30 39 43 40 41 41 37 38 39 40 42 42 41 39 36 36 30 12 6 5 8 13 10 6 7 15 15 16 21 26 28 26 24 32 30 21 22 24 23 23 22 21 23 24
37 40 45 46 45 40 42 41 39 39 37 37 35 38 36 37 40 39 35 33 24 9 5 4 8 12 11 9 5 11 16 18 21 27 23 30 24 24 14 22 28 29 28 29 29 28 29 29 29
36 43 48 49 46 42 37 37 33 39 34 31 33 35 31 33 35 33 31 20 8 8 3 10 12 13 10 8 6 11 12 12 14 14 18 23 20 16 23 31 34 35 35 37 38 37 40 39 37
21 21 30 40 41 35 34 32 36 30 21 22 23 23 26 28 28 28 21 9 6 2 9 10 14 11 11 6 10 15 16 20 22 22 19 19 20 31 33 35 35 36 35 35 35 37 38 40 39
21 20 19 21 27 37 36 29 22 22 18 19 25 22 21 21 24 22 6 6 1 7 9 14 16 12 12 11 14 19 21 25 24 27 32 26 23 25 28 32 31 27 27 26 27 30 30 29 33
22 23 19 20 24 21 27 20 21 20 19 20 10 16 20 22 20 5 3 2 5 6 12 15 14 14 12 17 17 20 23 31 30 30 31 32 25 31 31 31 32 34 36 39 38 37 35 31 30
25 25 23 23 24 23 19 17 15 14 18 14 12 14 17 19 9 3 5 3 4 6 14 15 13 15 16 19 21 21 23 30 34 33 34 32 33 34 30 32 33 34 33 34 34 37 43 38 30
30 30 29 26 26 23 20 20 16 13 14 12 9 13 15 12 1 6 6 4 3 8 12 13 15 15 19 19 23 23 24 26 31 34 35 31 33 34 31 31 31 30 29 30 31 34 37 41 42
35 35 34 30 29 32 26 22 22 19 14 12 9 10 15 14 1 11 8 4 4 6 11 13 16 16 19 19 21 22 24 27 29 27 25 22 29 21 21 24 25 24 26 26 26 28 30 35 36
42 38 36 33 32 33 28 26 25 21 17 16 15 7 12 12 8 8 10 9 4 8 14 14 17 18 19 20 19 20 21 24 25 24 22 23 22 16 21 20 21 21 23 24 23 24 27 28 30
44 39 38 33 30 31 32 29 28 22 14 7 13 16 14 10 3 12 12 12 8 11 15 16 17 19 20 20 18 20 20 19 21 20 19 18 18 18 16 16 17 19 19 20 18 21 23 24 25
45 43 38 38 34 35 37 36 38 28 20 18 15 16 13 11 5 11 15 14 12 13 20 21 20 20 20 20 18 19 19 17 18 17 17 16 15 13 13 14 15 16 15 15 16 18 19 20 22
45 43 44 42 42 40 40 40 37 33 27 25 25 17 18 13 8 11 15 16 12 15 22 23 23 21 20 19 19 18 17 15 13 14 12 13 14 12 9 10 11 12 11 11 14 16 17 17 18
47 48 50 48 47 43 45 43 40 37 32 27 25 24 27 22 14 15 15 14 15 16 26 27 27 26 23 21 19 19 18 15 11 11 11 11 10 7 6 7 8 10 10 12 14 16 15 16 16
57 57 54 52 46 46 44 43 44 42 36 33 31 31 24 21 15 17 18 18 18 22 29 28 29 28 26 24 22 20 20 18 14 11 12 11 11 9 7 6 7 8 8 10 13 14 16 16 16
65 62 56 51 45 41 42 40 41 42 43 42 37 31 31 19 26 19 19 22 25 24 31 32 32 30 29 27 24 23 22 20 17 14 14 13 11 10 8 6 4 5 7 9 11 12 14 15 16
65 62 55 48 43 38 46 41 44 47 49 45 40 35 30 33 29 24 19 20 26 25 32 34 34 33 30 27 25 24 23 21 19 17 14 12 9 7 5 3 1 4 6 9 11 13 14 14 15
65 64 58 52 47 50 58 46 44 50 51 46 40 35 33 33 30 25 21 20 26 24 33 37 38 34 31 28 27 25 23 22 20 18 15 11 9 8 5 5 4 5 7 10 13 15 16 17 16
65 57 57 57 57 58 55 49 52 50 49 49 43 38 35 33 29 27 21 17 22 26 31 40 40 38 34 30 30 27 25 22 21 19 15 13 11 9 8 7 6 5 8 10 12 15 17 18 17
65 66 60 55 53 46 49 49 53 45 45 46 45 42 42 38 34 29 21 21 23 28 31 42 45 43 37 34 31 29 26 24 22 19 16 13 12 11 9 8 5 6 10 14 16 17 19 20 21
69 63 58 59 54 51 49 48 47 42 44 44 47 48 47 43 37 31 27 24 24 29 32 44 48 45 41 37 33 30 28 25 22 18 15 14 13 13 11 12 11 11 14 17 21 24 23 24 25
72 68 65 57 55 53 54 50 45 43 43 42 45 49 51 47 42 37 32 26 25 28 34 43 49 46 44 39 36 35 30 26 23 20 18 18 18 18 16 16 18 18 20 22 25 27 29 30 33

GFSSGP_250_spd_048.txt.gz
Wind_Speed
9 13 13 15 9 11 11 9 12 13 11 18 15 17 24 25 26 28 31 31 30 33 35 37 33 33 33 35 22 13 5 4 10 15 17 15 12 13 12 7 15 17 14 12 12 8 5 2 2
11 11 12 17 12 3 13 12 18 21 23 24 23 28 31 29 30 30 30 31 33 36 36 35 33 33 36 30 15 9 3 7 13 17 15 14 12 12 10 7 11 13 12 9 8 5 3 2 6
9 11 10 11 6 14 21 21 18 21 23 26 29 30 30 29 34 34 33 34 38 37 35 33 33 34 32 23 9 6 5 11 15 15 15 13 11 9 9 7 8 10 9 6 4 2 3 7 9
12 12 12 10 12 18 17 19 24 21 20 25 28 29 31 33 31 35 37 36 36 37 34 34 34 35 23 16 6 4 8 11 13 14 15 14 11 9 7 5 7 7 5 2 2 3 3 3 5
15 16 15 12 18 15 21 22 27 23 21 23 26 29 32 35 36 35 36 38 39 38 35 33 36 22 15 8 5 6 8 12 13 14 14 14 13 12 10 9 9 9 7 6 5 6 6 5 8
16 16 11 11 18 22 12 20 25 19 25 25 26 30 33 35 36 39 39 40 41 37 34 34 22 11 8 3 8 8 9 13 13 16 18 17 17 15 15 15 12 13 13 10 8 6 6 6 4
20 17 16 16 17 21 17 21 27 30 21 28 31 36 36 35 37 37 38 39 38 34 34 24 8 4 4 7 10 10 13 14 14 17 22 24 21 23 19 17 16 15 10 9 9 9 9 10 9
21 20 5 4 8 18 21 24 32 25 35 40 38 37 36 37 38 38 36 36 33 31 20 5 5 7 8 11 12 12 15 15 18 18 19 24 27 21 24 20 12 8 11 11 15 14 16 16 13
27 27 21 13 29 16 18 19 23 33 36 34 31 34 34 34 35 34 34 30 27 14 8 5 9 12 12 14 12 13 13 16 21 25 25 20 18 23 19 18 21 20 21 21 23 25 24 22 20
33 31 29 24 30 23 21 25 37 39 36 33 36 36 27 29 29 31 28 26 11 5 5 7 10 12 12 13 13 17 18 20 18 19 16 17 19 24 29 30 32 33 33 33 35 36 33 28 27
36 40 38 35 41 41 44 50 47 39 36 36 28 17 16 22 22 25 24 9 6 5 2 9 13 11 14 11 12 16 14 16 16 12 20 26 30 30 33 34 34 36 34 33 33 33 33 31 26
37 40 43 44 45 48 50 51 46 42 34 21 17 19 19 16 18 20 7 6 7 3 7 11 12 14 13 10 11 13 14 14 12 16 29 29 29 32 33 29 31 29 26 24 25 29 32 33 35
26 27 29 33 36 40 44 49 44 37 32 22 19 16 10 15 17 8 5 9 4 4 9 13 11 15 12 14 15 21 19 17 20 24 26 31 28 25 26 26 28 29 29 25 25 30 33 50 52
24 24 24 24 24 23 29 29 28 29 22 18 11 10 13 17 13 4 8 10 6 5 12 13 11 14 14 20 21 21 19 20 21 26 23 19 28 32 34 36 36 35 38 41 33 35 42 50 51
25 24 22 25 26 16 17 19 21 21 17 14 11 7 10 13 6 6 8 9 5 8 12 11 13 14 17 23 24 24 24 19 22 25 30 31 30 31 30 29 32 29 35 37 40 38 44 41 33
27 24 27 24 25 22 21 23 19 18 16 14 9 7 7 10 1 4 8 10 7 8 11 11 14 14 19 23 27 26 28 26 27 29 31 32 31 27 28 24 26 25 28 31 37 37 33 24 22
31 32 31 25 27 24 23 21 22 18 17 14 10 7 6 10 1 7 7 9 6 8 10 13 15 16 19 25 27 27 28 28 29 27 27 28 23 23 21 22 22 23 25 26 29 27 25 24 23
45 42 36 32 30 28 27 21 24 20 16 17 13 9 2 10 2 9 9 11 8 8 11 15 17 18 19 23 26 29 30 30 24 21 22 17 13 18 17 18 19 19 20 22 24 24 23 23 21
51 46 39 34 32 30 31 23 23 24 19 16 16 10 9 8 2 11 13 12 12 7 12 16 18 21 19 21 24 25 25 27 24 24 19 13 20 15 13 14 16 15 17 17 19 21 20 19 18
48 48 41 40 37 34 33 30 24 28 24 19 14 12 10 10 3 8 15 16 14 11 13 17 20 23 24 22 24 25 25 24 24 23 20 18 16 13 11 10 11 13 14 15 16 17 16 16 16
50 46 46 48 44 39 38 36 31 32 30 25 23 19 12 10 8 8 16 19 17 15 13 18 20 23 26 24 26 25 24 23 20 19 18 16 15 13 9 7 8 10 12 15 15 13 14 13 15
54 53 53 56 49 44 41 38 37 31 31 31 29 24 24 13 13 9 14 20 21 18 19 24 24 25 27 27 27 26 24 21 20 17 15 16 14 11 9 6 7 9 12 13 12 12 10 11 12
59 60 56 59 53 51 46 45 36 32 29 36 35 33 30 27 18 15 17 21 23 21 21 26 28 29 29 28 28 26 24 22 19 17 15 14 12 10 9 8 7 7 8 8 8 8 9 10 11
72 66 63 63 56 50 47 43 40 30 35 40 37 36 33 30 21 19 22 23 21 25 24 30 32 32 31 30 27 27 26 22 19 17 16 15 13 11 9 7 5 4 4 6 8 10 12 12 13
76 73 67 62 53 42 48 42 42 38 41 42 38 37 35 31 30 26 29 21 30 29 24 29 30 33 33 30 29 27 26 24 20 17 17 15 12 9 7 6 3 1 3 6 9 12 15 16 16
74 71 63 56 50 47 54 39 51 49 43 41 37 35 35 31 35 25 31 20 26 31 30 30 32 35 32 30 29 28 26 24 22 20 17 15 12 11 9 7 5 5 4 5 7 11 14 16 17
80 69 70 66 60 58 54 54 58 49 45 40 36 33 36 37 36 37 31 27 25 30 33 29 36 37 36 33 31 28 26 24 24 23 20 17 14 11 10 10 8 5 4 6 9 12 15 18 20
77 80 75 65 61 58 55 57 55 53 52 46 39 35 42 41 41 42 36 31 28 29 33 33 38 42 40 38 33 28 27 28 26 24 21 19 15 13 12 10 9 9 9 10 12 13 17 21 24
80 75 72 73 69 61 60 57 63 59 55 50 41 41 46 48 44 43 37 33 31 27 32 36 39 45 46 41 36 32 31 30 28 26 24 21 17 14 13 14 14 15 15 16 16 18 22 27 29
86 83 81 73 63 59 60 66 63 57 50 45 40 39 45 49 46 44 42 36 30 26 32 39 40 48 48 44 39 36 35 31 29 27 23 22 19 16 16 18 18 21 21 21 22 24 27 31 31

GFSSGP_250_spd_051.txt.gz
Wind_Speed
12 11 17 15 12 11 11 10 8 18 17 17 22 25 26 30 30 32 36 34 33 33 34 35 32 33 34 26 19 11 6 11 15 17 17 17 15 15 13 6 13 10 8 7 7 3 1 2 5
11 10 11 13 13 11 8 16 16 19 22 24 27 27 28 29 31 33 33 36 35 33 35 36 33 32 27 21 13 8 6 12 15 16 16 14 13 12 11 7 9 8 7 6 4 2 3 8 10
13 11 9 7 7 7 14 13 20 21 19 23 25 27 28 32 35 35 39 38 36 36 36 35 31 32 19 16 8 6 10 14 13 15 14 13 11 10 9 8 9 7 4 3 0 5 8 10 10
14 10 11 10 6 9 16 14 18 23 27 23 23 27 29 32 35 38 37 37 36 36 36 33 31 20 13 11 7 8 12 13 14 15 14 14 12 12 9 8 9 7 4 4 4 6 8 10 13
14 12 15 10 9 17 17 12 19 20 23 25 21 23 27 32 34 34 36 37 37 37 34 32 26 10 7 7 8 11 12 12 14 16 17 17 16 18 14 11 14 11 9 8 7 7 10 13 11
18 18 17 15 13 16 20 20 16 22 23 17 17 30 33 34 36 33 34 36 34 34 31 27 11 4 6 9 11 12 12 12 17 21 20 18 17 17 18 16 15 14 10 7 6 6 8 8 8
20 21 16 15 13 19 21 12 11 11 16 22 23 36 35 33 36 35 33 33 31 29 24 12 3 7 11 13 13 14 15 14 17 21 22 21 19 19 16 15 13 10 7 7 10 9 9 8 9
21 21 18 14 18 18 20 26 22 25 28 26 29 38 39 40 35 30 29 28 26 19 10 4 8 13 15 14 16 16 15 15 14 16 22 24 17 19 17 13 10 13 16 17 16 14 14 12 13
24 25 23 19 13 12 15 25 31 30 26 29 32 43 38 33 26 25 25 23 18 7 4 7 13 18 14 16 15 16 17 17 22 15 14 17 22 23 25 23 26 30 28 27 23 21 20 22 22
30 30 28 27 18 13 10 23 27 26 29 33 44 44 31 21 27 23 21 16 4 2 6 11 16 16 14 18 17 16 15 18 14 12 13 21 27 30 32 32 32 33 30 30 25 21 24 30 34
37 37 35 32 26 28 32 29 28 30 36 42 48 36 31 25 20 21 16 5 3 6 9 14 14 15 15 18 18 19 18 15 15 21 26 28 30 31 31 28 25 27 28 31 30 35 46 47 47
42 41 39 39 36 34 39 41 38 41 46 53 40 35 28 20 20 20 5 1 7 9 11 16 14 13 15 16 13 14 13 13 22 24 28 29 27 25 25 21 20 24 27 28 50 44 47 41 44
42 42 43 45 44 43 44 47 49 49 51 47 27 27 18 16 18 8 2 5 8 10 13 15 13 11 16 15 13 13 14 20 22 28 25 22 22 25 29 28 25 25 29 40 40 44 34 34 38
31 31 32 33 33 39 45 44 41 37 29 18 17 16 13 14 13 6 3 7 9 10 15 15 12 12 18 18 20 20 20 25 27 26 26 31 34 31 30 34 34 32 30 34 36 32 29 28 33
28 25 28 28 28 30 25 25 19 14 14 14 16 15 11 12 10 7 3 6 7 10 15 14 12 15 20 19 21 21 21 23 21 19 27 29 28 26 26 30 32 30 33 35 26 21 26 28 31
31 28 33 27 29 30 25 21 19 17 15 14 13 13 8 10 9 7 3 5 9 12 11 12 13 17 20 22 22 23 21 25 26 27 26 27 24 23 21 23 26 29 30 27 18 21 21 23 28
35 36 37 31 28 30 26 23 20 21 20 14 11 11 8 7 17 3 7 5 8 11 11 11 13 20 20 22 22 24 24 28 30 28 26 22 21 20 19 20 22 24 23 19 20 19 20 21 23
47 48 44 38 31 30 28 26 24 21 21 14 12 12 14 7 8 5 7 8 7 10 12 13 13 21 22 23 25 27 28 30 31 27 22 19 18 17 15 16 18 19 19 17 17 18 19 21 22
56 52 49 45 37 32 30 30 27 23 20 17 14 10 15 7 6 6 8 8 10 9 11 14 14 19 24 23 25 28 28 26 29 25 14 18 15 13 13 14 14 14 13 13 13 16 17 20 20
58 56 51 51 42 37 32 34 29 26 21 22 17 12 12 7 7 8 8 13 11 13 11 15 16 19 24 24 25 28 28 21 24 16 12 20 15 12 11 11 10 9 10 12 11 13 14 15 15
62 57 57 56 49 43 40 32 31 30 25 26 23 14 15 14 12 7 8 12 14 13 14 15 18 20 24 25 26 29 28 22 20 18 18 17 15 12 10 7 6 8 9 10 9 13 13 15 15
63 61 62 64 56 47 42 33 32 30 30 27 25 21 20 16 12 9 8 11 15 15 17 18 21 22 26 25 27 28 28 25 22 19 17 16 15 11 9 7 6 7 9 9 10 11 10 12 13
68 65 64 65 65 58 46 39 36 38 34 32 27 28 25 20 21 18 12 12 17 20 20 22 22 24 28 27 27 28 27 27 24 22 19 17 15 12 10 8 7 6 5 5 6 9 11 13 13
78 74 71 71 68 58 46 40 35 34 40 35 29 32 31 27 23 25 18 18 18 21 23 25 25 27 29 30 29 26 27 25 23 21 19 19 15 12 11 9 7 4 2 4 7 9 11 12 14
81 80 74 72 64 46 48 42 37 39 41 43 36 34 32 33 24 21 20 22 21 21 26 25 25 29 32 31 30 30 27 23 20 19 17 16 15 13 11 9 6 3 2 5 7 8 11 14 17
81 81 71 64 58 46 50 40 45 44 46 49 39 35 31 31 28 27 27 27 21 24 24 28 25 27 32 31 30 31 28 25 21 17 17 17 16 13 10 8 5 4 6 7 7 8 11 15 19
83 78 74 72 67 58 52 51 59 50 49 45 41 34 33 34 31 30 37 35 33 26 25 32 29 29 32 33 34 32 28 28 24 21 20 20 18 15 12 10 9 10 10 9 9 8 11 16 22
90 84 82 71 67 59 55 52 58 51 51 49 45 41 38 38 36 33 37 35 30 28 24 33 36 32 31 36 36 34 31 30 29 26 24 22 19 16 15 15 14 15 14 13 14 12 15 21 25
92 85 79 78 73 59 57 51 62 56 57 53 48 46 39 39 39 37 36 39 33 33 26 30 39 37 38 41 40 37 34 31 30 29 27 25 22 19 17 18 18 18 17 17 17 16 20 22 27
96 94 89 78 65 60 58 56 67 62 61 56 50 48 43 40 41 38 38 37 39 38 30 34 37 43 44 38 40 38 35 34 33 32 29 27 25 22 21 19 19 20 18 17 20 21 22 24 28

GFSSGP_250_spd_054.txt.gz
Wind_Speed
15 11 14 11 9 6 7 7 8 4 12 19 19 28 31 31 34 34 39 39 40 37 37 36 33 31 27 17 13 9 8 13 14 16 14 15 14 14 10 10 13 12 11 8 8 6 8 9 11
10 10 9 15 11 11 5 5 12 13 19 19 26 28 29 30 33 36 37 37 37 37 37 37 31 29 19 13 11 10 12 14 14 14 15 13 11 12 10 9 9 10 8 8 5 6 9 13 13
11 10 9 8 10 7 9 14 12 16 19 22 23 26 26 28 32 36 36 37 36 38 38 33 30 23 12 11 10 12 12 14 15 17 16 14 12 12 14 10 10 9 6 5 4 5 6 7 10
13 12 8 4 4 9 10 10 19 15 19 19 26 23 21 31 39 36 36 36 38 36 33 30 25 11 7 9 10 11 11 14 16 17 17 17 15 14 15 15 9 7 5 7 8 8 10 14 15
17 14 15 15 14 15 14 10 8 14 16 18 19 23 26 40 41 44 41 37 33 31 30 25 14 5 9 12 11 13 12 16 18 18 18 19 21 20 21 21 16 13 10 7 7 10 12 12 13
19 17 16 18 12 15 17 16 16 14 12 15 19 21 31 40 47 43 38 34 29 27 23 15 6 11 14 14 15 13 13 15 22 22 20 21 21 21 19 19 17 11 7 7 9 12 12 13 15
20 22 19 18 18 16 14 17 17 15 10 18 23 28 31 41 49 43 34 31 26 22 14 7 9 16 16 15 15 13 12 14 20 25 17 21 21 18 16 17 17 12 11 13 14 16 19 16 16
23 23 21 17 17 23 21 21 16 17 25 24 25 29 34 43 49 38 39 28 22 14 8 8 15 17 17 16 14 13 13 18 19 21 22 24 25 23 25 25 25 23 20 23 27 30 29 25 23
25 24 24 21 17 14 18 20 20 21 31 25 28 30 33 47 47 42 30 28 13 6 9 13 15 17 16 17 15 17 17 16 17 20 26 31 32 34 33 31 28 24 24 25 34 38 40 46 45
27 27 25 25 25 22 17 15 23 32 33 31 26 30 41 54 44 38 33 14 6 5 11 15 14 16 16 17 17 18 15 12 18 25 30 33 33 32 30 30 29 28 36 48 43 40 42 42 45
32 32 30 29 28 25 21 24 18 24 29 28 26 37 51 44 37 31 23 7 5 9 14 13 15 15 16 17 14 15 13 21 25 27 28 28 27 25 27 27 28 40 46 46 46 41 39 42 41
38 37 36 36 34 32 28 27 29 31 30 29 40 48 43 32 27 25 8 7 2 12 14 12 14 15 17 19 15 12 14 21 25 25 24 24 24 23 24 27 36 42 39 38 37 40 36 39 38
43 41 41 41 39 39 36 33 33 36 38 42 45 46 23 21 22 12 5 4 4 12 13 12 12 14 17 18 12 14 20 23 21 19 20 26 28 25 25 27 33 36 34 32 37 39 37 38 36
44 45 46 44 45 43 42 40 39 36 38 41 33 16 18 16 17 4 4 4 4 12 11 11 9 11 19 15 13 18 22 23 21 27 29 29 31 29 29 29 30 29 28 30 31 35 35 37 38
42 42 43 43 45 42 39 40 35 31 30 20 12 13 12 10 15 1 2 3 3 11 10 10 8 12 19 14 16 24 26 23 24 24 25 26 26 28 28 28 28 23 24 26 28 30 32 33 36
35 34 36 34 34 28 26 26 23 23 23 13 10 10 6 6 13 1 2 2 6 11 9 10 9 13 19 18 18 23 24 19 23 22 21 20 23 24 24 25 24 20 18 21 24 26 25 30 34
36 39 39 36 33 31 27 23 22 22 19 14 13 12 8 11 10 3 4 2 7 9 9 11 10 14 17 18 18 21 23 22 21 22 19 18 20 22 23 22 18 15 18 19 20 22 24 26 29
44 51 45 41 38 34 29 25 22 20 18 17 15 14 9 10 7 9 5 4 8 9 12 12 12 14 16 19 17 22 27 26 23 20 18 16 18 19 18 18 16 14 17 17 19 21 23 24 26
52 52 48 43 41 37 34 28 24 22 20 18 14 13 7 7 3 8 4 7 6 10 12 12 14 15 17 17 20 23 25 26 23 20 16 14 16 15 14 15 11 12 14 17 19 19 19 20 22
56 55 53 51 46 43 37 34 27 24 20 17 16 13 11 2 4 5 5 7 9 11 12 14 15 17 19 20 23 26 28 26 23 16 15 11 13 13 12 10 9 11 14 15 15 15 17 19 20
60 59 61 61 52 50 43 40 31 27 23 22 18 17 13 6 8 8 6 6 10 11 13 16 16 18 20 22 23 25 25 23 21 9 13 12 10 10 9 8 10 10 11 11 11 11 13 16 18
64 65 67 69 59 54 49 43 37 28 28 24 21 17 17 12 7 11 8 6 11 11 15 17 19 19 21 22 24 27 24 20 21 14 17 13 10 7 6 8 10 11 9 8 8 9 12 15 17
71 70 70 72 65 61 52 47 41 33 31 31 28 24 19 16 12 12 10 8 13 14 18 19 20 22 22 22 25 26 25 20 19 18 16 14 11 7 4 5 8 7 5 5 7 11 14 18 21
82 75 73 76 72 61 52 45 45 38 42 35 29 27 22 20 17 13 17 17 15 18 20 21 22 21 22 25 24 27 28 25 21 19 17 14 11 8 5 4 5 4 2 4 8 11 14 18 21
82 81 74 76 71 47 49 43 42 47 43 36 34 34 27 25 20 19 18 23 23 20 22 24 23 24 24 26 24 26 28 24 23 20 17 15 13 9 7 6 4 3 2 4 6 8 11 16 19
85 86 77 72 62 51 50 40 40 52 48 39 37 34 28 29 23 23 20 23 24 22 21 21 23 25 26 24 25 26 26 24 23 21 18 15 12 11 10 11 10 8 7 6 6 6 8 14 19
92 85 78 78 71 62 56 47 48 54 47 46 43 35 33 32 30 25 23 24 23 25 24 21 21 25 28 26 26 28 28 25 24 21 19 19 17 16 14 14 12 11 9 10 11 7 9 15 21
97 89 90 80 72 65 59 52 52 56 53 51 47 40 37 37 35 29 26 26 28 29 25 23 23 26 30 30 31 30 28 26 27 27 23 22 21 19 18 17 15 13 12 13 13 13 14 18 22
102 99 91 82 79 69 62 55 58 61 60 55 53 50 44 39 38 34 29 28 30 31 29 28 26 26 30 32 32 33 33 31 29 30 30 27 24 23 22 19 17 15 16 15 14 15 17 19 23
109 104 96 90 75 69 65 64 66 67 63 62 58 54 46 43 39 35 29 26 27 30 29 28 24 25 30 34 33 36 36 33 32 33 33 30 28 27 26 22 19 16 16 16 14 16 18 21 23

GFSSGP_250_spd_057.txt.gz
Wind_Speed
17 17 13 13 12 11 7 9 7 7 10 18 17 19 28 28 28 29 31 34 37 36 35 35 35 27 21 11 9 9 12 13 14 12 10 9 13 15 15 14 14 14 9 8 7 6 7 9 10
14 14 9 12 12 11 8 7 7 9 11 17 19 19 24 22 29 37 38 46 37 35 34 33 29 24 10 9 10 11 13 15 13 13 12 11 13 13 12 12 13 11 9 7 7 8 9 11 12
13 11 10 8 13 11 10 10 12 11 13 16 20 20 18 19 36 43 47 52 37 35 31 29 24 12 8 10 9 11 15 14 13 15 15 16 17 16 13 12 14 11 8 7 7 8 11 14 14
17 14 10 9 12 13 10 10 9 13 11 15 17 12 22 32 37 43 46 47 40 36 30 26 14 8 11 10 11 15 19 17 18 20 19 20 20 18 14 14 12 11 8 9 13 15 15 16 14
18 14 12 15 15 15 14 10 10 10 14 16 12 20 22 28 37 42 50 48 41 35 26 16 8 13 12 12 14 13 20 20 19 21 22 24 24 24 19 17 14 12 14 14 15 14 13 15 17
20 17 15 18 18 15 15 17 14 17 22 15 13 23 28 30 37 43 53 44 36 31 17 6 12 14 14 13 13 12 14 21 18 21 20 23 22 21 21 19 17 18 18 16 17 16 16 18 18
24 19 17 20 17 17 15 17 14 23 10 15 21 25 26 34 37 52 48 41 40 22 6 9 15 16 13 14 13 14 14 20 20 21 22 21 19 19 21 23 23 23 23 24 27 29 27 29 28
26 24 21 19 20 20 18 21 20 18 18 19 26 25 29 35 41 56 45 38 31 7 8 15 15 17 14 15 14 15 19 22 25 26 27 28 28 26 26 26 26 31 40 42 42 42 39 39 37
26 24 22 20 21 19 19 16 21 18 21 21 27 28 29 31 46 52 40 38 11 4 12 16 15 16 15 17 16 19 23 29 31 32 32 31 28 26 25 27 40 38 40 37 41 41 42 41 41
24 25 24 23 22 22 21 21 18 21 25 26 29 31 31 37 49 42 35 24 6 6 14 12 15 16 18 18 17 15 24 29 30 29 26 27 28 29 43 45 43 38 37 39 42 39 42 42 44
27 27 25 25 24 23 25 24 22 22 19 23 28 26 28 40 49 33 31 12 5 10 10 12 15 16 18 14 15 20 23 24 27 25 22 25 29 40 43 39 41 42 37 40 40 38 40 40 37
34 32 29 30 28 28 26 26 26 25 26 29 25 32 34 43 30 29 17 7 4 10 9 12 15 16 16 11 11 21 21 22 24 23 22 26 32 38 38 37 41 41 39 38 38 39 38 37 36
37 38 35 35 34 34 32 32 30 29 29 29 29 31 33 23 21 23 9 7 2 7 8 12 15 16 15 13 16 19 20 21 24 25 26 28 29 34 33 31 36 39 37 37 40 40 41 37 33
46 45 43 40 39 38 37 37 35 33 34 31 32 29 21 14 13 16 6 5 1 6 6 11 14 17 16 15 18 20 20 24 26 26 27 28 28 30 28 30 32 32 33 34 38 41 41 42 42
50 50 49 46 44 42 40 40 39 38 35 33 25 16 10 7 13 14 6 6 0 6 5 10 13 18 16 13 17 22 26 27 25 24 25 25 27 27 26 27 27 28 29 31 33 36 38 40 41
42 44 49 48 46 42 39 37 36 34 28 22 18 11 8 7 13 11 6 5 1 4 6 9 12 17 17 14 19 20 24 24 23 20 20 23 23 22 22 23 23 25 25 25 29 31 33 34 36
37 39 43 42 43 39 35 30 24 21 17 15 15 11 7 7 9 8 5 4 2 4 7 12 14 16 18 18 21 17 20 21 20 19 19 19 20 19 19 19 19 22 22 24 26 27 29 31 32
46 46 43 41 39 34 30 25 22 19 17 16 14 8 5 7 6 5 4 5 3 3 7 14 16 17 19 18 18 18 18 19 17 17 17 17 17 16 14 14 17 18 20 21 23 23 24 27 29
50 48 43 40 37 32 30 25 23 20 18 14 11 8 8 8 2 3 3 4 2 4 7 13 17 16 18 16 18 22 20 20 18 16 16 14 13 13 12 13 14 17 17 17 20 21 22 24 25
53 52 51 46 43 38 34 30 24 23 17 16 15 13 11 7 3 2 3 3 4 5 8 12 17 18 19 18 20 25 23 20 17 14 12 11 9 9 10 11 12 14 14 15 17 18 20 23 23
59 57 60 56 50 46 40 34 29 26 24 21 17 15 11 8 7 3 3 1 5 4 7 11 16 17 17 17 19 23 23 19 15 12 9 7 6 6 7 8 10 12 12 13 14 17 21 23 23
63 66 67 64 55 53 46 40 34 28 26 21 21 17 16 12 11 6 4 5 4 6 6 12 15 17 19 20 21 23 25 21 17 9 7 7 3 3 4 6 8 8 9 10 12 18 20 21 21
73 72 68 69 63 59 49 45 40 32 29 29 27 23 20 17 13 8 8 8 7 8 7 11 14 18 21 24 25 24 23 19 16 10 7 11 6 3 1 3 4 3 5 8 12 14 16 18 20
87 79 75 76 71 60 55 47 45 37 42 37 30 28 25 20 15 15 13 14 10 8 11 13 15 17 20 25 26 25 26 21 15 14 11 11 8 6 3 4 5 2 3 7 10 11 11 15 20
89 85 82 80 74 54 59 52 48 46 47 41 36 31 28 22 21 18 16 13 16 14 11 17 16 18 21 22 23 25 26 25 21 17 15 13 10 9 7 8 7 4 2 6 8 8 9 15 22
93 91 86 80 72 62 63 52 49 51 53 46 40 37 29 28 25 21 16 16 18 19 16 16 18 16 22 23 24 24 23 24 24 22 18 15 13 13 11 11 10 6 4 7 9 8 11 16 22
97 92 85 87 80 69 63 58 57 56 56 49 43 40 36 34 30 27 23 21 23 22 20 20 17 18 19 23 22 25 24 24 25 23 21 18 16 16 14 14 10 8 7 8 11 10 12 17 21
105 95 102 91 84 72 68 61 59 63 62 55 51 44 43 40 35 30 29 23 25 24 23 23 20 18 19 18 25 26 26 24 25 25 23 19 19 16 17 16 12 10 10 11 11 12 13 16 20
110 109 102 93 86 77 70 63 64 62 67 63 56 53 49 44 38 33 32 27 23 24 28 26 23 19 21 24 28 29 27 27 29 27 25 23 20 18 19 19 16 14 13 12 12 12 12 15 19
118 114 107 100 86 79 75 68 74 69 66 66 59 56 51 46 42 36 32 28 23 24 26 32 31 26 23 26 27 30 31 31 31 30 29 28 25 23 23 22 20 18 13 13 12 13 14 16 17

GFSSGP_250_spd_063.txt.gz
Wind_Speed
13 12 13 14 11 10 8 10 12 8 5 8 11 20 24 25 32 32 34 38 49 50 37 32 29 21 6 5 10 11 8 6 5 4 9 12 14 15 14 11 10 9 6 7 6 6 6 5 5
14 13 13 11 11 9 14 14 16 14 13 9 14 20 22 24 28 30 38 40 51 47 37 29 20 5 4 9 15 13 10 7 6 9 9 13 13 15 13 11 10 7 5 5 3 2 4 3 4
18 15 12 11 10 13 13 11 14 15 14 15 16 20 22 31 29 35 35 41 53 45 31 21 7 6 6 15 16 13 12 10 12 14 16 17 15 9 9 8 7 5 3 5 6 4 3 2 4
17 14 13 12 10 14 14 13 17 16 15 10 12 24 31 30 32 39 39 44 55 36 19 9 5 6 11 14 17 13 15 14 16 18 18 17 15 12 10 9 7 8 7 8 10 8 5 1 2
16 14 13 12 14 16 15 14 14 12 13 17 21 24 30 29 35 38 41 44 49 23 11 6 7 9 12 12 14 12 14 19 23 20 19 19 17 17 18 15 14 16 17 16 16 13 11 9 5
19 17 15 13 16 14 14 19 20 16 17 23 22 26 25 32 36 38 43 45 33 17 7 9 11 11 14 13 15 13 14 16 17 21 23 23 22 26 26 28 27 27 25 20 20 21 23 20 13
21 20 17 16 15 15 16 17 19 19 16 19 18 23 27 34 34 36 41 43 22 13 9 13 12 13 14 14 16 17 19 19 20 22 26 30 35 34 37 36 31 32 35 33 29 33 35 36 30
23 22 21 21 18 18 17 15 15 12 12 13 19 22 23 29 33 37 41 33 18 9 9 12 12 13 15 18 20 22 24 24 26 31 32 33 32 31 33 33 33 32 35 36 35 39 42 44 39
25 25 23 22 19 19 22 19 19 22 22 18 22 24 26 30 34 37 35 24 15 7 8 10 12 14 17 19 20 24 21 24 27 30 31 32 31 31 33 35 36 35 38 40 37 41 49 45 41
24 23 25 23 24 29 26 24 23 22 21 19 20 23 26 28 35 32 30 18 13 5 8 9 12 13 15 16 16 21 23 28 33 33 33 32 34 36 39 40 36 37 37 38 40 46 22 49 41
28 25 23 25 26 28 24 23 20 19 20 21 22 25 27 29 34 25 26 15 10 5 6 8 10 12 13 15 15 22 27 31 31 35 37 35 38 40 40 43 41 39 38 40 39 43 43 49 45
33 30 28 26 22 26 25 25 21 18 21 20 23 25 28 30 31 21 25 14 9 5 4 8 10 13 15 15 17 24 28 29 32 31 35 35 37 38 40 39 43 39 38 37 39 38 39 44 46
38 37 35 32 28 27 28 24 24 22 23 25 26 26 28 30 29 19 22 12 8 4 3 8 9 10 14 15 20 23 28 29 27 30 33 34 35 35 36 38 38 41 40 34 33 33 35 36 40
45 43 40 37 34 31 29 28 28 27 26 27 28 28 30 29 21 17 18 10 5 3 3 7 9 9 13 16 21 24 26 28 24 25 30 32 29 31 31 32 32 34 37 39 39 36 31 31 32
51 48 45 42 37 35 33 32 30 30 28 28 28 30 30 28 13 14 12 7 2 4 4 8 12 14 14 17 20 21 23 26 23 24 27 30 28 26 27 27 29 31 33 32 33 33 35 32 27
55 53 50 47 43 40 36 34 33 34 32 29 30 31 27 21 11 10 8 4 1 5 6 12 15 16 15 17 18 19 22 22 22 21 24 25 23 23 26 27 28 28 28 28 28 29 31 31 31
52 58 55 50 47 42 36 32 38 31 27 34 34 30 27 13 10 9 7 3 2 4 8 13 18 16 16 18 17 17 20 21 21 20 21 18 18 18 20 24 26 23 23 23 22 24 25 26 26
52 57 57 56 54 49 43 33 23 46 47 42 37 29 18 13 8 5 5 2 3 3 6 14 22 18 17 17 17 17 17 18 18 19 20 18 19 19 18 19 22 20 19 18 20 22 23 25 25
51 52 53 53 49 47 44 35 27 37 38 42 33 22 18 14 8 4 4 4 3 4 5 13 23 19 19 20 17 15 16 16 16 18 18 18 17 15 15 15 15 19 17 19 22 23 25 25 25
54 54 54 52 48 46 43 40 46 47 38 31 27 24 19 15 9 4 5 5 7 7 8 14 22 22 22 22 18 16 13 12 13 15 15 16 14 11 13 12 12 16 16 18 21 24 24 26 27
61 61 59 55 49 46 42 36 32 17 30 31 29 24 19 16 11 6 6 4 9 9 10 15 20 21 23 21 19 16 14 10 10 11 12 12 11 10 12 13 11 14 13 16 19 22 23 25 26
68 68 64 61 51 48 43 38 29 34 32 33 29 24 20 19 15 11 8 6 9 11 14 15 16 20 20 19 19 19 17 14 10 8 8 7 8 9 10 10 11 12 12 12 14 18 21 25 26
72 73 70 67 58 55 46 40 38 35 35 34 31 27 23 19 17 13 10 7 10 11 14 15 15 17 20 19 23 23 21 14 10 6 4 4 3 5 7 7 8 8 9 8 10 13 17 22 26
77 76 76 72 69 57 53 47 42 37 36 38 35 29 27 23 19 16 15 9 9 11 11 17 18 17 21 22 25 26 21 17 14 9 4 5 3 2 3 4 4 4 6 6 8 10 16 20 24
80 80 78 79 77 60 61 54 48 45 44 43 41 35 32 27 23 21 20 14 15 12 12 8 17 21 21 23 23 25 24 23 20 13 8 6 6 5 3 3 3 2 2 5 6 9 13 18 21
88 86 82 79 79 66 69 58 53 54 51 47 45 39 35 30 28 28 23 20 17 16 13 15 12 18 21 22 22 23 25 24 24 17 12 9 9 9 7 4 3 3 1 4 6 9 12 15 18
89 96 83 84 83 78 75 72 64 62 58 55 47 45 38 39 37 32 27 25 23 19 19 16 19 18 18 17 17 23 24 24 23 21 19 15 12 13 10 8 6 5 5 5 6 8 9 12 16
98 94 95 93 87 81 82 78 68 67 64 62 59 52 50 47 43 36 34 31 27 23 18 18 19 22 22 19 16 20 24 25 24 25 26 23 21 19 13 9 9 9 8 7 8 8 8 10 13
99 96 103 100 95 87 84 82 78 74 71 69 65 63 57 55 49 44 41 34 30 26 23 18 21 23 24 26 24 20 22 23 23 24 25 24 23 20 16 12 12 12 12 11 11 9 9 8 12
105 101 104 107 101 94 89 91 86 83 77 73 74 69 63 60 56 52 47 40 35 32 28 23 23 24 27 29 30 28 23 22 23 24 23 23 24 22 19 15 14 15 15 15 14 11 9 9 11

GFSSGP_250_spd_066.txt.gz
Wind_Speed
5 3 5 11 10 7 3 11 15 17 14 15 19 21 20 22 30 36 36 47 46 50 45 26 18 10 11 11 12 12 11 9 7 6 11 12 13 15 12 10 7 5 3 2 4 5 6 7 8
8 7 8 8 5 4 9 16 20 11 17 16 17 19 23 29 35 34 40 44 46 46 30 14 10 10 11 13 15 13 11 9 9 7 11 13 16 11 10 8 7 3 4 4 6 7 8 8 10
13 11 9 7 5 2 12 13 19 23 22 17 18 20 29 31 32 38 40 43 50 32 16 11 12 12 10 15 15 13 13 12 13 12 14 10 9 8 6 6 3 3 5 5 3 4 7 9 10
17 10 8 6 4 11 11 13 20 27 21 19 23 27 30 28 34 39 39 46 39 25 15 13 12 10 11 16 14 16 15 16 16 15 12 10 8 6 4 3 3 5 7 5 5 7 8 10 10
16 9 8 8 8 9 12 16 18 16 16 19 24 25 24 30 33 37 40 45 31 22 13 11 13 11 14 16 16 15 17 16 16 13 11 9 9 9 10 10 13 15 13 18 22 16 7 1 3
14 11 12 10 9 13 14 15 17 19 22 26 23 22 28 29 35 40 41 39 26 17 13 12 13 11 15 16 14 14 14 15 18 18 19 23 24 23 26 25 22 23 28 28 35 31 27 23 18
17 17 14 11 12 16 22 16 15 18 21 18 20 26 29 29 36 41 37 32 23 13 11 13 13 14 17 17 17 14 14 16 24 31 33 33 31 29 31 31 33 39 39 41 41 38 34 28 23
22 20 17 11 13 6 16 11 16 19 17 19 27 26 25 30 36 41 35 29 20 11 10 11 11 15 17 18 18 18 20 26 29 29 29 26 25 27 29 32 39 39 49 48 44 47 49 44 40
25 24 23 20 11 23 18 22 25 23 22 25 26 24 24 30 35 41 32 27 18 10 9 10 10 16 18 16 15 17 23 25 31 33 31 29 29 32 35 39 38 33 29 30 41 49 49 51 47
25 26 26 24 25 25 25 21 23 24 25 25 20 20 23 29 34 39 29 26 16 9 9 9 9 13 13 12 15 26 28 33 35 34 41 40 39 35 37 43 42 48 48 39 46 48 50 52 53
26 24 18 25 23 25 24 26 26 24 25 25 21 21 26 29 33 38 27 25 14 7 9 8 9 11 12 17 23 25 31 36 39 40 43 43 38 35 38 39 38 41 42 43 37 32 38 45 46
31 26 27 29 25 23 19 26 23 20 23 20 17 24 27 29 33 34 25 23 12 6 8 9 12 11 15 20 24 25 26 34 36 38 39 39 35 37 36 34 33 34 35 36 36 36 35 42 40
39 36 34 32 28 24 15 7 12 16 17 23 26 27 27 29 30 29 23 20 9 4 8 8 9 11 15 18 21 22 28 31 32 35 35 35 35 36 37 37 38 39 35 32 32 34 36 31 34
43 40 36 37 32 29 21 28 23 22 29 28 25 23 25 29 29 26 20 17 8 3 8 9 8 13 18 18 19 22 22 26 29 31 33 24 30 31 31 30 33 32 35 35 32 29 30 31 33
47 43 40 37 35 30 30 32 28 21 26 26 23 24 24 28 26 25 17 15 7 1 6 9 10 16 19 19 17 19 20 21 23 28 27 26 27 28 30 28 28 29 31 31 32 32 30 29 30
52 49 47 43 38 37 31 27 25 24 34 25 27 29 26 29 26 21 16 12 7 2 7 11 14 19 19 19 16 15 18 19 21 24 25 24 25 26 26 25 26 26 27 27 28 29 29 29 28
55 54 51 47 45 40 35 30 28 33 31 34 32 25 26 26 27 17 14 10 7 2 8 13 16 20 20 19 17 17 17 18 18 18 20 20 22 23 23 22 20 20 24 25 26 27 27 27 28
53 58 54 51 49 44 38 32 24 26 26 30 28 37 25 24 21 14 11 9 8 3 7 18 16 19 21 19 18 17 17 17 18 20 20 18 18 17 21 19 19 18 21 23 25 27 27 28 30
54 54 52 53 52 48 44 36 33 38 36 44 32 25 22 20 16 13 10 8 8 5 8 18 19 18 20 19 19 18 17 16 17 19 17 15 17 13 13 17 21 20 20 22 26 27 28 29 31
57 56 54 53 53 51 49 44 38 31 25 24 37 30 26 14 15 11 9 8 10 7 11 18 24 19 20 19 19 19 17 16 16 17 17 15 13 12 12 14 17 15 17 22 24 26 28 30 32
63 61 60 56 53 51 49 45 41 41 25 30 39 33 23 19 17 11 8 7 9 7 12 16 23 21 19 20 19 19 18 16 16 14 14 13 12 12 12 11 12 13 15 16 19 24 28 31 31
67 68 65 60 54 50 49 46 43 35 32 39 29 40 26 24 18 13 8 7 9 9 13 15 18 23 20 22 19 18 16 15 14 12 10 11 11 11 11 9 10 10 11 12 16 21 25 27 30
69 72 70 67 60 53 47 44 44 41 42 52 30 29 26 25 19 15 11 12 11 11 13 18 16 21 22 23 22 19 17 14 12 10 8 6 7 8 7 8 7 8 10 10 13 17 21 24 27
76 72 73 70 68 56 50 45 42 40 51 44 37 35 29 27 24 21 17 13 11 11 12 15 21 20 23 23 24 23 18 15 12 10 7 5 4 4 4 3 2 5 8 9 10 14 18 21 24
78 76 75 74 75 58 59 52 47 45 58 47 33 33 32 30 28 26 23 17 16 15 11 13 18 23 24 24 25 25 22 18 16 13 7 4 2 0 2 2 1 3 4 7 9 11 15 17 21
83 81 81 76 72 63 68 57 53 52 50 56 46 23 41 32 31 31 26 25 20 20 18 15 14 21 25 24 24 25 26 23 19 16 8 5 4 4 3 4 3 4 4 6 9 11 12 14 18
88 90 79 80 78 72 74 68 64 61 59 57 54 45 42 38 34 35 30 28 25 21 20 19 16 17 21 22 21 24 27 26 24 21 16 11 8 7 7 6 6 5 6 7 7 10 11 12 15
97 87 91 88 82 75 76 74 70 67 63 60 56 53 45 44 41 35 34 31 30 24 20 22 20 19 18 21 23 23 25 26 24 24 23 19 16 15 12 10 9 7 6 7 8 9 11 11 12
90 93 98 95 91 81 78 76 75 74 70 68 62 61 53 49 34 51 44 40 35 28 27 23 22 23 23 24 28 27 27 27 26 25 23 23 22 21 16 14 12 9 8 9 9 10 9 10 10
97 95 101 104 98 92 86 82 82 80 78 73 70 67 56 65 61 55 61 53 43 36 31 26 24 26 27 25 27 29 29 28 26 27 27 26 24 22 19 17 16 13 11 10 10 13 13 12 11

GFSSGP_250_spd_072.txt.gz
Wind_Speed
7 6 8 7 11 16 8 7 15 8 16 28 24 26 30 31 34 43 44 41 30 25 22 23 22 21 21 16 16 12 10 10 13 10 9 8 9 9 7 5 2 3 6 11 13 14 15 15 16
9 6 6 7 8 5 6 9 9 6 15 25 29 29 29 32 37 43 41 38 26 25 24 24 23 21 18 18 17 14 10 11 13 11 9 9 9 8 6 5 6 9 12 15 17 18 18 18 18
7 6 2 1 4 16 10 9 15 16 16 26 30 26 28 33 36 42 39 35 25 24 26 25 21 19 19 20 18 13 13 11 10 7 8 10 10 9 8 7 6 7 10 11 13 15 17 16 16
7 4 2 1 5 4 15 15 14 14 15 24 24 28 29 31 35 41 37 33 25 23 26 25 20 20 20 20 20 16 12 10 8 9 9 10 11 14 14 10 11 12 9 9 9 6 8 14 13
11 7 6 3 4 10 8 9 11 15 17 22 23 24 29 30 36 41 36 32 25 23 24 25 19 20 20 19 18 17 15 17 19 19 21 24 26 22 24 28 30 33 27 20 17 18 16 4 4
15 11 9 6 7 6 8 10 8 15 14 20 20 24 26 31 36 40 35 32 25 23 21 24 17 23 20 17 18 21 27 31 31 31 33 34 33 34 35 34 34 34 36 35 29 22 19 16 9
17 16 11 8 7 11 6 7 12 13 26 18 23 23 24 29 34 40 35 32 24 22 21 23 19 24 21 18 20 25 26 27 29 31 36 35 35 31 35 36 35 42 44 44 43 35 25 19 16
19 18 11 10 7 6 5 7 7 14 19 17 25 19 23 28 34 38 35 32 24 21 20 21 19 21 19 19 18 18 20 21 22 30 33 29 35 34 37 37 36 36 42 42 43 47 46 34 24
23 23 22 8 9 12 9 12 2 17 14 23 20 12 23 28 33 35 35 31 23 20 20 19 18 20 22 21 21 19 17 20 21 25 23 22 32 27 30 32 35 34 35 37 41 40 44 50 42
28 28 26 19 13 11 4 12 22 20 16 19 9 12 18 28 31 34 34 32 21 18 18 18 18 22 25 24 30 27 24 23 25 27 27 28 28 26 30 27 29 32 33 35 37 40 40 40 45
31 33 31 25 22 20 18 8 20 14 12 12 3 19 17 25 28 33 31 30 20 14 16 15 17 24 26 30 27 27 27 25 29 30 30 29 26 25 25 23 30 34 33 35 35 34 33 34 35
35 33 36 31 24 16 19 7 18 9 9 13 9 15 21 22 25 30 30 25 19 12 13 11 14 20 22 27 32 31 31 29 25 24 26 27 25 26 25 26 31 32 34 35 36 35 32 30 28
40 39 36 33 28 25 13 19 17 23 9 12 21 12 24 20 24 27 30 21 19 11 7 10 11 16 17 22 27 26 29 26 25 27 27 28 28 26 28 27 26 29 30 33 34 35 32 28 26
40 39 39 35 35 32 26 29 21 18 15 20 21 22 20 19 24 27 26 18 17 8 3 7 9 12 16 14 15 16 21 23 25 28 25 26 26 26 25 27 27 30 32 31 34 34 33 31 28
42 42 43 40 35 33 32 30 20 9 5 15 17 20 15 18 22 23 21 15 14 6 2 4 11 12 14 14 16 18 18 19 21 27 28 27 25 25 26 26 27 27 30 31 33 32 32 32 30
50 48 47 44 41 38 34 23 20 25 25 23 13 17 18 24 20 16 22 12 13 4 2 7 10 11 14 14 16 15 16 16 19 20 22 23 22 24 24 27 28 28 30 32 33 33 33 32 31
55 54 52 49 44 45 47 43 34 29 28 28 19 21 16 17 19 17 16 9 11 2 2 10 11 13 12 13 15 15 13 15 18 18 20 21 19 21 22 24 26 27 31 32 32 33 32 30 29
61 57 54 51 49 45 45 47 42 40 36 32 28 23 23 18 17 14 15 8 8 2 5 12 14 13 12 13 13 16 12 6 13 14 14 17 17 18 18 21 25 27 27 31 31 31 32 28 26
64 61 60 57 56 49 45 43 41 39 41 36 32 26 23 18 19 20 12 11 5 5 7 15 18 15 15 15 14 11 9 10 9 10 10 10 16 15 14 17 20 22 27 28 30 29 30 30 28
64 62 62 62 59 54 51 50 47 41 42 38 36 30 22 17 24 19 12 12 6 8 8 16 22 18 17 16 16 14 12 12 10 8 7 6 10 12 12 14 17 18 23 23 26 30 27 31 31
63 63 66 64 59 57 53 52 50 47 43 41 38 34 24 25 25 16 12 14 11 10 10 18 23 22 18 19 18 16 14 13 11 9 8 7 9 9 11 11 13 17 19 22 23 28 29 28 30
65 65 65 65 59 58 56 56 55 51 48 47 44 38 33 30 24 20 19 17 14 13 11 16 26 25 22 21 21 18 16 15 13 10 10 8 8 6 9 9 12 13 16 19 20 24 28 27 27
69 69 68 66 59 55 53 54 58 56 55 53 51 43 34 29 32 32 24 23 16 14 10 15 29 27 25 23 22 20 18 15 13 11 9 7 6 4 5 7 8 10 13 16 17 21 25 28 26
70 68 70 68 62 57 56 53 52 58 59 58 53 48 40 34 31 30 21 26 17 17 11 14 24 31 28 27 25 23 20 17 14 12 10 8 6 3 2 2 3 5 9 11 13 17 20 24 28
75 73 72 70 67 62 64 57 55 58 60 61 58 52 46 41 33 37 25 28 20 19 13 15 21 29 28 27 26 25 23 21 16 13 11 8 6 4 1 0 2 4 4 6 10 12 14 17 23
75 77 75 71 68 68 71 61 60 61 56 56 59 54 54 51 41 35 27 29 22 19 18 16 22 28 31 27 27 26 25 24 21 16 12 10 7 5 3 2 3 3 3 6 7 9 11 14 17
79 77 77 75 73 72 72 67 69 69 62 58 57 57 56 49 46 45 36 32 32 22 21 17 20 25 28 29 28 28 26 25 23 19 16 12 9 7 5 3 5 6 6 4 4 7 9 11 12
87 84 82 78 76 75 73 71 73 76 71 65 58 55 56 52 49 46 41 37 35 29 22 22 18 19 26 27 28 28 28 28 25 24 21 17 13 10 9 8 8 9 9 7 5 6 8 10 10
93 95 89 82 78 77 72 73 84 78 76 70 63 54 59 53 55 43 40 37 37 33 30 26 24 20 21 26 28 28 26 29 31 29 26 24 22 18 16 17 16 13 12 10 8 7 7 8 10
96 98 96 91 86 83 78 84 87 84 80 76 69 64 59 66 56 44 43 42 42 36 33 32 28 27 23 20 24 27 29 28 29 31 32 30 27 26 24 24 22 19 17 14 12 10 7 9 9

GFSSGP_250_spd_075.txt.gz
Wind_Speed
10 7 6 6 10 16 7 12 18 12 20 24 29 32 34 33 37 42 38 37 29 27 26 24 21 19 20 19 18 17 15 15 15 14 15 17 14 13 11 10 9 10 12 14 16 17 19 18 17
11 10 7 3 2 7 6 10 5 15 19 23 28 31 34 33 39 40 38 34 29 27 27 22 22 21 22 20 17 16 13 14 12 13 14 13 13 12 9 10 11 13 17 19 20 20 20 20 18
13 11 7 6 2 7 10 5 3 18 15 24 27 27 30 33 38 38 39 33 29 27 27 22 24 23 23 21 20 19 15 12 10 10 12 14 14 11 8 7 9 11 12 13 15 18 20 18 15
13 9 4 8 4 3 8 14 13 18 14 20 22 24 27 33 38 38 39 32 29 26 28 23 25 22 22 22 20 18 14 11 11 15 18 18 18 17 17 17 16 12 9 7 8 9 3 12 13
12 7 3 3 8 4 11 12 7 12 12 19 22 23 25 30 36 38 38 32 28 25 28 25 24 22 21 24 27 26 28 28 28 26 27 27 22 22 28 33 34 31 26 18 17 19 15 6 3
17 10 7 3 1 1 8 10 3 6 17 18 24 20 23 29 35 38 37 32 27 26 28 25 25 24 22 27 28 30 30 31 30 34 29 29 30 34 36 36 37 43 42 32 25 22 18 13 5
20 14 10 2 1 3 2 6 2 11 17 15 26 15 23 30 36 37 37 32 27 27 27 24 25 25 23 22 23 23 26 31 34 31 31 32 34 32 33 36 38 41 44 47 41 26 18 13 9
23 17 10 4 6 7 7 3 4 11 13 21 28 15 21 30 34 37 35 32 26 25 26 23 24 27 24 21 16 19 26 30 29 27 30 31 33 34 33 33 36 39 37 41 46 44 35 25 22
24 20 18 16 8 8 8 8 7 12 9 21 26 15 21 27 32 36 33 31 25 24 23 22 25 27 28 27 22 21 23 20 20 23 26 26 29 32 30 31 33 35 34 38 39 39 42 41 32
27 25 29 13 12 12 2 3 10 11 14 26 20 16 22 24 31 34 35 31 23 21 20 22 25 27 31 32 33 28 27 21 19 24 24 26 28 27 31 33 35 35 35 29 26 29 32 36 39
31 30 30 22 15 13 12 7 12 13 21 20 18 17 22 22 29 33 34 29 21 17 18 18 23 28 29 30 31 31 27 26 25 24 26 24 26 29 31 31 33 35 35 35 33 26 28 32 32
36 32 34 29 26 18 19 18 12 22 17 16 15 13 21 23 23 32 31 26 21 15 15 14 18 25 29 28 28 25 21 22 21 21 24 26 27 27 30 30 32 33 36 37 34 31 28 23 26
40 38 36 35 31 29 24 22 18 22 17 12 14 14 25 20 20 26 28 24 22 12 11 10 11 16 21 25 24 26 25 25 24 27 27 27 28 27 28 30 31 33 35 36 35 35 30 25 23
44 41 41 41 39 32 24 18 16 21 11 13 14 15 17 11 21 24 25 24 20 10 8 8 8 8 14 17 18 23 24 22 22 22 24 24 25 25 28 29 30 33 35 35 35 34 32 28 24
46 47 45 44 44 39 32 20 25 21 23 18 20 16 10 9 20 22 24 21 15 10 4 7 5 9 11 15 16 18 20 22 22 21 22 22 24 24 27 30 30 32 33 34 34 35 34 33 28
51 50 47 48 44 39 40 34 32 22 16 21 17 17 10 10 12 17 20 16 12 10 0 6 7 8 11 12 15 13 18 19 19 19 20 19 22 26 25 27 29 31 33 33 32 32 32 33 32
56 53 49 48 46 42 37 36 40 33 24 31 21 24 15 15 12 15 17 14 12 11 5 7 10 10 10 9 14 14 13 17 19 19 18 18 20 22 25 26 27 30 31 31 32 31 33 32 32
60 56 53 52 48 46 43 39 39 34 29 31 27 25 27 21 16 18 17 19 11 12 8 7 13 12 9 10 11 13 11 14 12 18 18 16 14 16 22 25 26 28 30 30 32 33 32 32 33
64 62 59 55 51 50 47 46 45 44 41 39 36 32 28 23 20 21 19 20 11 12 11 10 13 14 13 12 11 13 7 10 7 13 10 14 11 12 20 22 25 25 28 32 31 32 32 31 32
67 68 65 61 56 53 51 49 48 46 48 44 41 39 35 28 20 18 16 14 11 13 12 12 14 16 15 15 13 11 8 9 8 6 8 8 9 11 16 19 20 23 23 29 31 28 30 30 28
68 72 70 65 60 58 55 55 53 51 48 45 42 42 38 29 29 25 19 16 13 11 15 13 16 17 17 15 14 12 11 10 12 10 7 8 7 10 12 16 16 18 20 23 28 29 25 29 30
66 71 72 69 65 62 59 58 57 53 53 50 47 44 41 36 29 28 22 17 18 14 13 17 17 21 19 18 17 16 12 11 10 9 8 9 7 9 10 12 14 15 17 20 23 28 28 26 28
73 71 69 63 65 64 61 60 61 60 59 57 52 47 44 40 35 29 22 25 21 23 16 15 18 23 23 21 20 17 17 13 10 9 10 9 7 8 8 8 11 12 13 16 18 22 27 28 27
74 73 72 66 61 61 62 61 62 67 67 64 57 52 47 44 39 37 32 27 25 19 21 13 16 24 26 22 23 20 17 14 13 10 9 7 6 5 6 3 7 6 9 13 14 16 20 25 28
76 75 75 72 66 64 62 62 66 71 66 63 59 52 50 46 45 39 35 27 25 18 23 13 15 26 28 25 24 22 21 19 16 14 11 8 7 6 4 3 4 3 4 7 10 12 14 19 23
79 77 75 73 70 69 68 66 70 68 65 64 59 60 56 50 48 45 38 34 27 24 25 18 16 23 31 28 26 25 25 22 19 17 13 10 9 7 5 3 3 2 2 4 6 10 12 13 17
82 80 78 76 74 72 73 73 74 70 64 61 57 58 58 55 53 49 42 38 30 26 28 24 19 19 30 31 29 27 26 26 23 21 18 15 12 9 7 4 2 1 2 2 3 5 8 10 12
86 83 82 80 79 77 78 80 73 72 66 60 56 56 56 58 54 53 47 38 34 30 32 29 26 23 24 34 32 29 29 26 26 26 23 19 16 13 10 6 4 4 5 3 2 2 3 6 9
88 86 85 84 85 84 84 81 74 71 68 63 60 57 54 52 54 56 52 46 41 32 37 34 30 25 26 30 35 34 33 32 30 28 27 25 21 17 14 11 11 12 11 9 5 4 4 3 6
94 91 88 88 88 89 87 86 79 74 70 69 65 64 60 54 52 55 54 47 47 44 40 38 33 29 26 26 28 32 33 34 35 33 32 31 27 25 22 19 18 18 16 14 12 10 7 6 5

GFSSGP_250_spd_078.txt.gz
Wind_Speed
8 5 5 9 14 12 1 3 7 14 22 25 26 28 32 37 40 39 34 30 29 28 24 25 21 22 20 20 18 18 17 19 18 15 15 15 14 11 9 9 9 11 13 14 15 16 15 16 15
10 7 6 11 12 4 4 10 9 15 24 23 29 30 33 36 40 40 32 30 29 28 27 26 22 24 22 19 19 16 16 18 17 16 18 18 17 17 18 16 13 12 14 16 17 19 18 19 18
12 10 8 7 10 12 9 7 8 17 22 24 29 30 32 38 41 41 34 31 29 27 28 24 24 25 23 21 19 17 17 19 22 21 21 23 25 25 23 21 18 13 10 8 9 10 14 17 13
15 10 8 6 4 9 4 13 13 13 20 27 25 26 31 39 42 41 37 34 29 28 29 24 24 25 29 28 27 28 26 26 24 23 27 31 32 34 36 32 26 23 19 15 16 15 10 6 7
16 8 4 3 8 4 7 3 9 12 22 25 24 22 33 39 42 40 39 35 29 29 29 25 22 26 29 28 31 33 31 31 29 31 34 34 33 33 37 43 39 32 25 21 22 20 18 13 6
15 8 3 7 4 2 3 4 5 9 17 19 22 22 29 37 41 40 42 35 29 28 28 24 22 24 27 26 28 29 32 31 33 34 30 30 34 36 34 36 40 44 44 33 24 20 18 14 7
18 13 5 3 4 2 2 1 7 12 14 21 20 27 29 32 41 42 42 34 28 28 27 24 21 20 22 23 24 27 28 31 32 32 31 32 32 32 35 31 33 37 41 44 40 29 22 19 13
24 17 9 9 5 10 6 7 11 14 13 15 19 25 30 31 37 45 40 35 28 27 26 27 22 19 19 20 24 23 26 27 27 30 32 30 31 33 31 29 25 29 33 36 40 39 32 27 23
27 21 15 10 13 9 7 5 11 17 18 14 15 25 27 29 34 40 42 38 27 24 26 28 27 25 25 26 23 22 21 25 27 28 27 30 30 30 30 35 34 26 26 31 34 37 39 34 27
29 24 19 20 17 13 7 11 24 11 15 9 12 23 24 33 30 34 40 36 27 19 23 27 25 28 29 30 28 26 25 26 26 27 28 30 30 31 35 38 35 33 26 26 30 33 36 37 37
31 29 23 25 18 16 16 12 14 10 20 12 17 12 19 28 28 30 34 34 29 17 17 23 23 26 27 27 25 25 24 24 27 27 28 29 32 33 34 39 37 35 33 28 24 28 31 34 35
34 31 29 33 19 22 22 18 11 13 15 16 17 10 15 26 24 29 32 32 28 18 11 14 19 21 25 24 24 23 24 22 24 27 28 29 31 32 34 37 38 36 34 31 28 24 26 25 29
39 38 35 38 30 26 25 19 10 15 8 15 13 11 15 18 21 28 31 28 25 19 9 12 14 18 20 23 22 22 24 26 26 25 29 29 30 30 33 37 38 35 35 35 32 26 22 23 24
45 43 41 39 39 32 24 18 18 20 18 21 12 15 16 15 15 21 26 27 22 19 10 8 11 12 15 17 19 20 20 22 23 25 25 27 29 30 34 35 37 36 34 35 34 30 24 21 21
49 47 44 41 42 38 31 25 24 23 21 20 15 18 16 13 13 15 19 27 21 19 13 5 7 8 9 10 15 19 18 20 21 22 22 26 29 30 33 34 35 36 35 37 35 35 32 26 22
52 51 48 44 42 41 37 32 21 25 28 17 19 15 13 10 9 14 20 20 25 20 14 4 2 5 8 8 11 14 13 17 18 19 19 23 28 28 29 33 33 34 35 36 36 36 35 33 28
57 53 51 46 42 43 43 39 33 28 29 21 20 18 16 17 16 19 18 21 24 18 15 8 2 3 2 6 6 12 10 11 16 17 16 19 21 26 26 30 32 31 34 35 34 36 36 35 34
62 58 54 50 46 45 45 43 42 40 37 22 23 23 19 17 24 21 18 21 21 15 14 11 5 6 3 2 5 8 8 9 13 14 15 15 19 20 24 25 29 31 29 31 33 34 34 35 37
67 61 56 51 50 47 46 42 41 40 43 35 30 34 29 22 23 18 16 16 17 16 13 11 6 9 7 6 5 4 4 3 7 7 12 13 14 16 20 22 25 29 29 27 31 34 34 34 35
70 65 61 56 52 51 49 47 47 44 42 42 41 36 33 28 28 23 15 16 16 17 13 10 8 11 11 9 8 6 4 3 2 5 4 9 10 12 16 17 20 24 28 27 27 31 34 34 34
73 72 66 60 57 55 54 52 50 48 48 47 45 42 41 36 31 28 19 22 16 15 18 11 10 11 15 11 9 9 6 4 4 8 3 3 7 9 13 15 19 21 25 28 28 28 31 33 34
77 77 70 64 61 60 59 57 55 54 53 52 50 48 41 35 30 26 23 20 22 16 16 19 11 11 14 15 15 12 8 7 6 5 3 3 1 4 9 12 16 19 19 22 26 30 29 30 32
78 76 74 70 66 64 63 63 63 63 58 55 52 48 44 38 31 28 25 22 20 19 17 20 18 11 14 17 16 15 12 10 7 6 6 5 4 2 2 8 10 14 16 16 20 25 28 30 29
75 74 72 71 70 68 65 68 73 65 59 56 54 51 47 41 35 33 32 28 23 22 20 16 19 14 13 20 18 17 15 12 10 7 8 5 6 3 2 3 5 8 12 14 14 18 23 26 29
79 78 74 72 69 68 70 72 71 67 64 60 57 55 50 45 41 38 37 32 31 28 21 18 17 18 13 19 20 19 18 16 13 10 11 6 7 4 2 2 4 7 6 10 11 13 17 20 22
82 81 79 76 73 71 70 68 67 69 66 62 59 58 55 50 45 41 40 36 31 33 29 23 22 21 18 17 22 21 21 19 17 15 14 10 8 7 2 0 3 7 8 7 8 10 13 14 17
82 82 82 80 77 75 73 68 67 66 66 65 62 61 57 53 50 46 44 41 35 32 31 27 25 24 24 19 25 24 23 22 21 19 16 13 12 10 6 1 3 5 7 8 7 8 9 11 12
85 84 84 83 80 78 74 72 68 67 64 62 61 60 59 57 55 52 48 45 41 34 33 30 26 26 26 25 24 28 26 24 24 23 20 18 17 13 12 6 3 4 7 9 9 9 7 7 9
89 87 85 84 82 79 76 74 71 69 67 64 62 61 58 56 57 56 53 47 47 39 39 36 31 28 27 26 25 28 29 29 27 26 25 23 19 17 16 13 9 8 10 12 12 12 10 8 7
92 90 89 87 84 81 79 77 73 72 70 69 68 66 62 58 55 53 54 49 48 46 42 38 33 29 30 26 23 25 27 30 31 31 28 27 24 22 21 19 16 16 15 14 14 13 12 10 9

GFSSGP_250_spd_081.txt.gz
Wind_Speed
8 7 11 9 8 2 4 8 11 15 23 27 28 34 39 45 42 34 29 28 26 24 25 21 19 18 18 17 18 17 16 15 15 16 19 23 21 16 11 8 6 7 8 9 10 11 10 8 7
9 7 15 11 2 4 2 2 9 18 22 28 27 36 42 46 44 36 33 29 29 25 27 24 25 23 19 18 17 16 18 19 19 24 30 32 31 28 22 19 14 8 6 5 4 10 12 10 10
11 9 12 12 10 6 3 6 11 15 26 28 27 33 39 47 45 40 36 30 31 26 28 27 31 32 28 23 21 20 23 26 29 31 30 35 38 37 31 24 22 19 14 10 7 2 3 7 3
13 9 8 9 11 9 2 5 11 9 27 27 28 33 35 43 48 44 38 33 31 25 26 27 32 36 34 32 29 27 29 32 30 33 34 35 35 39 42 40 27 20 19 18 22 26 19 9 6
17 10 8 8 8 4 4 6 7 10 24 25 26 32 36 43 50 45 38 33 32 26 24 24 30 32 32 31 33 32 33 29 30 33 34 33 35 35 36 38 40 33 26 24 22 25 20 14 14
18 13 7 12 5 0 4 3 5 11 19 21 22 31 37 40 47 44 39 32 32 28 22 20 25 29 30 30 30 30 30 29 30 29 29 31 32 27 26 30 33 39 35 29 23 18 14 12 8
22 13 8 7 7 3 3 8 7 12 15 16 19 31 33 41 41 43 41 31 30 31 24 19 22 27 26 28 27 28 27 28 28 28 30 29 30 26 23 24 28 36 40 38 30 24 19 14 10
24 18 11 8 11 8 7 3 4 7 15 23 15 24 29 34 40 41 39 32 28 34 28 22 23 24 24 24 25 25 25 24 26 27 28 31 32 29 28 25 23 29 36 37 35 30 26 26 19
27 21 14 12 14 11 5 7 5 5 15 12 15 23 24 32 36 41 37 34 24 29 28 23 26 27 23 23 20 22 22 25 26 27 29 32 33 30 28 26 21 27 32 36 37 37 34 28 23
30 27 19 16 11 14 7 8 14 10 12 4 12 15 21 29 34 39 36 33 25 24 28 23 22 24 25 22 25 26 24 23 27 28 29 32 35 33 32 30 27 20 26 32 33 36 35 32 27
33 31 24 22 21 15 14 14 13 15 6 11 11 11 15 25 29 32 35 31 28 21 23 23 21 22 23 23 25 25 27 26 27 29 29 32 36 36 33 32 31 26 23 26 27 29 32 36 36
37 35 27 23 25 18 18 16 8 11 12 16 7 7 14 21 25 28 31 29 27 22 20 20 18 19 23 25 24 24 27 26 27 31 31 33 34 37 36 33 32 32 25 21 22 24 27 33 32
43 39 32 29 27 23 21 17 16 13 11 14 5 8 11 17 21 25 24 28 27 23 17 16 16 16 19 20 21 23 25 24 25 28 31 32 34 35 37 35 34 35 33 26 20 20 23 25 31
48 43 37 35 33 24 22 24 17 19 12 12 12 11 12 17 21 17 23 27 28 23 18 12 14 12 15 17 19 20 22 24 24 27 28 30 34 34 34 35 35 35 34 33 26 19 18 20 21
52 48 41 37 38 32 28 26 24 24 17 14 17 15 15 15 13 14 20 26 26 22 18 11 12 12 12 14 16 18 19 18 21 24 27 27 32 36 31 32 35 36 35 35 33 27 20 16 16
55 51 46 43 41 38 35 31 28 27 24 29 24 12 12 10 6 11 20 22 25 19 17 12 8 10 8 8 11 13 16 15 17 20 23 25 28 33 33 31 33 35 34 35 35 34 28 19 15
59 55 52 47 43 42 43 39 35 29 22 24 19 12 14 11 13 15 17 19 23 18 16 13 6 4 7 7 6 10 15 12 14 18 19 21 23 27 31 32 30 33 35 35 35 35 35 33 25
62 59 55 51 47 45 44 46 40 32 28 31 26 15 14 14 11 12 14 15 17 21 16 14 7 2 2 4 5 5 10 12 14 17 16 18 19 23 27 31 31 29 31 34 35 35 36 35 34
66 62 58 54 50 48 46 45 47 42 36 33 34 29 22 22 21 14 12 12 13 18 17 15 11 4 5 1 2 2 5 5 8 12 15 16 18 19 24 26 29 28 29 30 33 35 35 36 37
69 66 60 55 54 51 49 48 48 49 47 44 38 36 33 28 25 23 20 16 14 12 15 15 15 7 6 7 4 3 5 5 4 8 10 13 15 18 20 22 24 28 30 29 30 32 34 37 38
77 72 65 60 57 55 53 51 49 50 50 49 45 34 35 33 28 26 21 23 13 13 11 13 13 14 4 9 10 6 4 4 5 5 7 9 10 16 17 19 20 23 27 30 29 30 32 35 38
78 78 71 66 63 59 57 55 53 51 51 51 49 45 41 36 31 30 25 23 19 14 15 13 12 13 7 9 12 12 5 4 4 4 5 6 8 9 10 16 17 20 23 26 28 30 31 32 35
79 77 73 70 68 65 62 59 57 54 49 48 47 44 42 39 36 33 27 24 22 16 17 15 13 12 9 10 12 13 10 5 5 5 4 6 4 4 7 10 12 16 19 21 24 26 29 32 32
71 74 74 72 71 70 67 65 61 56 53 53 51 48 47 44 41 35 30 29 25 20 20 17 15 12 11 12 15 13 12 9 7 6 4 7 3 3 5 6 9 11 14 18 20 22 23 26 29
75 72 71 73 72 71 71 69 65 61 59 57 55 52 50 48 44 41 36 32 28 24 23 25 20 16 12 11 18 17 15 13 10 8 6 6 7 2 3 3 7 11 10 14 15 17 19 21 24
81 78 74 70 71 70 70 69 68 65 63 61 59 58 55 52 47 44 41 36 32 31 29 26 23 22 19 17 17 21 17 15 13 12 9 7 9 8 3 4 6 9 10 12 12 14 14 16 18
84 82 79 74 73 73 70 69 71 70 67 64 62 61 59 56 52 48 46 42 38 35 32 28 25 22 22 20 19 22 23 19 17 16 12 11 12 10 5 2 4 7 8 10 10 10 11 12 14
83 85 84 80 77 73 70 69 67 69 68 67 65 63 62 60 57 53 49 44 42 40 36 32 30 25 20 21 18 24 26 23 22 20 16 15 15 15 9 5 2 4 5 10 12 10 10 9 10
86 83 82 82 81 78 75 72 71 70 68 66 65 64 64 63 61 57 53 48 45 45 42 37 34 30 25 24 19 19 24 27 25 23 21 20 18 17 14 9 6 1 6 9 11 11 11 9 8
90 87 84 81 81 81 78 77 76 74 73 70 68 66 65 63 62 61 57 52 51 49 45 42 38 36 32 29 25 19 22 27 30 26 25 23 21 20 18 17 13 9 11 12 14 15 12 9 8

GFSSGP_250_spd_084.txt.gz
Wind_Speed
8 15 12 12 11 6 1 9 14 21 24 28 31 35 42 47 38 34 30 24 25 27 25 19 19 20 19 19 21 22 24 25 27 27 27 26 22 16 9 1 6 8 9 11 11 11 9 8 5
9 7 14 5 4 6 1 4 6 21 23 25 31 33 45 51 42 35 35 25 27 31 30 26 28 26 25 25 26 29 30 28 30 30 31 34 34 25 16 14 11 6 4 6 13 15 13 10 7
9 12 15 7 4 6 3 6 4 20 23 23 31 36 45 49 45 36 37 30 25 29 31 31 32 28 28 28 31 34 32 31 28 28 28 32 35 35 23 17 16 14 12 10 10 11 14 12 10
13 10 14 11 6 9 4 2 6 12 20 20 29 37 43 46 48 36 37 34 23 27 28 28 31 33 33 33 32 30 29 27 27 25 25 24 27 30 33 21 18 20 19 30 28 24 22 15 10
15 12 11 10 8 4 3 7 12 9 14 17 31 33 38 49 49 38 35 40 25 22 25 28 30 31 33 31 30 28 26 25 25 27 27 24 22 26 32 32 24 20 18 18 21 19 22 24 18
17 13 13 10 10 3 3 4 9 12 18 13 29 26 36 43 48 42 33 38 31 24 25 27 28 29 29 30 28 24 25 27 27 30 28 27 25 23 26 30 31 25 22 18 17 14 13 14 14
21 17 19 12 9 4 5 5 4 10 19 20 26 23 36 39 46 43 36 35 33 25 27 25 27 27 25 27 25 25 27 28 30 30 28 28 27 25 24 27 31 30 26 24 18 10 9 12 14
25 19 21 13 12 10 8 4 1 4 17 13 18 24 28 37 40 44 37 32 34 26 26 25 25 25 24 21 24 28 29 30 29 32 30 30 28 26 23 24 29 33 32 27 24 18 14 11 10
31 24 17 12 17 15 11 7 10 5 12 3 17 17 23 33 38 39 35 30 30 29 24 24 26 25 23 24 26 28 30 31 31 33 33 28 29 27 24 18 22 28 31 27 23 19 18 16 15
34 29 23 18 19 16 13 8 9 17 4 3 13 13 22 28 33 36 35 29 27 28 26 24 25 26 25 28 26 27 30 33 32 33 35 30 30 31 28 24 17 23 28 31 29 25 20 19 17
38 34 26 23 20 19 12 9 3 15 6 6 8 15 17 25 29 34 34 29 25 25 23 22 25 25 26 28 27 28 31 32 33 34 34 34 31 31 30 27 21 17 23 26 28 28 28 26 19
40 37 32 27 24 22 16 17 5 15 15 8 12 7 14 21 27 28 32 29 25 21 21 20 23 22 24 26 26 27 29 30 32 36 35 36 36 33 31 30 28 19 16 19 23 24 27 28 29
45 42 36 31 27 25 22 18 15 15 14 7 17 6 9 17 21 19 24 30 24 19 18 17 20 21 21 23 25 26 28 30 31 34 37 33 35 36 35 33 29 27 20 16 18 24 25 31 34
50 46 40 35 30 27 25 22 20 16 11 14 19 13 13 12 11 17 25 28 23 20 15 15 16 19 20 22 23 21 24 28 30 32 35 35 34 34 35 35 33 30 26 21 16 15 17 23 24
55 51 46 40 33 30 28 23 20 14 11 16 21 21 13 8 4 9 23 25 24 20 15 13 13 14 16 18 19 19 20 23 27 29 31 33 35 32 33 34 35 34 33 30 23 16 12 14 20
60 54 50 44 38 33 33 27 27 22 20 20 12 17 19 7 8 9 16 19 24 22 18 11 10 10 10 13 16 19 20 21 25 27 27 30 32 34 31 32 34 36 36 34 32 27 17 11 12
63 57 53 46 43 38 38 34 33 29 29 22 22 22 19 8 5 9 9 14 20 20 20 15 8 8 8 9 10 15 16 19 21 24 26 25 29 32 32 31 32 34 35 36 36 34 28 19 10
66 61 57 50 47 43 44 43 40 35 33 27 21 22 16 11 8 7 7 9 14 18 18 18 14 7 7 8 7 8 10 14 17 20 23 23 24 28 30 30 31 32 33 36 36 37 36 28 22
67 64 60 54 51 48 46 46 44 43 39 34 27 25 19 18 14 12 12 13 14 11 15 15 16 12 6 4 3 5 8 11 11 15 17 20 21 25 26 28 31 30 31 33 36 36 38 36 34
71 68 64 59 54 52 48 47 46 44 38 32 29 32 26 25 24 19 16 16 18 12 9 12 12 14 10 4 2 3 6 9 9 10 14 14 16 21 23 25 27 29 31 32 33 35 37 38 38
76 72 67 61 57 55 52 49 48 47 45 38 20 26 32 31 27 25 25 19 16 14 11 10 11 11 10 9 3 2 3 6 7 9 10 9 12 13 19 21 22 25 28 30 32 33 35 36 37
81 76 70 65 61 58 55 51 49 47 48 46 44 38 26 32 34 31 25 20 20 17 12 12 10 12 11 9 8 3 2 3 4 7 8 7 9 11 14 17 20 20 23 26 28 31 32 32 35
81 78 76 71 68 64 61 56 54 50 46 45 47 50 44 42 41 34 31 26 24 20 17 11 9 14 15 10 10 7 4 1 2 4 7 8 8 6 9 12 11 15 19 21 24 27 29 30 30
77 77 77 75 74 71 66 60 56 53 49 49 50 51 51 48 42 36 33 33 28 23 20 15 11 15 14 9 11 10 8 6 2 1 3 7 10 10 6 8 10 12 15 17 20 23 25 26 28
71 73 76 75 74 76 72 68 62 58 55 55 52 50 50 49 46 42 39 40 36 28 24 19 14 13 15 13 10 12 12 10 8 6 3 3 7 11 7 5 5 8 13 14 15 18 19 21 24
75 73 73 72 73 74 74 70 67 64 62 59 57 55 53 50 49 48 46 44 40 34 29 24 21 17 16 15 11 11 14 15 13 11 8 3 1 4 9 5 6 9 11 11 12 13 15 16 17
80 76 74 70 74 76 78 70 72 69 66 64 61 60 58 55 53 52 51 47 44 38 33 29 24 24 22 17 14 11 14 18 17 17 14 9 5 1 4 3 4 7 10 12 10 10 10 11 13
85 84 78 77 75 74 72 73 70 70 69 68 67 65 63 62 59 58 54 52 48 43 39 34 32 29 26 23 20 14 15 19 21 22 17 14 10 6 2 0 1 2 6 10 11 10 8 6 8
89 88 85 82 77 77 72 74 71 72 71 71 69 69 68 65 64 62 60 57 52 47 44 39 39 34 32 29 24 18 14 17 23 24 22 18 15 10 7 5 5 4 3 6 9 12 10 7 5
90 89 89 86 83 83 78 72 75 73 72 72 71 69 68 67 66 64 62 61 55 50 49 46 43 39 36 34 30 25 20 19 21 26 25 23 19 16 13 10 9 9 9 7 7 10 10 8 4

GFSSGP_250_spd_087.txt.gz
Wind_Speed
5 11 13 8 11 5 9 11 15 23 24 32 36 43 50 41 36 29 22 27 29 25 23 18 18 19 20 21 23 20 21 22 24 27 28 23 11 8 4 9 12 13 12 12 15 17 17 18 16
8 10 10 5 9 7 5 10 8 19 21 28 34 41 50 45 37 36 22 25 29 28 28 26 25 24 28 25 24 23 23 24 23 26 27 30 23 13 12 8 7 9 14 18 18 18 17 13 11
8 20 8 3 5 4 5 7 10 14 22 23 34 39 47 53 39 39 24 23 22 24 25 27 26 27 26 25 25 26 26 24 23 22 23 27 28 16 14 12 9 5 11 15 20 19 15 13 13
7 16 13 2 3 5 4 9 9 11 14 17 32 39 43 50 47 37 29 20 21 22 25 28 28 27 28 29 29 28 28 25 25 25 23 23 27 24 15 14 13 13 9 15 16 21 18 16 12
14 12 13 8 7 3 5 7 9 15 25 18 27 34 38 46 45 34 31 24 21 21 24 26 29 30 29 29 28 29 28 28 27 26 23 19 23 25 21 15 16 15 16 20 23 25 22 19 13
18 15 11 12 8 5 2 3 9 15 22 14 25 33 34 41 46 32 31 26 22 20 23 25 28 27 27 28 28 28 30 30 28 27 24 22 22 25 24 19 16 15 16 18 16 15 12 11 9
20 17 14 12 11 8 5 5 8 9 16 9 18 32 29 39 42 32 30 28 25 22 24 24 27 27 28 29 29 28 31 31 28 28 28 26 23 24 26 24 19 16 14 9 13 9 9 9 9
23 19 19 18 14 8 7 4 2 7 12 6 20 19 25 35 39 35 28 29 26 24 25 23 25 28 29 32 30 29 33 34 31 29 30 28 25 21 23 25 22 18 18 16 14 6 5 3 6
27 24 22 18 19 15 12 7 7 19 10 14 15 18 25 30 36 37 28 27 26 25 24 25 25 29 31 31 31 36 35 34 35 30 28 29 28 24 21 23 25 20 13 16 19 16 12 8 7
33 29 27 16 23 20 17 12 10 12 8 12 16 19 26 27 31 33 31 23 23 25 26 24 25 29 31 31 33 36 38 35 35 35 33 29 29 28 23 19 22 23 24 25 21 23 26 5 6
38 33 29 23 25 24 19 15 8 15 15 11 13 18 14 25 32 26 32 24 20 21 24 22 22 26 31 33 34 36 37 39 35 37 36 33 32 30 27 20 15 16 19 23 23 23 16 1 4
43 41 34 28 27 27 20 12 6 8 14 12 11 4 16 23 27 26 30 25 20 18 21 24 23 23 27 30 32 34 35 37 39 36 36 35 33 32 30 26 21 18 17 20 22 21 21 17 13
47 46 40 34 31 25 23 17 25 13 17 16 13 22 12 19 17 27 29 28 23 17 19 21 23 23 24 27 28 30 32 35 36 38 35 35 35 35 34 31 25 21 17 18 22 24 27 27 28
50 48 44 39 34 31 27 23 24 19 16 14 9 19 11 14 16 14 24 27 24 19 15 16 18 22 21 25 26 28 31 32 34 35 37 34 35 35 35 35 32 28 21 16 13 16 18 21 24
57 53 49 44 38 33 28 26 22 21 20 12 16 15 15 11 12 11 17 23 24 22 16 15 14 16 18 19 23 24 28 30 31 31 34 35 34 34 34 34 35 33 29 20 13 11 12 14 18
61 57 53 47 42 38 31 27 26 25 20 13 23 26 22 14 8 9 11 18 23 22 22 15 15 13 14 14 19 21 24 26 30 29 31 33 34 33 33 33 35 35 35 30 20 12 10 10 11
64 61 55 48 44 41 35 32 27 29 21 25 20 9 12 13 9 4 7 12 21 19 22 21 13 13 10 10 14 16 20 21 24 27 27 29 32 33 31 32 34 35 37 36 31 21 13 10 12
70 65 60 55 50 46 42 39 35 28 28 28 28 15 16 16 11 5 7 10 16 16 18 19 18 10 10 10 10 13 16 15 21 22 25 27 29 30 31 31 32 33 36 38 37 33 27 16 14
73 68 65 57 56 52 50 44 39 37 35 30 33 21 17 17 11 9 11 11 14 17 12 17 17 14 9 10 10 10 14 13 16 18 21 23 25 25 27 29 32 33 34 35 38 37 38 35 22
72 71 68 61 61 56 53 49 43 41 35 32 35 31 26 22 18 16 14 15 15 16 13 12 14 17 11 11 11 10 11 12 13 15 18 20 20 22 24 23 29 32 33 33 35 37 38 35 36
77 73 71 68 64 59 55 51 47 46 44 39 33 30 29 26 25 21 19 21 20 17 13 15 12 15 14 11 9 10 8 8 10 13 15 17 16 20 19 21 25 27 29 31 32 34 36 36 34
80 78 74 69 66 62 58 53 50 47 48 45 36 31 32 25 25 26 27 24 20 18 18 13 6 12 14 12 8 7 8 8 8 10 13 14 14 14 17 16 17 22 25 28 30 31 32 33 34
81 79 75 73 68 65 61 55 41 52 48 46 46 45 33 32 28 26 29 29 27 27 22 13 10 8 11 12 10 6 7 6 5 7 11 14 12 10 11 13 15 17 19 23 26 28 29 29 30
79 76 77 76 71 68 65 62 60 57 51 49 47 48 47 37 34 32 35 37 36 27 23 18 15 11 6 8 11 10 7 6 6 3 6 11 13 10 7 8 11 14 14 18 20 23 25 27 27
69 76 78 79 76 70 70 70 63 62 55 52 51 49 51 52 52 47 47 47 40 30 28 24 19 17 11 6 8 9 10 9 8 5 1 5 10 11 7 6 7 10 11 13 17 19 19 22 23
74 74 75 75 77 76 76 71 64 64 61 57 54 53 52 49 46 46 46 46 42 36 32 29 24 22 19 13 8 7 9 9 11 10 6 2 4 8 7 4 8 10 9 10 12 12 14 15 17
79 74 75 77 78 83 80 73 70 66 65 64 60 56 54 51 49 46 44 40 41 38 38 36 29 26 24 21 16 10 10 10 12 13 11 8 4 5 5 3 8 8 10 10 10 10 10 11 12
84 83 80 76 75 77 79 78 78 76 71 69 66 62 59 55 52 49 43 39 40 45 41 37 36 32 29 27 23 17 15 13 12 15 15 14 11 6 4 3 6 5 6 9 11 10 9 7 8
87 87 83 79 80 78 77 79 70 73 76 75 73 70 66 60 57 52 43 33 49 52 50 49 45 40 36 33 28 23 18 17 15 15 19 18 16 12 9 7 7 6 3 1 5 9 10 8 5
87 89 88 86 83 80 82 83 73 80 77 77 76 75 71 66 63 54 38 31 41 40 46 54 48 44 41 37 34 31 27 26 21 18 19 21 21 20 15 13 10 10 9 8 2 5 7 7 6

GFSSGP_250_spd_090.txt.gz
Wind_Speed
7 11 12 13 7 5 11 13 12 24 24 30 40 48 53 43 32 23 18 24 26 24 22 23 22 22 21 18 18 17 12 12 14 19 21 14 7 3 8 12 12 12 14 17 17 18 18 17 14
13 13 8 8 11 7 10 14 15 19 21 31 38 44 51 43 37 22 20 21 23 23 25 25 24 23 21 20 20 20 19 18 17 18 25 23 13 12 6 5 11 13 13 14 15 15 16 15 14
7 11 8 4 6 4 9 11 16 25 30 27 36 48 47 46 37 27 24 22 23 26 25 24 24 24 25 24 25 24 26 25 23 21 24 26 16 12 10 8 4 9 15 17 16 17 16 17 17
5 13 16 3 6 5 7 11 19 25 20 26 37 43 44 47 35 30 29 22 21 26 26 26 25 26 25 26 27 28 29 29 28 24 23 27 22 12 14 12 13 8 10 12 19 18 18 16 16
12 16 16 7 5 1 3 7 15 21 22 17 32 35 43 46 34 31 30 25 22 24 27 27 27 26 26 28 31 31 31 32 32 29 25 28 29 18 15 14 18 20 12 12 16 19 17 17 16
19 21 4 17 14 6 4 5 20 15 20 12 27 30 35 43 40 31 30 28 26 26 28 30 31 29 29 29 33 34 31 32 32 32 28 25 28 26 19 14 19 19 15 10 12 15 15 15 15
22 21 16 21 14 9 6 4 7 12 15 13 21 27 41 41 40 28 27 27 26 26 26 30 32 34 36 32 33 35 33 33 32 31 31 24 26 28 24 22 22 19 15 10 6 5 5 11 8
26 22 17 21 13 9 7 5 6 7 12 16 19 26 33 35 37 32 25 26 24 27 29 30 31 32 35 36 32 35 35 34 33 34 31 28 22 26 26 22 20 19 20 16 9 3 2 1 3
27 25 19 19 18 15 12 11 8 14 14 7 17 29 30 30 33 33 24 22 23 25 28 29 32 34 35 38 39 34 37 37 37 35 33 27 20 22 25 29 29 30 24 20 19 16 10 1 6
31 27 25 22 25 22 18 13 7 14 10 14 11 20 24 27 31 33 28 20 23 21 23 27 30 34 35 35 38 40 37 38 37 36 35 33 27 22 24 25 25 30 30 26 14 12 9 7 2
39 32 28 30 25 26 23 17 10 8 7 18 13 16 16 26 25 32 29 24 21 22 21 23 27 31 33 34 36 38 40 39 38 38 38 34 33 26 29 28 25 30 33 27 20 14 11 9 4
42 37 34 30 31 30 26 21 12 7 15 19 9 10 22 21 25 26 29 28 20 19 21 22 24 28 30 32 33 36 37 41 39 39 37 35 35 30 19 26 14 21 15 15 18 18 14 12 8
47 44 37 36 35 32 27 20 12 11 12 22 11 11 17 17 21 20 27 28 25 21 18 20 21 25 26 30 33 33 35 37 40 39 38 34 34 32 32 26 23 18 18 17 16 11 17 25 25
51 46 43 39 37 33 31 22 21 17 17 14 8 7 15 14 16 15 22 28 27 25 21 19 17 20 23 26 30 31 33 33 36 38 38 36 35 34 36 29 18 9 9 10 7 3 11 15 21
59 45 52 43 37 35 34 27 22 22 18 17 14 18 20 19 13 12 14 25 26 28 24 22 19 18 20 23 27 28 29 31 34 35 38 36 33 33 32 33 30 20 8 10 5 6 4 14 20
63 56 53 50 40 37 37 30 26 24 21 19 19 16 23 25 15 8 12 18 22 26 29 26 21 21 19 22 23 26 27 27 31 33 35 36 34 35 36 35 33 31 28 13 3 11 6 10 15
66 60 55 51 48 42 38 31 29 26 21 22 14 22 10 5 6 7 9 14 20 21 24 29 26 21 21 20 21 22 22 24 26 29 33 34 33 34 35 34 35 34 33 27 15 9 9 7 9
69 65 58 51 44 46 43 37 31 29 27 26 25 18 13 12 13 11 8 14 15 21 20 25 28 25 19 19 19 19 18 20 23 25 29 31 30 30 32 33 33 35 34 34 32 19 11 10 8
73 70 64 57 43 48 47 43 38 32 29 28 29 31 26 14 10 9 11 12 14 18 20 23 25 27 22 16 18 17 18 20 22 22 25 28 28 28 24 30 33 32 33 34 35 36 25 12 7
76 71 67 60 60 44 50 43 44 38 32 33 30 26 27 20 18 16 14 14 14 17 17 23 21 22 23 19 15 16 14 18 19 20 21 22 24 25 24 28 30 31 32 32 34 35 34 31 25
75 72 67 67 64 51 52 32 44 45 40 39 38 29 28 27 28 24 19 22 17 17 16 20 21 17 19 21 20 11 13 13 15 14 17 17 19 21 21 23 25 27 29 31 31 31 31 32 30
73 81 73 67 69 66 56 62 49 47 43 40 38 30 32 32 30 26 24 22 24 20 17 19 20 17 15 18 19 15 9 13 12 12 15 15 15 18 18 20 19 24 25 27 28 29 29 30 29
69 80 80 76 70 71 68 56 54 48 47 45 43 43 33 31 30 26 22 28 22 19 20 22 18 18 15 13 16 17 10 4 8 11 14 13 14 13 14 16 17 18 22 24 25 26 27 27 26
72 78 79 79 74 71 69 67 61 43 42 53 51 50 41 37 33 24 26 30 22 21 22 25 22 19 17 14 11 14 15 9 7 8 9 10 10 11 9 10 12 14 17 19 21 22 23 25 26
74 70 74 78 75 71 72 69 66 51 42 39 60 57 50 43 32 30 29 34 30 29 29 32 27 22 17 16 12 11 12 13 8 2 7 5 7 8 8 7 9 10 12 14 15 19 20 20 21
75 72 68 73 75 74 75 75 63 58 36 25 48 57 44 48 55 43 32 33 34 35 36 34 31 26 21 17 15 15 13 13 12 7 7 4 4 5 6 6 10 9 10 11 11 13 15 16 17
76 74 68 74 78 81 85 71 64 62 72 42 44 47 47 34 33 37 39 39 39 37 34 33 33 29 25 21 18 17 18 15 15 11 9 6 4 3 4 0 4 8 9 11 11 9 9 12 14
80 79 79 75 81 84 85 77 76 74 76 79 63 53 53 58 51 43 36 39 39 37 39 41 39 36 27 23 21 20 20 18 16 14 13 11 4 4 6 8 6 3 3 7 9 9 8 8 9
86 83 82 82 79 80 83 83 82 73 84 79 76 70 64 57 53 48 29 38 28 36 29 30 25 28 36 32 28 24 23 22 22 20 20 17 10 11 13 10 13 8 4 2 4 6 8 5 4
93 91 92 88 79 82 81 86 81 81 89 82 80 77 69 59 58 54 52 44 33 43 37 35 32 35 49 42 37 29 25 26 26 26 25 25 16 16 16 16 15 14 14 9 3 1 4 5 4

GFSSGP_250_spd_093.txt.gz
Wind_Speed
5 12 12 12 10 12 14 19 30 31 23 36 41 51 47 40 32 25 26 25 24 24 25 24 23 20 17 17 15 15 10 8 8 14 13 6 2 4 16 16 13 19 22 19 20 17 17 17 18
14 9 8 9 12 10 15 21 23 22 25 36 43 47 52 41 35 30 26 28 25 22 23 25 23 23 22 23 24 23 20 15 12 17 17 8 9 9 4 10 13 13 14 18 18 16 16 16 14
16 11 12 12 4 2 15 19 21 22 24 29 41 49 52 42 34 32 28 30 26 26 25 25 27 28 29 27 27 28 25 22 18 21 24 13 10 10 11 7 3 12 12 10 13 13 13 13 16
13 5 11 13 10 8 3 12 21 25 27 25 36 45 49 43 33 32 32 32 32 32 30 28 28 29 31 29 27 28 28 25 20 22 26 18 13 14 16 15 11 6 12 15 11 13 15 17 14
19 9 10 19 5 3 8 8 11 20 21 25 38 36 44 42 31 30 30 30 31 33 35 34 31 29 32 32 30 29 28 27 24 21 25 25 22 17 17 21 20 15 10 11 16 15 15 14 15
16 25 12 8 10 2 7 9 14 9 19 21 27 37 42 42 34 27 29 30 30 30 34 36 35 32 34 35 34 33 32 29 29 27 26 31 27 25 24 23 20 18 14 9 12 15 13 11 12
24 23 12 11 9 4 9 8 4 7 17 17 26 30 37 43 41 27 25 29 32 32 34 37 39 39 36 38 38 37 37 35 36 29 27 30 32 29 25 22 19 19 17 15 12 9 8 10 12
24 14 19 20 15 11 12 8 7 9 13 19 22 26 37 36 42 32 27 24 30 32 33 36 38 40 42 39 38 38 39 40 38 32 25 28 31 33 34 30 22 18 20 18 16 10 5 5 9
29 24 22 13 21 22 13 11 4 13 13 16 18 22 31 38 36 33 26 23 26 29 32 35 36 38 40 41 39 39 37 38 37 33 29 25 25 28 31 31 28 25 20 20 14 10 8 3 5
30 27 23 27 25 18 17 12 7 8 9 7 16 20 27 32 32 36 29 26 24 24 29 31 34 35 37 38 40 39 39 39 38 34 29 31 28 27 32 31 28 22 20 17 15 18 15 11 2
30 25 26 31 32 27 19 15 10 6 14 6 9 11 23 27 28 36 34 27 24 22 25 29 32 34 35 35 37 38 39 39 38 35 29 27 25 26 29 24 17 17 17 20 26 22 10 8 4
17 36 35 35 31 30 23 19 15 10 10 7 6 13 20 28 19 28 36 33 27 23 23 26 27 30 32 32 34 35 38 39 38 35 32 35 30 28 25 19 18 16 19 19 18 25 30 18 9
28 27 32 38 34 29 26 24 23 11 9 14 9 19 13 18 20 23 26 35 31 27 25 23 25 27 29 31 31 33 35 38 38 35 33 38 36 25 20 15 11 12 13 15 22 24 22 27 26
57 39 36 35 35 31 29 29 18 12 13 10 7 4 15 16 19 22 24 28 31 32 27 26 24 24 25 26 27 31 34 37 36 36 37 37 37 34 25 19 9 10 4 8 10 14 22 21 26
58 52 44 39 36 32 32 28 24 20 13 14 14 4 10 9 21 16 20 25 31 32 36 26 25 25 25 24 27 27 28 34 36 33 35 38 40 38 32 25 22 17 9 6 6 8 12 20 23
58 56 52 48 40 36 35 31 23 23 18 14 15 10 5 8 9 14 17 21 27 28 34 33 24 24 25 25 23 26 26 29 31 31 29 36 39 37 38 32 26 23 16 8 4 2 8 14 19
61 63 56 49 42 37 36 36 29 28 23 16 14 7 7 2 7 10 12 19 23 26 30 33 30 22 23 23 23 23 25 27 27 31 32 30 29 33 36 37 36 32 32 13 9 6 8 11 14
66 66 60 52 43 40 37 39 35 30 24 19 17 15 11 2 6 9 10 12 16 23 25 31 30 28 20 22 22 22 22 23 25 28 28 26 31 31 34 36 36 38 36 32 21 15 13 11 13
74 68 65 56 48 31 37 45 42 33 29 26 22 22 22 11 8 6 7 10 12 20 23 25 27 26 25 18 19 20 27 22 20 22 23 26 28 30 33 33 34 36 35 35 34 27 18 13 10
73 71 68 63 45 28 26 42 43 38 33 28 26 28 24 26 21 10 13 14 14 19 23 23 26 23 24 19 16 16 18 20 20 15 19 24 24 24 28 28 30 31 33 32 33 30 27 26 22
68 73 68 66 58 58 41 39 51 48 43 34 29 30 23 22 19 20 18 18 15 16 17 17 22 21 20 19 16 11 14 17 18 16 14 17 19 21 21 24 26 27 31 32 32 29 28 27 27
66 72 76 70 69 68 55 28 41 50 39 40 34 31 28 25 21 20 18 18 13 11 14 15 20 21 18 18 17 13 11 12 13 17 16 12 14 17 18 19 21 24 27 28 27 28 28 28 27
69 69 77 78 75 74 62 34 41 44 44 41 40 38 37 28 26 25 26 21 15 12 11 15 20 23 19 18 16 14 12 10 9 11 12 15 12 10 12 15 17 20 22 25 25 25 26 26 26
78 72 74 81 81 71 69 66 45 33 27 34 42 41 41 35 31 30 29 23 19 16 16 14 20 22 23 17 15 14 11 11 8 8 9 14 14 8 10 11 11 14 17 19 20 20 22 23 25
78 75 70 77 82 75 79 72 69 50 42 41 34 31 38 38 36 34 31 26 24 19 20 20 21 21 22 19 16 13 10 10 14 10 5 9 10 10 10 8 9 11 13 13 14 16 17 18 20
78 78 71 69 79 81 82 80 75 65 60 51 39 38 43 43 43 40 35 30 18 23 23 25 27 28 23 21 18 16 12 10 11 13 8 4 6 7 7 6 7 9 10 10 10 10 13 15 16
85 78 76 74 79 87 91 77 77 76 71 57 47 38 38 37 51 47 33 34 29 29 26 27 30 29 25 22 19 16 14 14 11 9 9 9 7 8 6 6 5 4 8 11 11 7 7 9 11
84 78 80 76 74 86 88 82 77 76 74 68 61 52 47 37 40 47 49 45 42 31 32 32 26 29 30 27 20 19 16 17 15 11 9 13 13 9 12 6 5 9 5 10 9 8 6 8 8
86 84 78 78 79 81 80 83 79 76 72 68 66 69 51 48 45 39 32 23 19 28 27 25 19 22 16 31 22 21 27 20 20 16 13 11 13 15 17 10 13 15 16 13 10 8 11 11 9
91 90 88 84 83 85 80 83 81 74 77 72 69 62 58 54 52 47 38 35 43 26 28 24 14 19 29 20 23 26 29 17 19 19 18 15 14 15 17 19 17 15 16 15 16 11 13 15 15

GFSSGP_250_spd_096.txt.gz
Wind_Speed
8 9 15 12 18 10 22 22 23 33 34 43 49 54 40 38 33 31 26 23 21 21 21 23 21 18 18 16 14 11 7 6 8 9 4 5 0 8 18 25 23 19 26 23 19 17 15 18 19
9 9 13 14 11 6 21 21 26 32 29 45 48 54 44 38 32 34 34 28 24 24 25 27 26 23 22 21 19 17 14 14 18 16 8 9 10 10 5 9 16 13 16 20 16 13 13 13 13
9 6 11 16 10 5 8 13 23 28 29 38 42 49 51 33 32 32 33 34 32 28 26 28 29 26 25 25 24 23 17 17 22 21 14 13 13 13 10 3 7 12 10 11 15 14 12 13 12
16 9 12 14 10 1 7 10 19 21 29 32 41 47 49 37 31 31 33 34 34 34 31 31 33 32 31 30 27 24 20 18 25 24 18 14 15 18 17 16 5 9 10 8 10 13 13 12 11
16 10 11 11 7 4 9 10 11 13 25 30 40 39 47 43 29 31 32 33 35 36 35 33 34 36 36 35 33 29 24 23 26 26 27 24 21 19 20 20 18 12 9 9 8 9 11 12 11
20 20 14 14 3 4 8 11 14 14 17 32 35 37 47 45 31 25 29 31 33 36 36 36 35 35 34 34 36 34 30 25 26 29 27 25 22 22 22 21 20 20 15 6 6 8 11 12 12
27 19 15 11 7 6 14 9 9 8 13 27 27 43 43 45 33 25 26 29 30 33 35 36 36 35 36 35 36 34 33 31 27 29 33 32 30 25 22 23 27 25 22 18 10 5 5 8 12
15 23 25 23 17 7 11 7 11 3 10 25 22 34 35 42 38 31 23 26 28 30 31 34 36 35 34 35 35 36 35 32 32 28 27 28 32 29 30 29 28 28 23 16 9 9 5 8 10
19 17 10 14 18 12 10 6 2 6 12 14 19 30 31 34 38 39 28 23 24 28 30 30 32 34 35 35 35 38 38 34 27 25 24 25 27 28 23 26 25 24 27 17 9 5 2 4 8
26 20 19 14 17 17 11 6 8 7 6 7 10 21 25 26 31 36 34 26 23 25 27 28 30 32 34 35 34 35 37 36 29 26 20 23 20 25 24 22 23 21 21 20 18 10 7 4 5
35 23 18 20 22 21 20 13 10 5 3 7 9 20 23 22 25 33 37 29 25 24 24 25 28 31 33 34 36 37 38 35 34 29 25 21 18 17 16 17 17 19 20 24 28 25 13 8 6
39 25 22 24 26 25 19 13 12 8 4 3 5 13 22 19 27 33 32 40 29 24 23 25 26 29 32 32 34 34 36 36 33 32 33 23 27 19 15 17 17 17 17 21 28 28 25 13 12
42 34 12 29 28 29 27 24 16 11 4 7 7 12 16 16 24 28 31 33 38 28 24 23 25 28 28 29 31 32 34 35 37 35 36 31 32 25 20 13 10 11 15 17 21 27 25 22 15
47 40 33 33 31 33 32 28 22 16 12 9 7 7 11 12 16 22 25 31 35 36 24 24 25 29 28 25 27 27 30 28 33 36 36 38 31 29 25 23 19 13 9 14 17 22 26 31 21
49 43 41 37 32 38 32 25 25 18 18 15 11 4 10 6 11 17 21 27 30 35 34 25 24 26 26 26 23 24 28 31 29 29 34 35 37 34 33 31 18 15 12 14 15 16 26 33 31
61 45 53 36 36 36 34 33 28 25 21 16 14 10 5 2 6 11 16 21 27 31 34 28 21 22 23 24 24 27 26 26 28 31 31 33 36 37 36 37 32 21 16 15 16 17 23 25 25
62 62 50 32 30 39 32 32 30 26 26 18 14 13 8 2 4 6 10 14 20 24 28 27 25 20 22 23 26 23 22 25 27 28 29 31 33 36 37 38 37 34 25 19 17 18 20 20 21
71 70 66 42 40 38 36 36 34 29 28 23 16 15 11 8 4 3 9 10 14 20 24 24 24 22 19 18 20 24 21 21 23 23 25 28 33 34 35 36 37 33 34 29 21 18 16 15 16
71 70 67 61 49 42 43 40 39 36 30 27 22 17 13 13 6 7 2 8 15 17 18 21 20 21 20 17 16 18 19 19 20 20 24 20 25 30 32 33 33 32 33 34 28 26 24 17 10
72 70 68 65 60 42 36 50 39 39 37 31 26 23 23 24 12 15 17 13 13 15 15 14 19 20 20 19 15 14 13 17 19 18 17 20 22 25 28 30 31 31 33 31 27 27 28 28 21
75 69 72 68 68 59 36 34 41 44 42 38 34 28 28 26 24 16 14 14 12 7 12 12 15 18 19 18 16 11 12 14 17 17 16 17 19 22 24 25 28 29 29 29 28 29 30 29 29
75 72 76 72 71 68 62 49 42 41 47 43 36 34 32 30 26 19 14 13 13 5 8 9 10 19 19 16 16 14 11 11 12 14 15 16 16 19 19 22 23 26 26 26 27 29 28 30 28
77 80 77 79 74 71 60 42 43 36 41 47 44 37 34 31 30 25 17 20 17 12 7 8 11 15 20 18 13 15 13 10 10 10 13 16 15 14 16 17 19 20 23 24 23 25 26 29 28
84 79 81 78 79 73 66 48 43 36 37 44 50 43 39 33 35 30 23 24 19 13 10 10 14 14 18 20 15 12 13 14 13 10 9 12 12 12 13 14 17 18 18 19 20 21 22 24 25
83 80 78 81 82 78 78 75 57 40 41 40 50 48 44 43 37 32 33 27 22 18 13 13 15 18 18 21 15 12 10 11 14 13 10 9 10 11 11 11 12 16 17 18 17 18 19 20 21
81 80 78 72 80 88 84 82 78 50 47 42 43 51 49 47 43 41 36 31 26 21 20 12 17 18 23 22 19 12 11 10 9 11 10 10 8 10 9 10 9 12 16 19 21 16 15 17 17
84 80 78 78 78 87 87 82 75 59 55 48 46 50 47 48 47 43 39 36 29 25 26 19 20 23 24 27 26 17 12 11 10 10 11 12 11 10 3 7 7 9 11 16 16 18 18 17 17
90 82 81 82 79 83 90 86 79 74 60 52 50 48 48 42 40 40 38 37 37 32 33 30 24 25 26 24 21 21 16 12 13 11 14 12 12 13 14 11 11 9 11 14 14 15 16 17 19
91 86 85 82 83 84 85 91 82 84 72 60 59 52 53 43 37 36 38 39 37 33 31 31 35 24 28 24 21 23 20 20 16 12 13 17 14 12 15 18 14 13 13 11 13 14 15 15 17
95 92 89 87 86 87 82 85 87 86 85 83 76 67 59 51 38 35 29 35 33 31 31 29 28 22 21 25 14 18 28 19 26 21 11 15 19 16 13 17 19 18 13 12 15 15 15 14 13

GFSSGP_250_spd_099.txt.gz
Wind_Speed
11 15 15 16 9 14 21 26 31 35 43 46 43 38 35 33 34 34 29 23 23 26 27 24 20 18 18 17 13 7 7 7 7 7 4 3 3 6 15 22 27 27 25 26 31 32 29 26 25
10 13 15 13 12 14 14 21 27 31 40 42 45 41 32 32 32 34 33 29 27 27 28 28 27 25 21 20 20 15 13 14 12 10 7 8 9 7 5 7 14 17 16 16 18 17 15 14 14
10 12 17 14 8 3 12 16 22 32 38 41 48 44 33 31 31 34 33 33 31 29 30 30 30 29 28 24 23 20 19 20 15 12 15 14 14 11 8 2 7 9 7 5 10 11 10 9 9
15 15 12 10 2 2 10 17 19 27 30 36 51 48 36 28 31 32 33 33 34 30 29 28 29 32 32 31 26 24 24 24 23 20 18 17 16 17 16 13 7 7 5 2 2 7 9 7 6
11 11 15 5 4 5 12 17 14 23 29 36 42 45 42 31 30 30 31 32 34 32 31 32 31 34 35 35 30 25 27 26 25 24 21 19 19 20 21 20 18 11 7 7 5 5 5 5 5
13 15 15 19 9 3 10 15 16 19 25 32 33 40 38 37 28 27 29 30 30 30 33 34 35 36 38 33 31 27 25 26 26 24 23 22 25 28 29 28 22 17 14 10 7 6 6 6 7
18 19 14 19 14 4 10 9 11 9 16 26 29 34 35 40 33 26 28 29 28 29 32 34 35 36 36 35 28 28 22 22 25 27 31 32 31 29 30 31 28 23 13 9 9 7 6 7 8
20 22 22 23 9 8 10 7 9 8 12 16 26 23 29 35 36 30 26 27 27 28 30 33 33 32 33 32 32 31 29 25 25 23 26 25 25 23 24 24 25 28 20 13 7 1 3 4 6
22 20 16 19 24 13 13 8 10 7 13 13 21 22 30 33 39 34 28 25 26 28 29 30 31 32 30 31 33 34 35 28 18 18 22 22 20 18 22 23 24 28 25 15 8 2 2 4 5
27 15 14 18 17 15 11 8 5 6 6 11 18 23 26 31 39 41 36 26 25 28 27 28 29 31 29 33 34 33 35 30 25 26 21 17 17 17 19 22 22 22 27 25 8 2 2 2 1
28 23 25 19 17 15 17 16 7 6 3 5 18 20 19 29 34 34 37 33 26 25 24 25 25 29 29 30 34 38 36 34 32 31 25 23 19 17 16 17 17 20 21 27 24 11 8 6 4
38 29 28 18 17 16 22 18 11 6 2 2 7 14 15 24 28 30 35 36 29 24 23 23 24 25 28 26 29 34 37 36 37 36 31 24 22 20 16 15 14 18 22 27 32 21 11 11 11
41 35 30 25 20 22 26 20 15 10 3 1 6 7 11 16 21 25 33 36 35 25 23 24 24 26 26 24 29 31 31 34 35 39 38 32 30 24 16 14 15 15 20 23 29 25 13 16 18
44 39 32 24 22 27 28 26 21 15 11 7 6 8 7 10 17 21 26 31 34 31 22 21 24 26 25 27 29 31 33 32 35 38 37 37 37 34 26 18 16 15 17 21 27 28 16 20 22
50 45 31 22 19 28 27 29 23 22 18 13 12 6 6 5 12 16 19 21 31 28 27 20 22 23 25 27 29 29 29 29 32 34 37 39 40 39 35 26 19 21 22 22 28 27 25 20 21
54 51 42 21 18 27 30 30 28 27 18 14 16 9 6 4 7 7 14 19 24 27 25 22 19 19 24 25 25 24 26 27 31 34 36 38 39 39 38 34 29 25 23 24 26 26 28 27 20
61 57 55 33 25 27 35 34 33 28 24 21 17 16 13 3 2 6 11 17 22 26 19 25 20 16 19 23 22 26 25 26 25 27 32 35 35 36 37 37 33 32 29 26 22 21 22 26 26
65 61 51 49 24 30 34 34 36 33 28 26 20 16 15 9 7 0 11 15 20 25 19 22 21 19 18 17 19 24 24 23 24 27 26 30 34 35 35 36 36 34 34 34 32 27 18 19 22
68 65 55 50 21 32 39 38 35 36 30 30 26 19 19 11 10 7 9 14 19 19 15 20 20 21 21 18 19 17 21 23 21 20 24 25 29 31 34 34 34 34 34 32 33 32 28 16 15
70 67 66 61 43 38 42 45 42 37 33 31 31 26 21 16 15 13 10 10 13 11 15 17 20 19 20 19 16 15 15 19 18 17 21 23 27 29 31 31 32 34 32 31 32 32 30 26 15
72 73 75 75 53 46 45 44 43 40 39 35 31 29 25 24 22 18 13 10 8 9 14 14 18 20 18 19 20 16 16 16 17 19 21 20 22 26 28 29 30 29 30 31 30 31 30 30 26
74 78 81 76 78 61 51 47 46 47 43 42 38 34 31 29 24 20 15 10 8 10 13 6 14 18 20 19 19 18 16 16 14 16 19 19 19 22 24 25 27 27 27 28 28 30 28 29 30
82 82 86 87 81 75 69 61 47 45 46 44 42 39 36 35 28 25 22 16 13 9 12 9 7 12 16 20 18 16 16 16 18 16 15 17 16 18 18 21 25 25 24 24 25 26 27 27 28
87 81 81 87 87 82 74 68 59 45 40 42 46 45 42 36 34 31 29 24 17 15 12 12 7 8 13 16 16 16 14 14 16 17 16 16 15 16 16 17 21 22 26 24 25 25 25 25 26
85 82 81 83 82 87 76 74 70 52 47 44 45 48 48 41 39 36 31 29 21 17 13 15 11 11 13 15 16 15 13 11 13 14 16 16 16 17 15 14 17 19 24 23 27 27 25 24 24
85 83 82 80 79 83 80 75 75 74 67 51 49 52 54 50 44 37 34 34 28 23 19 17 17 12 13 16 15 16 12 11 9 10 12 13 14 18 13 17 16 15 19 21 21 24 25 26 24
87 83 83 82 80 80 79 76 70 70 58 57 54 54 54 53 50 44 36 37 32 29 26 22 22 19 14 18 20 20 18 14 10 8 10 12 12 14 17 17 15 17 17 19 18 19 22 24 25
89 86 82 81 81 79 78 81 70 61 62 58 55 50 47 50 54 50 46 42 35 34 30 30 27 22 20 20 21 19 18 16 17 13 8 9 11 12 14 16 17 18 15 16 15 15 18 21 25
92 91 87 82 81 82 80 83 82 66 56 64 60 55 52 50 51 51 43 42 42 36 34 34 30 25 26 22 19 21 20 17 17 16 16 14 11 10 13 13 16 20 16 15 13 16 15 14 18
95 94 91 87 85 85 84 81 88 87 82 77 72 67 55 55 52 53 48 46 45 45 37 41 37 30 26 20 19 18 21 16 11 15 22 19 20 15 13 11 11 14 16 17 15 15 14 11 11

GFSSGP_250_spd_102.txt.gz
Wind_Speed
12 8 10 5 10 14 22 29 34 41 43 42 38 32 36 36 35 32 27 26 26 28 24 20 16 14 14 12 12 10 6 6 7 3 0 2 5 7 9 16 27 33 32 32 29 32 34 33 34
11 9 9 10 3 9 19 23 26 34 41 44 43 33 34 36 35 33 30 27 27 27 27 22 20 19 16 14 12 10 10 12 13 9 7 6 6 4 5 7 13 18 22 23 22 21 21 20 20
13 12 11 5 2 7 14 20 27 31 38 40 43 41 34 34 33 34 33 31 32 30 28 28 26 24 20 20 19 20 22 18 16 15 11 10 11 10 7 4 7 8 9 11 13 12 11 10 8
12 15 10 5 5 6 12 20 22 29 33 39 42 39 32 33 32 34 32 31 33 34 31 30 27 26 26 23 23 23 25 22 19 17 17 16 18 18 16 5 9 12 10 8 9 14 10 7 5
16 11 14 7 5 2 12 14 19 23 30 34 37 34 37 31 30 34 31 29 31 32 31 31 30 27 27 24 26 27 27 23 19 17 19 22 26 26 24 18 12 13 11 9 8 9 9 7 7
22 17 11 10 5 7 11 9 13 14 23 32 32 34 36 32 32 33 31 30 30 32 31 29 33 32 34 31 24 22 25 28 27 25 27 28 27 28 27 24 18 13 10 9 10 10 9 9 8
18 15 10 8 4 14 10 11 8 12 21 26 30 32 38 39 37 32 31 31 31 29 30 32 33 34 36 35 26 21 23 22 23 25 21 23 22 24 24 25 21 16 9 7 6 8 6 4 4
17 18 14 15 12 20 4 10 11 12 18 17 28 24 38 40 42 34 30 31 30 30 30 32 34 34 36 34 29 26 23 20 19 21 21 22 19 20 22 26 26 18 11 4 3 5 4 4 5
29 17 24 22 19 12 11 11 6 10 12 13 24 22 38 38 42 41 31 29 27 29 28 30 32 35 36 36 35 31 29 25 20 18 16 15 14 18 19 21 19 20 16 2 3 5 5 3 4
27 14 17 18 32 22 11 7 4 6 10 10 19 20 30 32 39 42 38 29 27 27 27 28 30 30 34 33 35 37 34 30 27 24 21 20 13 15 19 19 20 20 25 13 5 7 4 6 7
27 24 22 10 19 16 12 12 3 3 6 6 14 13 22 25 32 36 40 34 28 27 29 29 29 27 27 28 34 35 37 36 35 33 27 20 16 14 17 17 18 22 27 20 14 14 15 12 10
32 21 26 20 20 21 14 13 13 6 3 3 12 6 18 20 27 32 41 35 30 26 29 31 31 30 29 30 34 36 37 39 40 39 39 27 18 17 15 16 18 21 27 24 20 18 18 16 17
38 28 27 29 24 21 14 14 14 8 1 5 5 5 12 14 23 28 34 35 32 24 25 28 29 29 31 30 34 35 36 40 42 42 43 39 24 21 21 17 20 24 27 27 19 18 18 18 20
42 35 36 18 24 20 21 17 17 14 9 3 3 3 8 11 21 22 28 33 29 28 21 24 27 27 28 30 33 32 36 38 42 42 44 42 38 28 23 22 23 25 28 30 24 24 23 22 24
46 45 35 25 23 24 23 20 21 19 15 8 8 6 4 7 17 21 24 30 29 24 25 22 22 29 27 28 32 28 30 34 38 42 42 41 41 39 31 27 24 23 27 32 27 22 22 22 22
49 52 46 32 22 25 25 27 23 24 21 17 11 8 6 5 14 16 23 26 28 21 22 27 25 25 25 29 30 29 30 32 35 39 42 40 41 41 40 36 31 26 24 26 31 22 18 19 19
56 51 49 41 29 30 25 26 25 26 25 20 13 13 12 5 7 12 16 22 24 20 21 24 27 27 24 24 29 30 27 29 33 37 39 40 39 40 40 39 38 38 31 24 23 25 22 22 21
56 54 50 42 33 23 28 25 26 28 26 20 17 15 14 10 3 6 14 16 19 21 19 21 23 28 28 27 25 26 29 26 29 31 36 38 39 38 39 39 39 37 38 35 24 19 21 21 19
59 57 55 47 35 29 28 28 28 30 29 28 19 20 16 14 8 6 7 12 14 18 18 18 21 24 27 29 28 26 26 28 26 20 31 33 36 36 36 37 39 38 38 37 37 26 16 19 21
62 61 59 56 42 30 31 39 32 32 34 33 27 25 18 16 13 10 8 7 7 11 16 17 21 22 23 26 29 28 26 27 28 26 24 29 33 34 34 34 35 37 37 37 37 37 29 12 17
65 66 65 65 50 43 36 41 42 34 33 31 30 29 27 22 20 14 9 7 5 6 10 12 18 20 23 24 25 26 28 25 24 26 26 25 27 31 33 34 34 34 35 36 36 36 36 31 14
70 70 71 67 65 52 51 45 48 46 39 35 29 31 30 25 24 19 14 11 6 5 4 8 9 15 21 22 22 22 22 26 27 25 25 26 26 27 31 33 33 33 33 33 33 35 34 34 30
77 70 71 72 69 59 53 53 47 46 46 44 41 35 32 29 26 25 19 17 11 9 6 4 6 9 14 18 18 20 20 21 23 24 24 24 26 26 24 28 31 31 32 32 32 31 34 32 31
80 76 73 77 71 68 62 59 62 49 46 43 39 35 36 35 30 31 26 21 20 15 11 9 9 7 10 13 16 17 16 17 18 21 23 23 22 22 21 22 27 27 31 30 30 30 31 30 29
82 77 76 76 78 72 71 65 60 57 48 44 44 42 40 38 39 36 33 26 24 23 18 14 12 8 8 12 16 16 16 12 15 17 20 21 22 21 23 21 21 25 25 30 29 26 26 28 28
87 82 80 79 83 90 76 70 67 59 53 47 41 41 44 43 40 39 38 30 28 27 23 18 17 13 8 9 16 17 19 17 9 12 14 16 16 21 18 22 22 21 22 23 25 23 25 24 25
90 84 85 85 84 87 84 81 76 72 66 63 55 47 48 47 40 43 41 33 30 31 28 25 20 15 12 9 10 13 15 17 15 10 11 11 13 15 18 14 20 23 18 15 20 19 23 23 22
91 89 88 85 85 84 90 91 85 79 77 69 65 55 52 51 43 43 45 41 36 35 34 31 27 25 20 15 13 12 11 14 12 12 12 11 11 11 13 13 15 12 19 19 15 17 17 21 21
92 90 87 86 85 86 85 89 90 81 76 66 66 67 64 58 49 46 47 51 44 39 37 35 34 29 23 23 18 14 11 13 12 9 7 8 10 11 11 10 8 14 14 17 17 16 15 13 18
93 94 91 87 84 84 85 85 82 81 81 75 72 71 70 71 67 53 52 53 53 47 42 42 40 38 34 28 20 18 17 15 16 10 9 6 3 4 7 14 15 5 9 13 15 16 14 12 14

GFSSGP_250_spd_105.txt.gz
Wind_Speed
13 10 5 5 6 15 22 24 33 38 40 37 34 33 33 33 32 29 29 24 24 23 22 20 18 14 12 13 11 7 3 1 3 7 8 10 12 14 20 26 33 34 43 31 27 32 33 27 28
10 11 7 5 3 9 18 27 32 38 41 36 35 31 32 32 31 30 30 28 28 28 26 26 21 17 15 16 16 14 14 14 11 9 6 2 4 5 9 12 18 24 28 29 24 18 17 18 17
13 11 6 2 7 10 18 24 28 34 37 37 35 30 31 32 30 30 31 30 30 32 30 26 23 20 20 20 22 20 17 15 14 12 11 10 10 6 2 3 6 11 12 15 18 17 14 13 9
13 14 10 1 4 8 20 21 27 29 35 35 36 34 33 32 33 32 30 31 31 32 32 30 28 23 23 25 22 18 16 14 14 15 17 18 17 14 4 5 9 8 8 13 16 16 12 9 8
13 14 11 11 5 3 12 15 18 27 34 35 38 39 36 33 32 32 31 30 33 34 34 32 30 22 19 21 24 25 21 17 15 21 19 21 21 21 16 12 12 11 10 10 12 13 12 12 10
17 14 14 8 6 4 7 14 17 23 30 32 38 45 42 34 31 31 32 32 31 33 33 34 33 27 22 22 22 24 25 21 20 20 20 22 21 20 18 14 12 10 9 10 13 13 12 12 13
21 14 5 12 6 7 3 13 16 19 24 26 40 41 43 44 32 33 31 32 31 32 33 34 36 34 28 25 20 18 17 18 16 17 16 18 18 18 22 21 16 8 9 8 11 13 14 13 14
24 18 16 16 8 17 5 8 11 14 19 22 34 33 37 43 40 33 33 31 32 31 30 32 35 34 34 27 25 22 19 13 12 10 13 16 20 21 20 18 14 10 4 6 8 10 10 10 10
22 17 17 16 12 23 6 6 8 10 14 19 25 31 33 40 38 36 34 33 34 31 31 31 31 32 32 33 31 28 27 21 15 11 13 15 15 15 14 17 15 14 4 8 10 12 12 8 9
26 19 17 14 15 13 8 6 6 9 11 17 17 22 28 34 38 37 34 33 34 34 33 33 31 31 33 36 35 35 32 33 22 14 16 14 14 15 15 14 15 17 7 14 15 13 11 11 11
32 25 22 22 21 17 15 13 4 4 7 13 13 18 24 30 33 36 35 30 30 32 31 34 31 32 33 35 39 38 38 38 36 21 18 15 14 14 14 14 17 18 14 16 15 15 16 16 14
34 30 24 23 22 22 15 11 7 5 4 9 9 14 18 25 32 32 31 33 27 28 29 31 31 31 32 34 39 41 40 40 41 37 25 21 21 19 17 18 22 20 21 23 21 19 19 19 21
40 24 31 20 20 25 18 12 13 9 4 6 5 12 14 20 29 28 29 30 32 27 27 30 31 31 30 32 37 41 44 42 43 40 37 28 24 22 20 24 26 24 22 23 20 21 22 22 23
45 33 35 30 20 20 19 17 16 8 4 4 5 7 10 17 24 27 28 28 30 31 28 27 29 32 32 32 37 39 43 43 43 43 42 38 34 28 25 25 28 28 25 22 22 22 23 24 24
46 43 35 34 30 24 22 19 13 11 8 4 3 7 7 13 19 24 27 28 27 28 31 28 27 29 31 34 34 37 41 42 43 42 42 41 39 39 36 30 28 29 23 21 21 22 23 23 21
45 46 41 35 26 28 29 26 16 21 14 12 7 5 5 9 14 18 21 24 28 26 28 31 30 31 28 33 35 34 37 40 43 42 41 42 42 39 41 39 32 27 25 21 22 22 19 18 19
47 47 45 42 27 30 19 27 28 26 18 14 12 10 7 4 10 14 18 18 26 23 25 27 29 32 32 31 33 36 33 34 40 41 41 40 41 40 41 40 40 32 25 25 21 20 16 18 22
53 53 51 48 31 31 32 36 27 27 23 16 13 14 9 5 6 9 12 15 20 21 22 24 27 29 32 33 32 34 35 34 34 39 41 40 39 40 40 41 40 40 33 22 24 20 18 20 20
55 54 54 56 45 37 33 34 30 29 24 22 17 18 13 10 9 7 8 9 15 18 18 21 24 27 29 31 32 31 31 32 32 34 38 40 40 39 40 40 41 40 39 31 18 20 19 19 23
58 57 56 56 54 49 34 34 36 31 28 26 22 18 16 14 13 9 5 5 6 12 14 18 22 26 26 28 30 31 31 32 32 33 33 36 39 40 40 40 39 39 40 39 32 16 18 19 22
64 60 60 58 57 53 40 35 40 39 36 30 27 22 22 19 16 16 7 6 7 6 9 12 17 22 24 24 25 26 28 29 29 31 31 30 35 36 38 39 38 37 38 38 37 33 17 17 17
70 66 62 59 54 49 48 38 37 35 35 32 30 25 25 25 23 21 13 9 5 6 4 5 10 16 22 21 22 18 22 22 24 26 28 31 31 31 31 36 37 35 35 35 36 36 33 19 14
75 71 65 61 60 54 57 49 39 46 43 38 32 29 28 28 29 25 22 15 10 6 7 3 3 7 16 18 22 18 19 21 21 25 27 27 28 28 28 31 34 33 32 31 33 33 33 34 27
78 74 70 63 68 59 56 54 51 50 45 43 37 33 32 29 32 28 26 22 15 12 10 11 6 5 7 16 18 21 16 16 19 22 24 24 26 27 29 29 27 33 30 28 28 30 31 30 30
80 77 75 69 66 68 59 57 58 51 55 50 47 38 35 31 32 32 27 28 19 19 16 15 13 8 3 7 13 17 16 10 15 17 19 22 23 22 25 27 25 23 26 27 26 26 27 28 28
84 81 79 76 80 77 73 62 63 55 49 52 46 40 39 37 38 37 31 33 27 22 22 19 18 12 8 5 7 8 13 14 12 12 16 20 21 20 22 19 23 23 22 24 25 24 24 24 25
88 84 85 84 81 81 80 75 67 62 56 55 54 54 48 45 38 37 34 34 31 28 27 25 21 17 12 5 5 6 7 9 9 10 9 10 15 18 18 18 18 19 22 23 23 26 23 22 20
92 89 88 86 83 79 79 77 71 61 65 58 58 57 53 50 39 40 41 38 35 33 32 27 25 22 18 19 14 10 5 3 7 2 5 7 8 13 17 16 17 18 20 22 20 20 19 22 17
94 90 88 88 87 85 88 86 79 68 68 65 60 59 59 53 43 39 44 41 40 38 35 33 30 28 27 22 18 15 12 9 9 6 6 1 2 6 7 10 10 14 17 17 18 17 16 16 19
94 93 92 90 89 87 86 94 91 80 71 73 69 67 69 62 55 50 49 45 40 39 41 38 34 33 33 31 27 23 20 14 13 11 10 9 6 4 5 2 7 10 10 13 11 12 11 13 12

GFSSGP_250_spd_108.txt.gz
Wind_Speed
13 7 3 12 12 16 23 26 34 33 32 31 31 31 30 28 28 29 28 27 24 20 21 16 15 12 11 10 9 7 4 2 7 10 12 13 15 18 21 25 27 34 38 28 33 33 31 25 25
15 8 2 11 12 16 23 29 32 33 34 32 33 31 31 28 29 32 29 28 26 25 22 21 19 18 19 17 15 14 13 12 9 6 3 4 8 11 14 17 19 23 31 36 33 23 22 28 31
11 9 8 11 11 15 22 26 32 35 38 39 35 32 32 32 33 32 31 31 30 30 26 25 24 23 20 18 17 15 14 15 13 10 7 6 6 8 8 8 10 13 16 20 25 24 21 16 17
15 9 8 9 10 13 15 24 30 32 41 44 43 33 34 32 33 33 33 32 32 36 30 25 22 23 25 23 20 12 10 16 17 16 15 12 9 4 4 2 4 4 8 12 15 17 14 11 11
15 14 7 6 5 9 10 19 27 27 37 40 41 41 34 34 32 33 33 33 34 37 34 27 26 23 21 23 24 23 18 17 15 17 18 17 13 10 4 9 8 6 6 11 14 14 13 13 13
15 14 15 16 2 3 12 18 19 22 28 34 38 39 37 36 32 34 31 32 32 37 36 36 28 23 20 17 16 15 14 13 13 14 14 16 15 13 10 10 9 7 8 10 12 13 12 11 12
19 18 13 11 11 10 3 12 14 17 24 32 35 38 38 34 34 35 33 32 33 34 34 34 35 28 25 21 17 12 12 10 10 12 13 14 18 17 17 10 7 8 9 11 13 15 16 18 15
21 19 12 9 7 11 4 5 9 17 22 25 30 35 37 37 30 33 35 35 33 34 33 34 34 32 30 24 23 16 7 5 5 7 11 16 15 12 14 12 7 5 11 14 15 17 18 16 16
26 21 21 13 12 12 5 6 7 13 18 21 25 34 37 37 30 28 33 34 33 33 33 32 34 37 33 30 27 24 11 8 9 10 12 10 12 13 11 9 9 4 12 14 15 16 15 14 14
28 21 12 13 15 15 9 9 7 12 17 17 21 26 35 35 31 31 30 32 33 32 32 31 35 37 37 34 32 30 20 11 12 14 14 11 12 11 9 9 8 7 16 17 16 17 14 13 12
27 27 26 14 16 15 12 6 6 7 12 12 17 22 29 34 31 31 30 31 32 32 32 31 32 34 37 38 37 35 34 21 15 13 12 10 10 10 6 9 8 15 18 19 18 15 16 14 12
29 28 21 25 18 18 19 17 9 4 8 9 14 20 24 32 32 29 32 29 29 31 32 33 32 36 36 40 40 41 40 36 27 21 19 17 13 10 16 12 19 23 20 17 19 18 19 18 20
35 28 25 27 24 27 15 13 7 4 7 6 10 15 18 28 31 27 29 30 29 28 29 33 35 33 36 40 42 41 42 40 38 35 29 21 16 17 22 21 24 25 23 21 20 20 21 21 18
45 35 27 24 27 30 27 13 7 5 4 7 7 12 14 22 26 26 25 28 31 29 26 28 33 33 34 38 42 43 42 43 41 38 38 36 28 23 26 29 26 23 23 23 24 24 22 18 15
53 41 31 25 26 29 32 24 15 12 8 5 5 8 10 17 21 22 24 26 28 30 29 29 30 34 34 34 38 41 42 41 43 42 41 40 40 33 27 28 26 25 24 24 25 25 22 22 24
51 45 37 33 31 29 21 18 23 20 17 7 5 5 7 11 16 18 20 24 23 26 29 32 32 33 33 35 36 38 41 41 42 42 44 43 42 42 35 28 25 23 22 23 23 22 21 25 29
51 47 38 34 33 33 27 23 22 18 18 12 8 6 7 7 10 14 16 19 21 24 26 30 32 32 31 31 34 34 38 41 41 42 43 43 43 42 43 37 26 23 21 20 19 19 24 26 31
56 50 47 41 40 28 32 19 30 28 26 17 12 9 6 6 3 8 11 16 19 21 22 26 29 30 31 32 31 33 33 37 40 41 42 41 41 42 43 42 38 25 21 19 19 21 25 26 28
62 57 53 55 33 39 36 35 36 33 31 24 17 13 11 9 5 1 5 9 14 19 22 21 27 29 28 30 33 35 34 31 36 37 39 41 40 41 41 41 40 35 26 22 18 20 23 24 26
66 63 57 55 47 36 39 42 41 32 28 25 20 15 14 12 11 5 4 5 10 12 17 19 22 25 27 25 26 29 31 33 34 33 34 37 41 40 39 38 39 40 38 26 19 19 18 22 22
67 65 61 58 58 46 48 47 42 35 33 30 31 22 18 18 15 12 8 3 5 11 9 15 21 21 23 23 24 24 27 25 29 32 33 33 34 39 38 36 36 37 35 36 27 17 16 17 18
70 68 63 60 60 60 48 47 46 42 43 37 35 29 24 24 21 16 15 9 4 5 9 6 13 20 21 22 23 21 23 23 25 25 28 30 31 34 36 38 33 32 33 34 34 28 15 13 11
73 70 66 65 66 64 56 52 49 46 43 42 35 37 32 27 27 24 20 17 10 6 6 5 5 14 16 17 19 16 22 23 24 26 29 29 29 31 33 35 35 31 29 30 30 29 29 19 10
78 73 70 68 66 68 70 66 55 51 50 44 45 43 33 30 30 28 25 23 15 10 6 7 4 7 11 13 15 16 13 15 16 20 22 24 28 29 29 31 31 31 30 28 26 26 26 26 26
83 77 75 69 66 65 65 61 61 58 48 49 49 44 35 34 33 32 28 25 22 17 11 8 7 2 5 8 11 14 11 8 13 15 21 23 24 24 28 29 29 30 29 28 26 24 25 23 23
85 82 78 75 72 68 63 60 64 59 59 53 49 41 41 40 36 33 32 27 27 23 17 11 9 4 3 1 8 8 8 10 9 10 16 18 20 22 23 26 26 24 26 28 28 25 22 21 21
89 84 84 83 83 70 64 67 66 63 58 59 61 53 50 46 37 34 32 29 29 30 22 18 12 9 7 3 1 2 4 8 5 7 9 11 14 16 17 19 22 26 26 25 27 26 24 23 20
91 90 87 85 85 78 73 75 71 65 63 62 58 59 56 50 49 38 34 35 33 33 27 22 17 13 12 11 10 8 4 2 3 3 2 3 7 10 10 11 12 16 17 19 21 20 21 26 25
90 90 89 89 87 84 79 75 74 74 69 62 66 64 60 59 53 44 43 40 38 36 33 27 23 21 15 16 14 11 9 8 9 5 7 2 2 4 3 7 8 9 12 13 14 16 18 16 19
90 91 92 91 89 86 85 89 83 76 77 66 65 61 59 59 57 50 50 46 44 42 37 34 29 27 23 20 19 17 17 14 15 13 13 10 7 7 4 4 1 3 3 7 8 8 14 15 14

GFSSGP_250_spd_111.txt.gz
Wind_Speed
9 2 13 18 16 20 23 33 39 40 36 31 31 32 31 30 29 27 27 24 18 16 15 15 13 10 7 6 4 5 8 12 17 20 19 19 20 23 27 31 33 36 38 30 26 24 26 26 25
7 2 11 15 13 18 23 31 38 40 39 33 32 30 30 30 30 29 32 30 24 21 19 18 16 15 15 13 13 11 10 7 5 7 10 12 16 18 22 25 27 28 29 32 33 28 22 24 29
8 3 6 10 7 16 20 25 30 35 37 35 31 31 30 28 31 32 34 33 25 22 17 17 19 19 14 11 11 11 11 10 7 4 3 5 7 10 12 11 11 17 21 26 30 29 21 17 18
10 11 13 9 6 12 16 20 27 31 37 37 31 34 31 29 30 31 32 32 32 22 20 17 18 18 19 18 11 10 11 12 10 7 5 3 3 5 7 3 2 3 7 13 17 20 21 20 17
14 10 7 3 4 6 13 16 24 28 33 37 33 32 32 32 30 31 32 31 32 32 26 21 17 16 12 13 17 15 11 11 12 11 10 7 7 8 5 4 2 4 4 10 14 15 15 14 13
16 12 7 6 3 4 10 12 19 29 31 34 36 30 30 33 33 32 32 30 32 32 31 27 26 22 19 11 10 10 7 8 7 6 10 10 9 8 9 9 6 4 5 11 13 14 13 14 14
18 12 19 7 11 8 12 5 13 25 27 31 36 31 28 30 32 32 31 31 30 32 34 33 28 26 21 16 7 6 5 5 8 8 9 11 13 10 7 6 5 6 8 11 15 15 14 17 15
21 18 9 12 7 6 5 5 13 21 25 25 35 31 28 27 30 31 31 30 30 32 35 34 32 31 25 22 14 4 2 3 4 6 8 7 8 9 8 6 3 5 10 15 18 17 19 19 16
23 22 14 15 9 10 8 3 9 19 24 23 27 33 29 28 28 29 32 29 30 30 31 34 36 32 30 26 21 8 4 5 6 7 7 8 6 5 4 2 2 9 14 16 21 20 19 15 12
26 21 23 20 12 13 3 6 9 12 19 19 24 33 28 30 26 27 30 31 30 31 33 35 37 36 35 33 30 23 12 11 10 15 16 12 5 6 7 6 2 13 16 16 16 16 15 13 13
26 25 17 17 17 13 9 8 6 7 13 14 20 28 31 29 29 27 25 28 33 31 32 36 37 38 37 37 37 34 26 18 13 19 17 9 6 10 11 5 9 18 17 17 16 15 14 12 11
29 30 19 18 14 19 20 10 15 2 8 11 18 24 28 27 29 29 26 24 28 32 32 34 38 41 39 40 40 38 35 28 21 16 10 2 6 10 7 12 20 15 15 20 22 14 14 11 10
32 35 27 22 23 18 15 22 16 2 4 8 14 19 24 26 25 27 28 25 25 28 30 30 33 38 39 37 41 42 38 36 34 24 15 9 13 15 21 23 20 18 15 17 15 14 13 14 13
34 28 26 28 24 21 21 20 9 3 4 5 10 15 19 23 24 23 26 28 26 25 28 30 32 35 38 38 37 40 40 40 37 38 32 20 21 23 25 25 22 19 18 18 19 18 16 12 8
38 33 28 25 23 27 24 23 11 5 5 7 7 12 15 18 21 23 22 25 30 28 25 29 32 34 37 39 39 39 38 40 41 40 42 34 25 25 25 25 24 25 26 25 22 18 16 13 10
40 43 31 24 28 28 36 35 28 22 14 14 8 7 10 12 18 19 22 22 25 30 30 27 27 31 32 36 37 40 41 40 40 42 42 43 36 27 24 23 24 25 24 23 20 19 23 25 29
46 46 34 33 25 27 31 32 28 26 23 17 10 5 4 9 11 15 20 21 24 25 30 30 28 31 31 30 33 36 40 42 40 39 39 41 42 37 25 23 21 22 20 18 19 25 27 26 30
53 54 44 33 36 31 33 28 21 20 18 19 14 9 4 5 4 11 14 18 22 22 25 30 29 31 31 31 31 32 35 37 40 40 38 39 40 41 37 24 21 17 16 17 21 24 27 25 26
56 54 51 40 30 34 37 33 26 28 25 25 17 10 9 6 3 4 10 13 16 21 20 25 26 25 25 28 29 32 33 33 34 37 37 38 38 38 37 38 25 22 16 16 20 24 24 23 22
61 58 54 46 42 22 33 37 39 35 33 29 26 18 15 12 8 3 3 10 13 15 19 21 23 24 24 23 24 25 29 31 32 34 36 38 37 36 36 35 36 28 22 17 15 17 20 18 17
66 64 51 52 50 46 32 32 47 35 38 31 31 25 20 19 14 7 5 1 7 10 12 19 19 22 23 26 25 24 25 28 28 31 35 37 37 36 35 36 33 33 28 22 19 14 13 14 13
70 66 56 57 57 54 56 41 46 46 38 34 32 32 24 24 20 11 11 8 2 4 8 10 14 17 19 22 22 23 25 26 30 31 31 33 34 35 36 36 35 32 30 26 21 19 14 10 8
70 69 54 64 63 53 53 62 55 55 52 43 36 35 31 25 25 18 17 16 9 1 6 7 9 10 14 15 15 17 20 23 24 26 29 31 32 33 34 35 33 33 32 27 26 23 17 13 10
77 79 85 53 75 67 62 48 61 51 51 47 42 41 34 30 24 23 22 19 15 7 3 6 5 6 9 14 13 13 14 18 20 24 27 26 29 31 34 34 36 36 33 32 29 26 23 20 16
84 81 79 77 71 72 71 55 51 55 57 55 48 42 36 38 31 30 27 22 21 15 12 2 5 4 5 8 10 10 10 14 17 19 23 23 25 27 26 26 29 34 33 31 30 29 25 21 20
89 85 83 81 75 72 75 65 55 55 62 59 56 49 52 42 40 38 31 28 26 24 17 11 4 6 1 3 5 8 8 8 10 11 14 18 20 24 26 28 29 33 33 34 31 28 25 23 20
92 87 85 86 84 82 78 73 61 59 53 63 61 57 57 46 42 44 36 32 28 27 23 20 12 8 5 4 5 4 4 3 4 7 8 8 10 14 14 15 19 23 24 26 30 30 27 24 24
90 91 90 88 86 80 76 80 77 72 66 61 64 63 62 56 46 41 34 34 30 28 27 24 20 10 10 10 9 5 3 3 5 4 1 2 5 7 8 14 13 15 18 20 24 26 26 26 25
90 91 89 89 87 87 85 84 74 84 78 81 79 66 55 56 55 48 40 36 31 33 30 27 25 19 13 14 13 11 10 8 8 10 8 4 4 3 4 7 6 9 13 14 16 19 20 22 22
92 93 93 93 87 86 85 87 86 76 85 79 72 69 62 58 57 50 50 48 36 38 35 32 31 27 21 18 17 16 16 13 13 13 15 12 11 8 7 6 4 7 6 8 8 8 10 10 13

GFSSGP_250_spd_114.txt.gz
Wind_Speed
11 18 21 18 23 23 30 36 35 40 31 30 29 27 28 28 31 27 23 21 18 17 14 11 6 4 2 1 5 11 20 26 29 29 27 25 28 31 33 37 42 36 35 34 34 29 22 23 21
10 11 14 16 9 22 28 35 30 39 35 32 29 27 27 28 29 29 25 23 19 17 15 13 9 8 8 7 6 5 3 5 10 18 23 24 23 24 24 26 32 36 35 32 29 26 23 20 20
7 8 10 7 6 18 22 30 29 37 37 29 30 30 28 26 27 28 29 24 19 14 12 12 13 11 6 7 6 7 7 5 5 6 10 13 16 18 21 21 24 24 28 28 26 25 24 23 19
9 9 14 10 7 14 21 25 31 34 35 33 28 30 30 27 26 28 29 30 23 20 17 13 13 8 11 7 5 6 7 7 6 6 4 5 7 9 12 12 5 2 9 16 18 16 16 16 14
14 10 5 11 8 10 20 18 27 30 37 34 26 27 29 28 27 27 28 28 30 24 21 18 18 16 7 9 9 6 7 8 8 7 4 5 2 3 4 6 4 3 2 10 14 12 16 15 20
14 11 8 5 3 12 16 20 24 26 32 37 27 25 28 28 25 27 27 28 27 29 25 24 20 18 11 5 2 5 3 6 7 6 5 5 5 7 4 2 2 2 3 8 12 14 16 16 14
18 16 9 2 11 7 18 13 18 24 34 33 29 25 26 28 25 25 25 25 28 28 30 26 23 19 14 4 4 2 2 4 7 7 7 6 7 5 2 3 4 2 3 9 12 12 12 13 13
21 16 15 11 6 8 9 10 15 22 29 30 30 27 24 25 28 26 25 27 26 30 21 28 27 23 17 9 5 2 2 3 5 5 6 6 7 5 3 2 2 3 5 9 13 13 15 15 13
23 19 17 11 12 6 11 11 11 19 24 26 30 27 24 24 26 28 26 27 28 29 30 29 30 29 25 20 21 18 8 7 9 13 12 12 10 5 5 7 3 4 8 12 14 13 15 16 11
26 25 20 17 15 13 17 3 9 14 18 22 27 25 26 26 24 27 27 25 28 31 34 32 36 33 31 31 27 23 19 21 11 9 22 12 23 13 17 10 1 8 13 15 15 14 14 13 7
29 28 19 13 15 11 11 4 5 9 11 20 23 28 27 29 26 23 24 25 27 31 34 35 34 35 32 36 28 21 23 14 12 11 9 15 24 24 19 3 11 16 13 11 14 13 10 9 7
35 28 23 20 18 15 14 9 9 5 5 15 21 27 25 26 30 25 21 22 22 26 32 37 36 36 35 33 34 29 24 17 5 29 14 17 27 10 7 21 19 16 11 4 10 9 9 9 7
36 32 25 16 18 20 20 13 15 1 3 9 18 23 25 23 28 28 24 21 23 24 29 35 38 38 36 34 35 32 29 20 19 23 8 6 3 15 20 21 19 17 10 3 12 7 7 10 11
37 33 31 22 18 23 20 24 23 10 7 7 14 17 21 20 26 26 29 27 23 24 26 32 37 39 40 37 36 35 32 30 21 13 10 7 12 22 22 20 19 23 13 10 10 9 12 11 11
38 33 35 29 25 23 17 21 15 10 2 4 11 19 16 20 20 24 24 28 28 26 25 27 32 34 37 39 39 36 37 37 34 26 20 22 21 21 21 22 23 21 18 18 16 11 10 10 10
39 34 35 33 30 24 24 18 21 13 10 12 20 16 11 14 17 22 23 25 28 30 30 32 29 32 34 35 38 40 39 38 38 36 32 30 25 22 22 25 26 25 24 22 23 21 20 18 16
42 37 35 32 25 23 26 27 33 30 22 15 24 13 9 8 11 17 21 23 24 28 27 28 30 32 33 33 34 38 39 39 38 39 38 32 28 25 24 24 24 23 22 24 24 25 28 27 27
44 41 35 30 28 29 32 29 31 28 24 19 16 12 9 5 5 11 16 19 22 25 25 26 26 27 30 33 35 35 38 39 39 38 38 36 31 31 26 31 27 22 17 18 22 26 25 28 26
50 48 39 36 38 28 34 30 32 27 17 15 18 13 13 7 1 7 14 15 19 22 23 25 27 24 27 29 33 33 36 41 42 40 39 38 36 32 27 26 25 18 15 11 16 19 23 21 22
56 54 44 42 41 35 31 35 30 26 23 23 21 18 12 7 4 2 6 12 14 18 21 21 25 27 29 34 33 35 37 37 40 40 39 38 38 36 31 30 27 11 4 9 14 16 17 18 18
62 60 54 40 48 44 34 30 33 26 30 27 26 25 17 15 10 5 2 4 9 11 17 18 20 22 25 28 32 33 35 37 38 41 39 37 37 41 35 31 34 20 13 8 10 13 13 12 14
69 64 61 51 47 43 41 42 38 39 35 32 36 33 25 20 17 10 5 3 3 9 8 13 13 15 19 25 26 28 30 33 36 38 41 38 39 41 43 40 24 24 22 16 11 15 11 10 13
72 69 61 50 54 46 38 49 50 43 37 34 37 34 27 23 22 15 11 7 7 3 8 7 10 13 14 16 20 24 27 32 35 34 35 35 38 40 41 39 34 32 30 28 22 11 11 11 17
76 73 70 71 61 58 44 37 51 48 53 50 38 35 27 25 27 24 19 12 9 7 1 6 6 9 12 12 15 15 12 23 29 30 33 34 38 37 40 38 38 35 31 31 29 24 16 8 11
78 75 77 75 60 66 58 48 41 44 49 57 47 42 36 43 36 31 24 17 11 12 6 1 3 4 7 8 8 8 14 11 18 22 27 30 31 34 35 37 38 37 39 38 34 29 24 20 15
82 82 83 73 80 72 63 54 53 40 54 51 50 52 47 50 46 37 26 20 17 16 13 7 1 3 2 6 6 7 6 7 10 9 14 17 19 22 25 26 28 31 32 34 36 33 25 22 22
87 85 85 81 74 80 67 44 54 60 61 58 54 50 48 49 42 40 35 27 23 24 18 12 10 5 6 7 7 4 3 2 5 8 8 6 12 14 23 18 23 26 25 28 29 31 29 26 28
86 90 89 85 83 74 77 61 58 58 60 62 57 54 50 50 49 48 35 34 27 29 25 19 13 11 10 9 9 7 6 4 3 1 6 6 9 5 13 13 13 18 18 18 22 23 25 28 28
86 89 89 89 87 78 89 89 76 71 61 56 57 58 56 56 57 48 46 37 31 34 30 23 19 15 14 15 14 12 9 9 8 7 3 6 5 3 7 7 8 9 9 9 12 15 24 25 27
91 90 93 95 94 94 86 100 87 81 78 61 67 63 60 60 59 50 52 44 36 40 34 25 26 24 19 18 19 16 14 13 12 12 9 8 10 10 12 11 9 6 5 8 10 13 13 18 21

GFSSGP_250_spd_117.txt.gz
Wind_Speed
10 19 15 8 22 28 36 33 41 39 31 28 26 24 26 27 26 21 19 18 17 14 10 5 2 8 12 12 15 19 29 33 35 41 37 30 30 29 30 30 32 33 29 31 27 23 22 26 21
11 12 10 9 15 24 32 32 40 43 35 30 29 26 25 25 25 23 24 17 15 13 12 12 5 2 4 5 3 1 5 10 17 24 28 40 41 26 25 26 28 30 33 35 35 30 30 25 18
12 10 10 10 14 20 24 28 36 41 39 30 31 27 24 25 26 26 20 21 17 13 9 6 4 5 3 6 6 5 4 2 3 4 10 16 20 25 25 24 24 23 25 26 27 27 23 19 19
19 16 8 8 14 17 20 30 31 40 41 31 29 26 25 25 25 25 26 24 18 18 16 12 9 3 4 4 5 6 6 8 6 4 3 5 10 15 18 19 15 15 16 22 23 26 25 16 22
14 10 5 9 12 12 21 25 28 33 39 34 30 28 27 24 26 25 25 26 25 24 20 15 13 9 3 6 7 8 9 9 9 7 4 5 5 5 8 7 6 10 9 8 14 15 18 20 13
18 7 7 8 8 7 17 17 26 31 38 34 30 25 26 25 25 24 25 21 20 28 25 21 16 11 4 3 5 5 6 7 9 9 6 4 4 6 2 1 2 4 4 3 3 9 11 13 14
17 13 17 9 5 6 12 13 20 29 35 33 31 26 25 28 25 25 25 27 26 25 32 28 21 10 3 2 6 5 4 5 6 7 4 4 6 6 5 1 3 1 1 4 7 11 14 16 16
20 14 15 9 4 7 12 10 14 28 30 32 31 31 25 28 25 25 27 26 26 30 33 34 27 20 10 6 6 4 5 7 10 10 6 5 7 8 6 3 2 2 2 7 10 10 10 10 11
25 19 12 3 10 5 5 13 15 21 24 33 34 32 29 25 27 25 27 31 32 29 30 28 29 25 28 22 19 18 15 16 15 13 10 5 15 11 9 4 1 1 5 9 12 11 12 10 8
30 23 18 18 11 6 3 11 9 16 19 28 34 30 34 27 25 23 23 27 32 35 39 33 29 24 20 21 20 19 19 14 11 8 1 5 20 27 14 3 7 10 10 11 11 10 13 10 7
31 26 22 17 14 12 8 8 7 11 13 22 30 34 29 33 28 25 23 24 30 36 37 40 34 28 22 19 15 10 14 12 12 11 4 5 18 31 13 9 17 17 13 12 7 7 7 10 1
34 28 23 18 18 13 11 9 15 8 9 18 26 31 27 29 34 32 27 25 29 35 38 39 36 33 28 25 15 14 21 13 6 11 9 6 19 15 30 28 23 16 12 8 8 8 7 3 2
38 33 26 21 17 13 17 14 14 5 2 11 18 29 26 26 29 32 31 26 28 30 36 40 39 36 37 31 28 17 14 14 7 7 6 12 11 28 28 21 18 6 8 7 7 5 5 8 10
39 33 31 26 19 16 21 25 19 16 11 4 14 22 22 24 25 31 33 31 29 32 38 38 38 39 38 35 33 25 16 6 7 6 10 8 15 20 24 24 15 11 4 4 6 8 15 14 13
39 38 28 29 23 19 26 23 23 18 10 3 9 19 20 20 22 28 31 31 31 32 33 36 37 37 39 38 35 34 29 26 10 8 14 21 22 23 22 20 13 9 14 13 13 11 13 13 13
33 41 36 34 28 26 27 26 28 19 12 5 7 18 14 15 18 23 28 27 29 29 30 34 37 39 40 40 37 35 38 34 30 24 24 29 30 29 29 26 23 24 22 27 24 25 23 23 21
48 46 41 38 32 30 34 27 24 25 16 8 13 13 8 11 14 18 25 27 28 28 28 31 34 38 40 42 42 39 40 38 36 31 29 32 34 34 29 26 26 24 24 27 28 28 30 29 27
46 47 45 37 30 38 34 29 30 23 24 19 21 17 9 7 9 14 19 23 26 27 32 32 36 36 41 44 44 42 41 39 38 41 35 32 35 35 35 30 22 22 21 25 28 28 32 29 26
46 49 48 42 31 43 41 28 30 33 32 28 18 13 10 2 5 10 17 20 22 25 28 31 35 38 40 42 44 46 44 43 43 42 42 34 26 29 26 20 14 12 20 20 23 27 28 28 25
61 51 49 44 46 47 30 33 34 31 30 23 18 12 10 3 5 3 9 17 20 19 23 24 30 34 37 40 42 41 45 47 45 44 38 33 29 26 28 24 17 11 15 17 17 19 18 20 24
64 56 51 47 47 39 41 37 34 33 29 28 18 12 14 8 6 1 4 11 16 15 16 20 25 28 30 34 40 40 40 40 41 45 43 35 31 29 26 26 25 19 16 13 15 12 12 13 17
66 61 60 52 48 46 42 35 41 35 30 29 22 19 19 12 13 5 2 4 10 15 13 17 19 22 24 27 32 36 37 40 37 41 42 40 39 36 37 35 32 29 26 15 13 13 13 15 14
73 69 67 57 51 56 48 42 44 41 33 32 30 26 23 20 17 11 5 1 3 8 12 11 15 16 18 17 23 27 29 33 36 38 40 40 40 39 40 41 35 33 31 26 15 11 13 15 16
76 75 69 66 51 57 53 49 43 40 36 31 31 29 26 29 20 14 8 5 3 3 3 6 9 10 14 11 12 11 21 24 30 32 35 36 35 36 36 38 40 38 33 29 26 22 15 8 8
80 76 74 74 61 57 58 56 50 42 43 38 32 33 36 36 22 19 12 11 8 3 3 1 3 6 7 7 9 10 15 19 23 25 27 24 25 29 32 33 33 38 40 38 32 27 21 14 12
83 82 78 73 68 61 59 50 52 51 45 45 38 41 37 33 28 20 19 17 13 6 6 6 3 5 4 3 6 6 7 11 12 12 11 20 24 25 25 27 30 32 35 36 36 32 27 21 19
89 86 82 76 71 59 64 62 49 41 47 45 52 52 42 36 38 27 26 22 24 17 13 11 9 7 6 5 5 5 2 4 7 9 9 13 9 14 17 21 22 24 24 27 32 32 30 27 25
86 85 83 79 76 68 65 68 62 50 47 50 50 52 58 49 42 37 33 27 28 25 19 17 14 13 12 11 11 8 4 2 2 3 5 8 8 9 11 12 13 14 17 21 24 27 32 33 30
87 87 85 82 81 80 74 70 63 65 54 55 49 51 59 54 43 43 40 33 32 25 29 26 20 20 16 15 15 13 10 6 3 4 6 8 7 8 10 13 11 9 8 10 13 19 22 26 28
88 89 89 89 86 83 87 81 63 62 61 52 52 55 54 55 51 43 38 38 34 34 36 29 25 27 23 22 21 20 17 13 9 7 5 8 9 11 10 8 9 8 7 7 8 12 14 17 20

GFSSGP_250_spd_120.txt.gz
Wind_Speed
9 11 12 10 21 24 35 37 41 39 39 35 26 26 25 24 22 21 14 11 10 9 7 4 5 7 11 18 16 21 26 28 29 31 32 32 31 28 27 30 29 33 30 32 30 27 27 21 19
7 7 11 13 20 27 33 31 40 37 39 34 26 25 27 26 25 21 16 13 10 7 4 4 1 2 4 4 5 10 19 24 33 34 37 33 31 29 28 25 26 28 26 26 26 25 25 27 25
2 7 8 7 16 22 29 30 38 39 38 35 28 25 28 28 27 24 20 18 18 15 8 4 0 1 4 6 4 2 3 6 13 23 27 35 37 36 40 38 26 25 21 21 23 21 22 18 17
5 12 14 7 12 19 24 30 36 40 39 38 28 28 28 29 28 27 21 22 26 20 13 7 4 4 7 9 6 6 7 6 4 3 5 8 11 13 16 18 19 19 14 15 23 26 22 16 16
9 13 8 5 14 14 18 25 32 38 39 39 32 30 32 31 31 27 28 24 26 26 19 12 5 2 7 11 9 8 10 9 9 7 4 4 4 6 7 10 10 11 11 13 13 17 18 15 14
5 11 6 13 13 11 15 24 28 36 38 38 37 32 33 32 33 34 28 24 28 26 27 15 4 3 11 11 10 8 9 10 9 7 5 6 5 4 4 8 6 9 9 5 7 12 11 6 11
11 7 7 5 6 7 14 19 24 30 37 37 39 34 31 28 32 36 33 30 29 27 31 22 12 5 8 11 9 8 7 6 6 5 2 1 4 7 13 9 8 5 1 3 8 12 12 11 11
19 12 6 5 5 6 11 12 20 25 31 35 37 37 34 30 31 31 33 33 32 33 34 23 24 17 12 11 8 7 6 9 7 7 7 5 14 10 8 4 2 4 5 7 9 9 13 14 10
22 18 11 2 8 4 8 10 15 22 25 36 37 36 36 34 34 30 33 35 33 36 35 28 25 28 22 18 18 15 13 9 9 13 10 2 15 7 4 4 1 3 8 11 11 10 10 9 8
22 21 19 9 6 7 1 8 14 16 22 31 36 35 34 36 36 32 31 36 39 37 35 34 28 19 16 20 17 15 12 9 9 9 4 5 10 14 10 3 7 11 13 14 14 14 13 12 9
26 27 20 15 11 10 9 5 8 11 17 25 33 34 31 33 37 35 32 35 38 39 37 33 27 25 16 9 8 8 9 12 14 12 13 7 15 13 14 15 16 16 15 15 12 12 10 8 8
30 32 25 20 17 11 11 7 4 6 10 17 26 30 28 31 35 37 33 31 36 39 39 33 30 25 23 15 9 6 9 13 8 13 21 15 16 28 30 22 19 16 12 11 12 10 9 3 4
32 34 30 25 19 16 15 12 6 5 8 15 19 26 25 29 31 31 31 30 33 39 38 38 33 27 26 23 15 11 10 10 6 17 16 20 24 22 22 18 15 18 13 11 7 6 5 9 14
37 38 35 29 21 20 13 18 17 4 6 8 21 23 23 26 27 30 32 31 33 36 39 38 37 32 28 29 24 20 15 10 6 14 14 15 16 15 18 18 14 13 12 9 8 9 11 13 15
41 41 40 34 27 22 22 22 27 15 7 2 16 19 18 24 25 29 29 30 30 32 39 39 39 39 33 32 33 30 25 17 18 17 17 16 15 15 16 14 14 16 14 13 13 14 12 15 15
46 45 44 38 33 25 26 23 20 19 8 4 7 14 17 20 18 26 30 31 33 34 39 39 41 42 41 38 37 37 30 27 27 29 28 25 21 16 20 21 20 20 20 18 19 18 17 20 23
49 48 42 41 37 30 27 30 22 21 14 11 4 11 13 14 16 22 27 28 33 35 40 42 43 45 45 44 42 39 36 32 29 33 33 32 29 25 23 24 28 30 27 27 30 25 20 20 22
51 50 45 42 35 37 31 34 31 27 19 16 8 5 9 9 13 20 23 25 27 33 35 41 41 41 46 46 45 41 37 33 31 29 34 32 32 27 23 22 25 30 31 29 28 30 26 22 20
56 49 53 47 42 32 38 34 32 22 18 22 11 7 5 4 5 13 19 20 24 27 32 37 38 40 42 44 45 43 40 36 32 28 28 33 30 23 18 17 19 23 25 27 29 29 31 27 26
65 53 47 56 44 48 44 39 35 28 25 27 17 15 7 1 2 7 13 19 21 22 24 29 34 35 41 40 38 40 41 36 32 31 27 29 33 31 23 18 17 15 16 18 19 23 25 29 26
70 68 58 53 53 48 47 43 38 34 33 28 24 17 9 11 4 3 8 13 18 19 18 23 27 30 36 39 40 42 42 42 44 38 37 35 39 36 31 23 19 14 14 13 15 18 20 18 22
74 71 63 56 56 48 46 47 49 40 33 30 26 21 16 13 9 5 3 8 11 15 15 18 19 27 30 33 33 39 40 41 41 40 41 40 41 42 38 30 27 20 15 15 16 18 21 21 20
76 73 66 64 60 53 48 50 42 41 36 32 32 27 21 18 12 10 7 5 7 10 11 11 14 16 20 24 26 30 34 36 36 35 36 37 37 41 42 39 37 30 22 17 20 17 20 21 21
78 73 67 68 65 54 53 54 48 44 39 41 39 29 22 21 18 14 13 7 3 3 8 6 7 8 10 14 19 24 26 28 30 30 31 34 36 38 39 41 40 37 30 24 17 13 15 13 14
79 79 74 70 67 60 56 57 53 49 47 43 41 31 31 26 26 19 17 13 8 6 1 2 4 5 5 11 12 14 20 19 23 27 27 27 29 32 33 35 34 38 37 34 28 18 13 9 4
83 84 86 71 65 66 63 54 56 53 51 50 38 35 29 27 29 22 20 15 12 8 6 3 2 0 2 4 7 7 8 12 10 14 14 17 23 23 27 27 28 31 35 37 36 32 25 17 10
84 88 84 78 71 65 69 65 62 59 56 54 43 41 34 29 28 26 25 17 12 12 9 6 7 4 5 5 3 3 4 5 7 8 10 13 12 14 15 18 20 25 27 32 32 34 34 30 23
81 86 85 83 82 73 71 71 65 61 58 53 50 47 41 32 35 35 31 25 14 15 14 7 8 9 9 8 6 3 4 7 5 5 5 8 7 8 13 14 14 14 15 22 26 27 29 31 30
83 85 90 87 86 81 74 72 69 67 62 58 55 53 44 35 39 40 38 30 22 17 19 15 14 12 13 14 11 11 11 9 8 5 2 2 3 6 8 12 12 12 12 9 16 20 21 24 26
84 90 93 89 89 84 80 74 72 67 67 64 59 58 49 48 46 39 40 34 31 25 24 21 19 22 16 19 20 18 16 16 14 11 8 6 6 5 4 4 5 7 9 6 7 11 12 12 17

GFSSGP_250_spd_123.txt.gz
Wind_Speed
9 12 12 16 21 29 37 41 42 42 38 33 31 32 31 25 22 18 15 12 10 6 3 3 4 6 11 13 12 21 33 31 28 32 32 32 30 30 34 35 31 24 28 28 28 28 28 24 24
9 6 10 14 21 28 34 39 42 41 42 35 32 31 30 26 24 18 16 17 13 10 7 5 2 3 5 8 12 16 21 27 31 31 30 32 32 30 29 27 26 26 26 27 28 27 26 25 23
7 6 4 9 19 23 29 36 39 40 44 37 32 32 34 30 26 23 17 21 19 12 6 4 2 3 4 6 5 5 7 13 22 36 31 32 29 34 32 29 28 28 29 26 23 20 20 16 18
12 9 3 7 14 17 26 31 38 39 42 39 30 30 33 33 31 24 19 22 18 17 9 3 1 7 8 7 6 7 5 5 5 6 14 26 36 32 39 35 24 23 21 19 16 16 18 17 16
5 8 0 5 11 15 21 25 31 34 39 41 33 32 30 33 33 28 27 24 23 22 10 2 5 8 10 9 7 9 9 8 8 6 5 5 4 5 7 9 10 13 12 13 15 14 17 19 13
4 12 3 5 6 8 18 21 24 35 37 42 37 33 30 32 33 31 29 32 28 23 14 6 10 13 13 12 11 9 10 10 11 10 9 11 8 8 6 9 11 11 11 10 8 10 11 5 6
9 6 7 4 11 8 13 17 20 31 34 39 38 34 32 33 34 36 32 32 31 21 22 12 12 14 15 13 11 8 7 7 7 8 6 6 5 2 3 8 8 7 5 4 6 10 8 4 6
16 13 1 8 8 7 9 13 17 27 32 38 37 35 33 35 33 36 33 29 34 26 26 22 16 13 14 12 11 9 8 8 4 8 8 6 6 2 4 7 4 3 7 9 11 12 9 10 10
19 18 8 1 6 5 6 11 16 23 33 35 34 34 32 34 37 37 36 32 34 29 25 24 22 17 16 15 15 11 9 8 8 5 6 1 6 5 8 4 2 2 8 12 11 9 8 5 4
24 20 18 6 5 6 2 6 10 17 27 31 32 33 30 32 34 35 34 36 32 31 29 28 19 17 17 18 15 12 10 11 11 8 5 7 7 10 4 7 8 11 11 11 11 13 11 9 11
27 22 21 21 9 8 5 2 5 11 19 23 29 33 28 31 31 34 34 32 35 31 30 28 25 17 9 5 7 9 10 7 9 9 4 5 7 5 14 16 17 16 15 13 13 12 12 8 8
31 25 27 25 20 14 9 4 1 5 16 25 28 32 30 30 32 31 33 35 34 35 31 28 26 21 18 8 4 4 8 10 11 12 18 24 27 27 23 22 19 16 14 14 11 11 8 6 5
34 31 29 25 19 15 11 4 4 1 10 21 23 29 31 32 34 34 34 33 33 36 34 28 24 26 20 14 9 9 10 8 12 19 26 26 26 23 21 21 17 18 15 11 10 7 9 16 17
38 35 33 32 23 17 15 11 12 8 5 15 22 27 29 28 34 37 32 32 35 34 35 31 32 29 24 25 23 23 20 17 16 18 17 18 19 22 20 17 16 14 12 10 11 15 17 16 17
41 39 37 38 28 23 17 16 17 7 5 5 15 24 24 23 28 35 36 33 37 37 36 36 35 32 31 31 33 30 26 26 26 20 18 21 24 23 21 23 21 18 14 14 15 16 17 23 26
47 44 42 39 33 28 21 23 18 20 16 12 11 19 17 18 25 29 31 34 36 39 39 39 38 37 34 35 35 35 34 33 32 28 25 24 22 24 27 27 24 25 22 19 18 18 22 25 25
52 47 44 42 40 32 27 28 27 25 20 12 3 12 12 14 22 23 28 33 33 39 41 40 43 40 36 32 36 38 38 35 34 30 28 27 25 25 26 26 29 29 25 21 22 22 23 23 23
54 51 47 45 43 39 33 29 29 22 17 15 7 6 8 9 16 21 25 26 30 34 38 38 41 43 41 37 35 32 30 33 29 28 23 26 23 24 29 31 30 26 28 27 27 27 24 25 22
59 57 52 50 45 41 37 33 28 27 25 20 14 6 2 8 8 16 21 20 25 29 33 36 38 40 44 40 37 35 30 30 29 29 27 23 22 23 27 28 30 29 29 32 29 27 27 28 22
64 62 57 53 47 41 43 40 35 34 32 27 19 11 5 1 6 12 15 17 19 25 26 34 39 40 44 45 47 42 39 37 34 32 31 28 24 21 20 19 19 20 21 26 27 29 28 29 26
66 66 62 58 52 45 46 46 41 37 33 29 22 15 11 8 2 7 11 15 17 20 23 30 33 32 37 40 41 41 42 45 45 41 40 37 30 23 18 18 18 16 21 23 25 22 24 31 30
66 70 67 60 59 57 51 51 47 41 36 31 25 21 15 14 5 5 7 10 14 14 19 22 25 25 29 32 35 36 38 41 41 45 44 45 42 32 25 20 19 20 23 25 25 23 26 33 35
69 72 68 65 63 60 58 54 48 46 44 35 31 26 23 19 9 9 7 7 10 12 13 17 15 17 22 28 30 31 32 32 37 40 41 45 42 40 31 32 23 22 24 26 25 27 32 33 30
72 74 72 69 66 65 62 62 56 51 45 40 35 29 27 22 14 12 10 9 7 9 9 7 8 13 17 18 26 30 29 29 30 31 32 37 38 41 38 37 34 22 19 21 20 20 23 19 20
69 74 79 67 70 65 63 60 57 51 48 43 37 33 31 25 18 16 12 11 8 8 6 5 6 10 12 12 13 16 17 19 21 24 25 29 32 33 37 40 38 37 31 22 18 15 12 15 15
73 75 82 81 68 63 61 64 60 56 51 49 45 40 35 29 18 20 16 12 11 9 7 4 3 4 5 6 6 9 13 12 12 14 15 17 20 23 26 30 33 36 37 34 29 24 21 18 14
82 77 81 84 80 70 62 59 63 56 53 50 50 43 43 32 27 24 24 21 13 11 10 7 2 1 1 3 4 3 5 7 8 9 12 13 16 18 19 20 22 27 32 32 33 34 30 25 18
81 77 81 85 82 76 67 62 63 59 55 53 48 47 47 37 35 29 30 26 22 12 12 8 5 3 3 6 5 4 7 5 6 7 7 8 11 13 15 16 18 19 22 24 25 27 30 31 29
84 79 82 85 82 76 78 68 64 64 61 57 54 53 49 40 39 31 33 33 29 19 14 14 8 5 3 8 10 11 9 8 6 4 5 5 6 7 9 13 14 12 11 13 15 20 21 24 27
85 78 78 82 80 77 78 73 68 67 64 61 54 52 50 45 44 36 34 37 33 28 18 19 14 15 12 10 14 16 15 13 11 9 5 7 4 4 3 3 5 7 9 9 15 13 14 14 15

GFSSGP_250_spd_126.txt.gz
Wind_Speed
9 13 15 19 27 32 38 40 40 38 34 30 30 30 27 23 17 12 17 13 9 5 1 2 7 11 16 12 15 18 37 38 31 26 28 25 22 25 26 27 26 27 29 31 25 22 21 24 23
11 11 10 16 22 27 32 37 39 37 39 32 28 30 30 27 20 14 15 14 11 5 1 4 7 9 12 15 14 17 32 39 39 32 30 33 29 30 31 30 30 29 26 23 24 24 25 24 24
3 8 8 11 17 23 30 35 39 36 41 33 28 29 32 30 27 23 17 15 13 7 1 5 9 11 9 10 11 13 20 31 36 39 39 36 35 32 31 32 28 24 23 21 21 22 22 22 19
7 5 2 12 15 21 26 29 36 36 41 36 31 28 32 31 26 23 25 19 12 4 4 6 8 11 13 13 12 10 10 13 18 25 32 34 31 29 29 25 29 27 25 21 18 20 13 15 15
6 5 7 14 16 17 22 29 35 34 38 38 33 31 31 33 28 27 27 21 17 11 8 10 13 14 13 10 10 10 9 7 7 7 8 14 20 27 28 27 18 18 16 13 13 15 13 8 10
7 8 4 11 14 14 18 24 32 33 37 37 31 31 33 33 30 29 30 21 19 16 12 13 17 16 14 13 14 12 10 10 10 8 8 10 12 11 6 6 9 8 7 7 8 13 19 16 11
7 7 5 8 10 13 15 22 30 30 34 34 29 29 32 32 32 33 32 26 25 26 15 15 19 19 16 14 13 10 9 5 7 10 9 8 8 3 4 5 3 5 6 6 6 8 12 13 8
11 10 4 3 7 8 11 17 23 29 30 32 30 29 28 30 31 35 32 30 32 28 21 17 19 19 18 14 9 10 8 4 3 8 9 5 4 2 4 3 1 4 5 5 8 11 9 8 2
16 13 12 3 6 5 5 10 15 24 26 31 34 29 26 29 32 34 35 31 29 28 23 18 15 16 15 17 13 8 7 8 5 6 8 5 2 1 4 4 4 9 10 12 13 11 8 5 3
20 18 15 10 2 10 4 5 11 19 23 31 35 32 26 28 31 33 34 30 27 25 22 19 19 19 17 15 11 14 8 5 2 1 7 9 3 3 1 11 13 16 16 16 16 15 13 14 15
26 23 18 18 10 10 5 3 8 13 23 28 35 35 28 28 30 32 32 32 26 24 24 18 16 17 15 13 10 10 5 6 6 5 8 7 3 7 13 16 20 20 20 21 21 18 15 15 14
30 28 23 23 21 10 7 3 3 9 20 23 34 34 30 28 30 33 30 29 27 27 23 23 17 16 12 8 6 2 7 5 14 15 18 21 21 19 19 20 19 20 21 19 17 13 15 13 14
34 32 30 27 26 21 16 10 3 5 16 21 31 31 30 30 30 30 27 29 31 29 28 26 18 16 17 13 10 14 14 17 24 26 25 25 25 21 19 19 19 18 17 16 13 14 21 23 22
38 36 34 29 22 21 16 12 3 6 14 17 26 27 29 29 30 30 32 31 33 32 34 31 29 28 26 23 24 25 24 25 22 25 22 22 17 14 16 20 18 16 14 12 15 21 22 21 23
44 40 37 35 28 24 18 13 7 9 5 13 19 23 21 22 27 31 33 37 36 36 37 35 31 35 34 34 33 34 31 32 29 29 27 25 22 20 18 16 16 16 17 18 19 20 20 25 25
48 44 41 38 32 28 21 16 14 10 10 6 12 18 16 20 23 29 30 38 39 40 40 35 34 33 36 35 33 32 33 32 30 30 30 31 31 30 28 25 22 22 21 20 23 23 25 27 24
50 49 45 42 36 32 28 24 26 22 19 6 7 13 11 14 18 24 27 30 37 39 42 40 35 29 30 30 31 29 28 28 28 27 27 29 30 31 29 27 25 26 25 24 21 23 25 25 22
55 52 49 44 41 38 35 29 29 29 24 11 6 8 9 11 16 19 22 24 30 39 39 40 41 36 34 32 31 30 29 24 24 24 24 26 28 30 29 31 31 29 30 26 25 24 24 24 24
60 56 54 49 46 42 39 34 31 25 26 16 12 7 3 9 11 17 18 21 26 37 39 41 42 43 43 42 37 33 31 29 22 22 23 25 26 27 29 32 35 34 30 31 29 26 24 26 31
63 62 58 55 50 47 45 39 32 33 29 26 17 12 6 4 6 13 16 18 23 29 37 36 40 43 43 46 48 47 44 40 32 27 23 23 22 21 25 25 28 32 31 29 30 28 27 32 33
64 66 62 59 55 52 49 46 40 33 32 25 21 18 11 7 1 8 15 16 19 23 26 32 35 39 38 42 44 46 47 49 45 38 36 26 20 19 19 22 27 28 31 31 32 32 35 32 28
65 68 67 64 60 55 52 50 47 38 34 31 25 20 15 9 5 2 9 14 15 19 22 21 29 31 33 34 38 41 42 47 46 44 36 35 27 26 24 26 26 28 28 33 34 35 35 30 28
69 70 71 69 65 59 55 54 54 45 39 37 32 33 21 16 10 5 4 11 13 15 18 16 25 29 27 30 32 33 34 37 41 43 43 36 35 28 27 27 28 28 28 31 35 33 31 30 27
73 69 71 73 70 64 59 59 56 53 46 40 36 31 28 26 14 9 9 8 11 13 11 7 14 25 24 24 24 26 27 29 32 37 38 41 40 36 28 23 22 23 29 31 27 23 21 21 22
79 72 71 75 72 66 61 59 61 55 49 42 42 36 31 26 22 14 13 10 9 10 10 11 15 15 12 13 14 15 18 22 24 26 29 31 34 38 39 33 24 20 21 22 20 16 15 14 16
88 80 73 76 77 71 67 63 62 57 54 49 47 44 34 31 27 22 16 15 12 9 7 8 11 13 11 9 10 11 12 15 18 18 22 22 23 26 32 35 36 31 24 18 14 14 11 10 10
90 85 77 77 80 74 71 70 67 63 58 53 50 46 38 37 32 26 23 20 16 12 8 4 5 5 5 7 7 9 10 11 13 14 16 17 17 17 19 23 27 31 34 30 23 17 12 8 6
93 85 80 78 80 79 76 70 70 67 62 55 52 50 46 41 36 34 27 28 21 16 14 12 9 6 3 2 2 3 6 8 9 9 11 12 13 13 12 15 19 20 23 26 29 30 27 21 19
95 88 82 77 78 79 76 74 74 70 66 62 57 52 48 45 41 38 31 33 28 24 20 18 15 11 9 5 3 2 3 2 3 5 6 7 8 8 10 9 9 9 11 16 18 21 24 25 23
94 89 84 77 79 78 75 77 72 72 68 66 60 55 52 50 44 44 37 35 35 33 27 25 22 16 12 10 8 6 7 9 6 5 5 2 2 3 4 5 5 6 9 10 10 12 14 16 17